GFSWCAN_sfc_dewp_000.txt.gz
Dewpoint
50 50 50 50 50 50 50 50 51 51 51 51 50 50 50 50 51 53 57 59 56 49 47 47 46 44 43 43 46 43 43 46 44 37 36 37 35 37 35 32 34 32 34 33 33 32 30 34 36 36 38 42 41 42
50 49 49 49 49 50 50 50 50 50 50 50 50 50 50 50 50 51 52 59 56 54 49 54 52 51 47 45 46 47 44 42 46 43 39 39 35 36 35 32 32 32 35 34 32 33 36 37 37 40 40 42 42 43
48 48 49 49 49 49 49 49 49 50 50 50 50 50 50 50 50 52 54 58 55 41 50 50 48 50 51 51 52 47 50 45 44 48 46 37 34 41 34 36 37 36 36 36 35 34 35 37 39 40 41 41 42 40
47 48 48 48 48 48 48 48 48 49 49 49 49 49 49 50 50 51 54 56 54 44 34 43 49 49 49 50 50 50 49 50 49 49 41 36 34 41 36 37 37 37 37 36 35 37 37 38 40 40 41 41 41 41
47 47 47 48 48 47 48 48 48 48 48 49 49 49 49 50 50 51 54 55 56 50 38 41 45 46 47 48 48 49 49 48 48 44 36 36 43 39 41 39 37 38 37 37 35 37 40 39 40 40 39 41 40 34
46 47 47 47 48 48 47 48 48 48 48 48 49 49 49 49 49 50 45 51 52 53 40 34 45 44 45 46 46 47 48 48 48 45 39 43 44 39 34 35 37 36 36 37 37 37 37 38 37 38 40 40 32 28
45 47 47 47 46 47 47 47 47 48 48 48 48 49 49 49 50 46 43 48 50 52 35 36 40 42 42 43 44 45 47 48 47 44 40 39 39 41 34 35 37 38 37 36 37 38 38 37 37 37 32 28 28 28
45 46 46 46 46 46 46 46 47 48 48 48 48 48 49 49 48 45 47 48 50 44 38 34 34 37 41 43 41 43 42 42 41 40 39 38 40 37 34 36 35 35 33 32 37 37 35 32 30 26 26 27 28 30
45 45 46 46 46 45 46 46 46 47 47 47 47 47 47 45 41 43 47 47 47 42 35 32 33 33 39 40 39 38 39 33 40 36 38 39 38 34 35 33 33 32 33 35 35 31 28 27 26 26 26 28 29 32
45 45 46 45 45 45 45 46 46 47 46 46 46 42 36 41 47 46 43 38 37 36 36 32 39 36 38 38 36 36 36 33 32 36 38 37 35 36 35 34 33 33 30 28 34 31 30 29 26 27 27 29 34 34
45 46 45 45 45 45 45 46 46 46 44 45 42 38 44 45 45 41 36 34 34 33 34 36 37 37 40 35 34 36 33 34 31 32 36 34 31 31 30 31 30 29 26 26 25 26 25 27 27 29 32 36 36 35
46 46 45 45 45 45 45 45 44 41 44 43 43 43 44 40 39 34 33 35 34 32 37 36 36 37 39 39 37 37 33 35 27 33 32 28 30 26 29 28 28 25 24 25 25 25 25 26 31 34 35 36 35 34
45 45 45 44 44 44 43 41 42 43 43 42 40 37 35 35 31 29 27 32 33 37 35 36 34 37 38 37 35 33 29 27 35 31 26 28 30 30 28 23 24 25 32 31 25 26 30 31 33 34 34 34 33 32
44 44 44 43 43 43 42 43 43 42 39 35 34 28 31 29 28 29 31 33 34 35 36 37 35 36 36 32 33 28 30 33 27 24 25 30 29 27 27 29 28 27 30 31 33 34 34 34 33 33 34 31 30 29
43 43 43 43 43 43 43 42 41 39 38 32 34 26 28 32 35 33 36 36 36 37 37 36 36 32 33 30 31 30 25 23 24 24 32 33 34 32 32 32 30 33 31 31 32 33 34 34 33 33 34 32 32 31
43 42 40 43 43 43 41 39 38 36 37 32 31 30 34 34 32 32 33 34 37 38 37 36 31 27 25 27 25 23 21 16 26 37 34 30 31 32 31 32 35 34 33 33 34 35 34 34 34 34 34 33 32 32
40 37 41 41 43 42 41 36 37 34 31 30 32 37 34 34 33 34 34 35 37 34 31 30 22 21 25 22 20 22 24 30 34 32 30 31 30 30 29 34 33 33 33 33 34 34 35 35 34 33 32 32 32 32
37 39 41 41 40 38 35 36 35 31 27 28 27 34 32 35 35 35 35 36 36 31 26 24 23 21 19 16 19 27 29 31 30 30 29 28 29 29 29 31 30 30 32 33 34 34 34 34 32 32 32 30 31 32
38 38 41 41 37 36 32 32 33 26 28 29 28 30 32 35 36 34 36 36 35 33 31 29 24 22 23 25 28 30 32 32 30 28 28 29 30 30 29 28 29 31 31 32 35 33 32 32 32 34 30 30 31 32
39 40 40 41 39 34 31 31 32 28 25 27 29 29 30 29 36 34 34 34 33 31 27 24 23 26 28 28 29 30 29 30 29 28 28 28 29 29 29 29 29 30 30 31 34 33 32 32 34 34 33 33 34 34
38 38 39 39 37 34 30 27 26 26 25 23 25 27 28 35 34 33 32 34 30 26 23 25 28 28 28 29 30 30 30 30 29 30 30 29 30 31 30 30 30 31 32 33 32 33 32 32 34 33 34 33 33 33
39 39 38 38 34 34 31 31 26 29 26 26 26 27 28 29 30 32 32 30 27 27 28 28 27 28 28 27 28 30 30 30 29 29 28 29 30 30 31 32 32 33 34 34 34 33 33 34 34 34 33 33 32 32
38 37 36 35 30 29 28 32 28 26 24 25 26 24 25 27 29 27 27 25 28 28 28 28 28 29 28 28 28 27 27 27 29 30 32 32 32 34 34 33 33 33 32 32 34 34 33 34 33 32 33 32 31 30
38 33 31 30 29 25 32 27 28 26 27 23 22 20 21 26 28 26 23 26 27 28 27 27 27 27 27 27 27 27 28 30 31 33 34 34 33 33 33 34 35 34 34 34 34 34 33 33 32 31 32 31 30 28
29 29 30 25 29 26 23 23 24 23 20 22 21 22 22 28 21 19 20 23 27 30 31 30 30 29 28 30 30 30 32 31 33 32 33 33 33 32 32 33 34 34 34 33 33 33 32 32 32 31 30 30 28 29
24 28 25 24 25 23 21 18 20 21 22 21 21 23 31 23 18 19 17 28 35 35 33 33 33 33 30 27 27 28 31 35 34 31 30 32 32 32 32 32 32 34 36 34 33 32 32 32 31 30 30 29 28 27
24 24 28 25 24 24 25 27 26 24 20 18 21 22 20 18 17 18 22 27 30 37 36 37 34 31 30 29 31 36 36 34 32 31 32 31 31 33 34 33 32 35 36 34 33 33 33 33 31 30 29 30 29 28
25 28 23 27 27 27 24 23 21 19 20 20 22 19 19 19 16 27 28 34 41 38 37 38 39 36 35 35 35 35 33 32 32 31 32 31 32 34 34 34 34 30 35 34 33 32 33 33 31 30 30 30 30 31
25 29 29 22 25 25 25 23 24 23 22 23 22 21 22 23 30 30 30 34 39 37 34 34 35 34 35 35 34 32 32 33 30 28 27 27 28 33 34 34 32 32 33 32 32 32 33 33 32 31 32 32 30 30
25 31 24 23 22 21 25 28 28 32 30 30 29 29 29 30 32 34 34 37 34 33 33 33 32 31 29 29 30 30 33 33 32 30 28 27 29 32 32 32 32 32 32 32 31 29 29 30 29 29 28 27 27 26
30 32 26 26 24 27 30 33 34 33 33 31 31 30 29 30 34 37 35 35 33 31 30 29 29 32 29 29 29 28 28 32 31 30 29 30 31 32 32 32 32 32 32 32 30 29 29 29 29 28 26 24 25 23
30 26 24 22 25 30 32 31 32 30 31 30 30 31 31 30 28 30 26 26 26 27 28 27 26 27 28 28 31 32 29 28 27 27 27 29 32 32 32 32 32 32 32 31 30 29 28 26 27 25 24 23 22 21
27 28 25 25 24 24 28 28 27 25 28 27 27 28 30 29 26 23 24 24 23 23 22 23 24 26 28 27 28 29 27 26 24 23 23 22 22 24 27 30 32 31 30 29 28 27 26 24 24 24 24 23 22 20

GFSWCAN_sfc_dewp_003.txt.gz
Dewpoint
50 50 50 50 50 50 50 50 50 50 50 50 50 50 50 50 51 53 54 57 53 43 47 47 47 44 43 41 34 39 38 37 36 33 34 32 32 31 29 30 27 26 25 29 29 30 25 36 35 29 34 39 40 40
50 50 49 49 49 50 50 50 50 50 50 50 50 50 50 50 50 51 51 57 56 49 48 52 52 52 49 48 45 42 40 41 40 34 33 34 33 34 33 31 32 30 31 28 31 29 35 36 35 37 37 38 41 41
49 49 49 49 49 49 49 49 49 50 50 50 50 50 50 50 50 52 52 54 51 40 47 47 46 49 51 50 50 41 40 44 43 44 39 35 34 36 33 33 33 36 38 33 32 33 34 36 36 37 38 40 42 43
47 48 48 49 49 48 49 49 49 49 49 49 49 49 49 50 50 51 51 55 52 43 34 42 47 47 50 50 49 50 47 48 47 45 36 34 34 41 35 36 35 37 36 34 34 35 35 36 37 39 41 45 45 42
46 47 47 47 47 48 48 48 48 48 49 49 49 49 49 50 50 50 52 53 54 49 37 38 44 46 47 48 48 48 48 47 43 38 34 35 37 37 36 36 35 39 35 35 33 35 36 37 39 41 42 42 43 40
46 46 47 47 47 47 47 47 48 48 48 49 49 49 49 49 49 50 44 50 53 53 40 35 44 42 45 46 45 46 47 47 47 41 36 40 42 39 33 35 36 36 38 39 38 38 38 40 40 38 38 39 32 31
45 46 46 46 46 46 46 46 47 48 48 48 49 49 49 49 50 46 43 47 50 51 36 35 36 40 41 42 44 45 46 45 45 41 38 38 39 41 33 35 36 38 38 38 38 39 40 42 38 35 31 30 31 30
45 46 46 46 46 46 46 46 47 47 48 48 48 48 49 49 48 45 47 48 50 45 38 35 34 35 41 37 35 40 36 38 41 40 37 36 38 36 33 38 37 37 37 36 39 41 38 34 30 27 28 29 30 32
45 46 46 45 45 45 46 46 47 47 48 48 48 48 46 44 41 43 47 46 46 43 36 33 32 33 40 38 36 36 38 33 38 34 36 38 34 34 37 37 34 35 36 36 34 32 30 29 29 29 28 29 32 34
45 45 45 45 45 45 45 46 47 47 47 46 45 40 35 40 47 46 42 37 36 35 35 32 36 34 39 34 33 34 33 32 31 33 36 33 32 34 34 34 35 34 33 34 33 32 30 28 29 29 30 32 35 34
45 45 45 45 45 45 45 46 46 45 44 44 38 35 42 46 43 38 32 32 33 31 32 34 35 34 38 33 32 33 32 32 28 26 27 23 27 31 32 33 34 36 33 32 31 29 27 27 27 31 30 31 30 30
45 46 45 45 45 45 46 46 45 42 43 42 41 43 42 40 35 33 32 32 31 28 33 33 34 36 35 40 33 33 29 29 23 28 25 23 27 28 31 32 32 30 29 27 26 26 27 28 31 31 30 30 29 30
45 46 45 45 45 45 45 41 42 43 44 43 38 34 36 33 30 26 23 30 28 33 34 34 33 34 35 35 32 31 27 25 27 26 22 24 29 32 30 30 29 29 27 27 28 29 31 31 32 29 29 27 32 31
45 45 45 44 44 43 42 41 43 42 39 32 30 22 24 24 23 28 29 32 33 33 34 33 33 31 31 29 29 25 24 25 19 16 17 25 29 31 31 31 31 31 27 27 29 30 29 28 29 27 23 31 31 27
44 44 44 43 43 42 42 42 41 41 36 29 28 19 22 28 31 32 33 33 33 34 34 33 32 30 24 22 22 20 16 20 18 16 21 27 29 28 29 31 30 27 24 25 30 28 27 27 32 33 33 32 30 29
43 42 41 43 43 43 42 40 40 38 31 29 27 22 27 25 30 30 32 32 34 33 32 29 25 19 17 20 16 16 15 14 17 22 26 27 28 29 29 28 29 30 30 31 31 31 30 26 31 33 33 33 32 30
40 38 43 43 43 41 40 37 35 31 28 25 22 29 32 29 31 31 32 32 35 28 21 22 15 17 22 15 15 23 17 19 22 25 27 27 27 28 29 28 28 30 31 30 30 30 30 28 29 31 31 31 30 28
39 41 41 40 40 39 36 36 30 27 22 24 21 23 25 27 32 32 32 32 33 27 24 20 23 13 10 9 11 17 21 22 25 24 26 28 28 29 29 29 29 29 28 28 29 29 29 24 28 29 30 31 28 27
40 40 40 40 39 33 28 28 31 23 23 24 25 26 26 25 26 27 29 29 29 28 24 21 14 14 16 18 16 20 22 22 26 27 27 28 27 28 29 29 29 29 28 28 29 29 29 30 32 32 32 29 29 29
40 41 40 40 40 31 28 28 32 27 24 26 25 23 24 23 24 30 31 31 25 23 20 19 18 21 21 24 25 24 26 26 26 26 27 27 28 29 29 29 29 29 29 28 29 27 28 31 31 32 32 31 32 31
38 39 40 40 36 36 29 25 24 28 26 24 26 25 22 24 22 27 29 27 27 26 20 23 23 23 25 26 27 27 27 27 27 28 28 28 28 28 28 28 29 29 26 27 30 31 31 32 32 32 32 32 32 32
38 39 36 36 32 31 27 28 25 26 23 22 21 23 18 16 18 20 25 24 23 23 25 23 23 24 25 26 27 28 29 29 29 28 25 26 27 29 29 30 30 29 29 31 31 33 34 34 34 33 32 32 30 30
38 36 34 32 28 26 20 29 20 24 17 17 20 16 15 16 22 27 18 24 25 27 26 26 27 27 28 28 27 27 27 27 26 26 27 28 30 28 30 30 29 32 32 32 33 33 33 34 33 32 31 31 28 29
38 33 29 26 23 15 24 27 27 21 18 16 15 11 16 18 22 17 16 18 23 26 25 26 27 26 26 26 26 27 28 29 27 26 27 27 28 29 30 31 32 33 33 33 33 33 33 32 31 30 30 30 29 29
27 28 28 22 24 21 20 18 22 16 11 14 12 11 15 19 13 11 13 17 20 24 25 26 27 28 26 23 24 27 27 29 26 26 26 25 29 29 31 32 32 32 34 32 32 32 32 32 29 27 27 29 29 28
23 24 23 18 22 19 17 9 12 13 12 10 13 17 17 13 9 11 18 18 20 22 23 25 26 23 25 28 26 25 26 27 26 24 25 29 30 30 29 29 30 31 33 33 32 31 31 27 25 26 27 29 29 28
22 18 23 27 24 22 16 18 19 15 9 9 12 13 13 13 9 16 22 23 25 25 27 28 29 29 28 28 27 27 25 25 26 28 30 30 30 30 30 29 29 30 33 33 32 31 30 29 29 29 29 29 29 26
21 20 18 20 20 21 13 13 12 13 14 20 16 9 10 11 14 22 26 27 26 28 28 31 31 31 30 29 26 24 28 30 31 31 30 30 31 31 31 32 33 32 32 33 32 32 32 32 32 30 29 28 27 28
20 23 22 15 15 17 16 16 16 20 23 22 18 16 16 21 21 23 25 28 31 30 26 26 30 32 32 32 25 29 30 31 30 27 25 26 25 26 27 30 32 32 31 32 32 31 31 32 32 31 30 25 26 29
18 25 18 13 13 13 18 23 20 22 26 27 27 27 27 27 29 30 30 30 30 30 30 29 27 31 29 28 22 28 30 31 32 30 27 18 20 26 29 30 31 31 32 32 32 26 29 31 30 30 28 27 25 23
23 23 17 19 17 21 24 26 28 23 22 25 28 27 25 27 28 25 23 28 29 31 31 29 29 30 29 28 27 26 26 29 24 27 26 27 29 31 31 31 31 31 30 27 27 26 27 28 28 27 25 25 24 23
21 21 21 18 19 23 27 24 21 22 23 24 27 28 28 28 26 25 21 23 25 26 25 26 25 24 26 24 27 28 24 20 20 20 17 15 18 22 27 29 31 29 27 26 26 26 26 26 26 25 24 22 21 19
19 21 23 22 19 14 18 19 18 17 21 22 23 25 25 25 24 20 21 22 21 19 19 20 21 20 24 23 23 24 20 20 19 21 20 18 16 17 17 18 21 25 27 27 25 25 24 23 21 21 21 19 15 12

GFSWCAN_sfc_dewp_006.txt.gz
Dewpoint
50 50 50 50 50 50 50 50 50 50 50 50 50 51 50 50 51 52 52 55 50 42 45 47 46 42 43 40 34 38 38 36 35 33 31 29 31 29 29 30 27 25 24 27 27 26 25 35 35 31 33 36 37 37
51 50 49 49 49 50 50 50 50 50 50 50 50 50 50 50 50 51 49 54 54 47 44 51 51 51 48 44 43 40 38 38 38 34 33 29 32 33 27 29 33 30 30 27 28 28 33 35 35 37 39 36 37 40
49 50 50 49 49 49 50 50 50 50 50 50 50 50 50 50 50 51 50 52 49 40 45 45 45 49 50 50 49 40 37 44 42 41 36 35 33 35 33 33 33 34 35 32 32 32 33 35 36 37 37 39 43 44
48 48 49 49 49 48 48 48 49 49 49 49 49 49 49 50 50 50 49 51 49 42 34 41 46 46 49 49 49 48 46 47 46 45 36 34 34 40 35 37 36 37 39 36 35 36 36 36 36 39 41 43 40 40
47 47 47 48 48 49 48 48 48 48 48 49 49 49 49 50 50 51 50 52 52 48 37 39 44 46 47 48 47 48 48 46 39 37 34 35 36 36 35 35 35 38 36 35 34 35 36 36 40 40 39 39 38 37
46 46 46 47 47 47 48 48 48 48 48 48 49 49 49 49 50 50 45 48 51 53 41 35 44 42 44 45 45 45 47 46 45 40 35 38 41 39 34 34 36 38 39 39 38 39 39 40 40 41 39 39 38 36
46 46 46 46 46 46 46 46 47 48 48 48 49 49 49 49 50 47 44 47 51 51 37 36 36 38 40 41 43 43 44 44 44 42 37 38 39 42 33 36 37 37 38 38 39 40 39 39 37 38 34 32 32 31
45 46 46 45 45 46 46 46 47 47 48 48 48 49 49 49 48 45 47 48 51 45 39 35 35 36 41 36 34 39 36 38 41 40 37 36 37 35 34 37 38 38 39 39 39 39 38 38 34 30 30 30 31 32
45 46 45 45 45 45 46 46 47 48 48 48 48 48 47 45 41 43 47 46 46 44 36 33 33 33 41 38 36 34 35 33 37 33 35 37 33 34 36 37 38 38 35 35 35 34 33 33 31 32 31 30 32 32
45 45 45 45 45 45 46 46 46 47 48 47 44 41 35 39 47 46 42 38 36 35 36 33 35 34 39 34 33 33 33 32 30 33 36 33 34 35 35 36 37 35 35 35 31 31 32 28 27 28 29 32 31 31
45 45 44 44 45 45 46 46 45 44 44 43 37 35 42 47 43 37 33 33 33 31 32 33 34 34 38 33 32 33 32 32 27 24 31 23 27 31 31 33 34 35 36 34 30 27 25 27 27 30 30 30 29 29
45 45 45 45 45 45 46 45 44 43 43 42 41 43 42 40 34 32 31 31 31 28 32 32 34 36 35 39 33 32 28 29 24 26 26 24 25 30 30 30 31 29 29 28 28 28 28 29 30 30 30 30 28 27
45 45 45 45 45 45 45 42 43 43 44 42 37 35 35 33 30 27 25 28 28 32 34 33 33 34 34 34 32 28 26 24 23 25 23 22 29 30 30 31 31 30 28 29 30 30 30 29 29 28 29 28 24 27
44 45 45 45 44 44 41 42 42 41 39 31 29 27 27 23 25 26 28 29 33 33 33 33 32 30 30 22 28 24 23 21 21 21 16 23 27 30 29 30 29 28 27 27 29 29 28 26 27 28 32 32 31 31
45 45 45 44 43 42 41 41 40 39 33 28 26 20 23 28 29 31 32 33 33 34 33 32 30 30 23 19 18 20 16 20 22 16 19 24 27 28 27 29 28 26 26 26 29 27 26 25 25 27 29 32 28 30
44 42 42 43 43 42 41 40 40 37 29 26 26 20 25 28 28 30 32 32 34 32 28 27 22 18 18 16 14 13 13 13 15 17 23 25 27 27 27 28 29 28 28 29 30 29 29 26 27 28 31 32 29 32
40 39 43 43 42 41 39 37 34 30 25 20 18 29 28 27 22 30 28 32 34 31 19 19 16 17 19 10 11 20 14 17 20 23 26 27 26 27 28 28 26 27 28 28 28 28 27 27 27 30 29 29 26 30
39 42 42 42 40 38 36 34 29 25 22 22 19 19 20 20 30 29 31 32 33 30 21 18 22 13 10 8 11 16 18 20 24 24 25 26 27 27 27 27 28 28 28 28 27 27 27 25 26 28 28 27 28 29
40 40 41 41 38 32 28 29 29 20 20 20 21 20 21 20 21 22 23 31 32 32 24 17 9 10 12 15 11 13 13 17 23 26 26 26 27 27 27 28 28 29 28 28 28 28 28 28 29 30 31 27 30 30
41 40 40 40 39 30 26 23 29 23 21 23 20 20 21 20 20 20 29 27 30 29 27 25 18 18 18 21 23 22 24 25 23 23 25 26 27 28 28 29 28 28 28 28 28 25 26 28 28 30 30 31 31 29
38 40 40 38 35 31 25 22 21 23 24 22 23 23 19 16 19 23 28 25 28 26 24 24 22 24 25 25 25 26 26 26 25 25 26 26 28 26 27 28 28 28 27 28 27 29 27 27 30 31 31 32 32 32
37 39 35 36 29 26 22 24 23 23 21 19 19 20 15 13 12 20 21 28 27 23 23 23 23 23 23 24 24 26 27 27 28 28 26 26 26 26 27 27 24 28 30 31 31 32 32 33 33 33 33 32 32 30
37 34 31 31 22 19 16 25 19 22 16 17 16 14 11 10 16 23 14 22 23 26 26 25 25 26 26 27 27 28 28 28 27 26 25 25 25 22 23 25 21 26 29 31 32 32 32 33 33 33 32 31 30 27
36 30 26 25 19 10 16 22 21 18 12 14 12 8 12 13 17 12 12 13 22 25 25 26 26 26 26 26 26 26 27 27 26 25 23 22 21 23 24 29 29 31 32 32 32 32 32 32 30 29 30 30 29 27
21 25 25 21 24 22 21 9 10 10 9 7 5 5 11 13 9 4 9 17 16 20 22 24 24 26 25 25 23 25 25 27 25 24 22 22 18 21 27 29 29 29 31 32 31 32 32 31 29 29 26 25 27 28
15 20 22 20 16 14 14 6 6 10 3 5 7 12 6 6 5 9 15 15 13 16 15 19 20 20 23 27 27 25 25 23 24 21 22 22 23 27 28 27 27 28 30 32 31 31 30 30 29 24 20 26 25 27
13 16 22 23 22 19 10 7 11 7 4 7 7 6 7 11 8 14 19 20 21 21 23 23 25 25 25 27 27 26 23 24 25 25 25 29 30 29 29 28 27 28 32 32 32 32 30 30 29 28 27 29 29 29
17 13 18 18 18 17 9 3 5 9 10 15 10 5 9 10 12 18 22 26 24 25 25 25 27 28 28 26 23 23 21 20 20 22 21 22 23 24 26 30 32 31 30 32 32 32 31 31 31 31 30 30 29 29
22 18 20 17 15 16 14 14 13 17 20 16 10 7 10 18 18 18 22 24 27 25 27 28 27 27 31 29 29 29 29 25 24 22 25 25 26 23 18 23 28 28 30 30 31 31 31 31 31 31 31 30 30 28
18 22 19 8 12 13 16 18 14 14 18 23 22 21 21 21 24 27 26 26 22 27 28 26 26 30 31 29 28 23 23 29 30 29 24 22 21 21 28 30 29 29 30 30 31 29 25 24 28 30 29 27 27 25
14 10 9 6 8 14 19 15 13 14 11 18 23 22 23 25 19 21 18 22 27 29 29 29 29 28 27 26 25 25 24 21 21 19 17 16 18 22 24 27 29 30 29 16 16 17 20 22 23 26 25 24 24 23
7 11 13 11 18 18 20 20 19 18 17 12 22 14 18 15 21 18 19 18 20 19 19 19 19 19 21 19 21 21 19 17 15 14 14 13 13 14 16 17 20 23 22 15 14 17 19 21 22 22 21 21 21 19
7 4 3 4 7 5 11 10 9 9 5 14 18 19 20 18 21 16 17 18 15 14 14 15 16 19 19 22 22 19 18 18 18 20 19 17 14 14 13 14 15 18 19 18 18 17 15 14 12 11 10 10 9 7

GFSWCAN_sfc_dewp_009.txt.gz
Dewpoint
50 50 50 50 50 50 50 50 50 50 50 50 50 51 51 51 51 51 50 52 48 40 43 46 45 41 41 38 34 37 37 35 35 32 26 28 19 27 28 29 27 25 25 23 27 26 21 33 34 30 34 35 36 37
50 50 49 49 49 49 50 50 50 50 50 50 50 50 50 50 50 51 49 53 52 46 44 50 50 49 45 43 41 39 38 36 37 34 33 26 28 31 30 29 32 30 30 27 27 28 32 32 35 36 37 37 37 38
50 50 49 49 49 49 49 49 49 49 49 49 50 50 50 50 50 51 50 50 48 40 44 44 45 46 51 48 47 40 35 41 39 39 34 34 34 34 32 33 34 36 36 31 31 32 33 36 37 37 38 38 43 40
48 49 49 49 49 49 49 49 49 49 49 49 49 49 49 50 50 50 49 49 47 41 34 40 45 46 48 50 49 47 45 45 44 39 34 34 34 39 34 37 35 37 39 35 35 37 37 37 38 39 42 41 38 38
47 47 48 48 48 49 48 48 48 48 49 49 49 49 49 50 50 50 51 52 52 47 37 39 43 45 46 48 47 47 46 45 39 37 34 35 35 36 35 34 34 39 36 35 35 37 37 36 42 41 39 38 38 37
46 47 47 47 47 48 48 48 48 48 48 48 48 49 49 50 50 50 46 50 52 53 40 35 43 41 43 44 45 44 45 46 43 40 35 38 41 38 33 34 36 37 39 40 39 39 41 43 38 37 37 37 38 39
46 46 46 46 46 47 47 48 48 48 48 48 48 49 49 49 51 48 45 46 50 51 37 35 36 37 39 41 41 42 43 42 43 40 37 38 39 41 33 35 37 38 41 39 40 42 40 38 36 36 35 34 34 32
46 46 45 46 46 46 46 46 47 48 48 48 48 48 48 49 48 45 47 48 50 46 39 35 34 36 40 35 34 39 36 37 39 40 36 35 36 36 34 37 37 38 38 38 39 39 38 36 35 33 30 32 32 32
45 45 45 45 45 46 46 46 47 47 48 48 48 48 47 45 42 43 47 47 46 44 36 33 33 33 39 37 35 33 35 33 36 33 34 36 34 34 37 37 37 37 37 35 34 34 34 32 32 30 28 29 30 31
45 45 45 45 45 46 46 46 47 47 48 47 44 41 36 39 47 46 43 39 38 36 36 33 35 34 40 34 33 34 33 32 31 33 36 32 33 35 33 32 34 35 35 33 29 30 27 24 24 25 27 30 31 30
45 45 45 45 45 46 45 45 47 47 45 41 37 35 42 46 42 36 33 34 34 32 33 34 34 34 37 34 33 33 32 32 27 23 30 27 27 29 31 31 31 31 28 27 27 26 26 26 26 27 28 30 29 28
45 45 45 45 45 46 46 44 43 43 42 41 41 43 41 39 35 33 32 31 31 30 32 32 34 36 34 38 33 32 29 29 23 27 27 22 25 29 29 28 29 29 29 28 28 28 29 29 30 29 29 29 28 27
45 45 45 45 45 46 45 43 44 44 43 40 37 35 35 33 30 29 26 28 28 31 33 33 32 33 34 35 31 28 25 22 25 23 21 23 28 30 30 30 30 31 29 28 28 30 31 31 30 27 27 30 31 30
45 45 45 45 45 43 43 43 42 41 37 29 27 29 28 27 29 27 26 27 31 33 33 33 32 30 31 24 28 24 21 22 22 20 16 22 27 27 25 27 28 28 26 25 26 27 27 27 27 25 23 28 28 29
45 45 45 44 44 42 42 41 41 38 32 28 22 17 25 26 30 32 33 33 33 34 33 32 31 29 26 20 24 22 19 18 20 15 18 23 26 26 26 27 28 26 25 25 27 27 26 25 25 26 27 25 27 31
45 44 42 43 43 42 41 40 38 34 27 25 24 18 28 28 28 30 32 32 33 33 31 29 18 15 16 15 14 19 14 12 15 16 21 26 26 26 26 27 27 27 27 27 27 27 27 25 25 26 26 25 28 29
41 40 43 43 42 41 40 36 33 30 22 17 17 29 18 25 19 30 29 32 33 31 26 19 16 14 17 9 12 19 14 16 17 21 24 25 26 26 27 27 26 26 27 27 27 27 27 27 24 22 24 27 26 26
38 43 43 42 39 37 36 32 27 23 21 20 19 16 27 18 30 30 27 24 32 30 23 19 20 11 8 8 10 15 18 19 22 22 24 26 27 27 27 27 27 28 28 28 26 26 27 25 25 27 27 28 25 24
41 41 42 40 37 32 28 29 28 21 19 17 19 18 18 17 20 21 18 23 32 31 29 24 8 10 12 14 11 10 9 14 22 23 24 25 26 26 27 27 28 28 28 27 27 28 29 28 28 29 29 30 29 30
42 41 41 40 36 28 24 23 28 23 19 22 19 19 19 19 19 21 29 25 28 29 28 25 18 17 17 20 21 20 23 23 22 22 23 24 26 27 27 28 28 28 28 27 27 23 28 29 28 28 30 31 31 31
39 40 39 36 33 28 25 22 21 22 23 22 22 21 17 18 22 21 20 29 27 27 25 24 19 22 25 25 25 25 25 25 24 24 24 25 27 27 27 27 27 26 24 24 26 27 30 30 31 32 33 33 33 33
38 39 35 34 28 22 23 24 22 21 19 17 17 18 10 9 16 23 19 27 24 24 24 22 23 23 23 24 24 25 25 25 26 27 25 26 25 25 24 23 21 20 27 28 28 29 31 31 32 32 33 33 32 30
36 34 31 29 20 14 14 23 16 19 14 12 14 12 9 8 15 22 18 23 22 25 26 25 25 26 25 25 25 26 27 27 27 27 26 26 25 23 20 21 17 20 26 28 29 30 32 32 32 31 32 32 30 27
34 27 22 21 13 10 13 23 18 15 10 13 10 7 10 10 14 10 12 12 23 24 25 26 26 25 25 25 26 26 27 27 27 25 23 21 22 23 22 23 22 23 28 29 29 30 32 32 32 28 27 28 27 27
19 22 16 20 23 21 16 12 9 13 13 5 5 4 9 10 9 3 9 15 13 16 20 21 22 25 23 22 22 24 24 26 25 23 24 20 17 16 20 22 23 25 25 28 27 30 31 32 32 30 28 23 24 24
10 17 21 20 20 11 10 9 15 10 -0 2 5 9 1 2 3 6 13 14 11 14 14 13 14 17 21 25 24 23 25 24 23 21 23 23 22 20 22 27 26 23 21 27 31 30 29 29 31 30 29 27 24 27
10 18 23 22 20 17 8 3 8 4 1 6 4 2 3 4 4 12 18 18 20 20 21 24 25 25 25 25 25 25 25 22 26 25 23 23 25 27 28 28 25 23 28 30 29 28 28 29 29 30 29 30 28 29
16 15 18 17 14 12 6 0 3 7 9 14 7 6 8 8 11 17 21 22 21 23 25 25 25 26 26 25 23 21 25 23 17 20 21 23 23 23 18 28 28 26 26 27 29 30 29 30 30 29 30 30 30 30
23 18 14 9 10 12 14 13 11 15 18 15 9 5 9 16 16 16 20 21 21 22 20 24 23 17 21 30 30 30 29 28 25 20 15 16 23 25 21 23 28 30 29 28 28 30 30 29 28 28 28 29 30 31
17 20 21 18 17 17 17 17 12 12 15 21 19 20 19 18 17 18 18 19 19 16 18 23 27 28 30 30 28 27 27 25 27 27 22 16 16 16 21 27 28 29 28 28 27 23 20 16 18 21 24 25 26 25
11 8 7 3 6 10 14 10 4 5 7 14 16 19 21 20 14 12 14 14 19 21 21 20 23 21 21 21 19 18 18 17 17 17 14 12 11 12 17 18 19 21 26 21 23 15 9 11 13 15 17 19 20 21
14 10 10 6 9 13 6 11 9 10 15 5 20 8 7 11 11 9 14 13 13 13 13 14 14 16 19 20 18 17 18 18 18 17 16 15 14 13 13 14 15 16 17 19 19 17 15 13 11 10 13 16 13 11
-0 -5 -7 -2 3 4 4 5 3 4 -0 7 15 12 9 14 12 12 14 14 14 13 13 14 15 16 17 18 18 17 18 19 19 19 18 16 13 11 8 7 6 8 10 12 11 11 8 4 3 3 4 5 4 3

GFSWCAN_sfc_dewp_012.txt.gz
Dewpoint
50 50 49 49 49 50 50 50 50 50 50 50 50 51 51 50 51 52 50 51 47 39 41 44 43 40 40 37 33 37 36 34 35 32 27 28 18 27 27 28 26 24 21 21 25 26 22 31 33 29 32 35 35 36
49 50 49 49 49 49 49 50 50 50 50 50 50 50 51 50 50 50 49 51 50 44 41 47 48 47 43 41 40 37 37 35 36 33 32 26 25 28 28 26 31 27 29 29 30 28 32 32 35 35 36 36 36 37
48 49 49 49 49 49 49 49 49 49 49 49 50 50 50 50 50 50 49 49 46 40 43 44 43 46 50 48 45 39 34 39 37 38 33 30 31 30 31 31 28 34 36 32 32 33 35 38 38 38 39 40 40 39
47 48 49 48 48 48 49 49 49 49 49 49 49 50 50 50 50 50 48 48 46 41 34 40 44 44 47 49 47 46 44 44 41 38 33 33 34 38 34 36 35 37 36 35 34 37 38 37 38 41 41 40 39 39
47 47 47 48 48 48 48 48 48 49 49 49 50 49 50 50 50 50 49 50 50 46 37 38 43 44 45 46 47 46 45 43 40 37 34 35 34 36 34 35 34 39 37 35 34 36 38 40 42 42 39 38 39 38
46 46 46 47 48 48 48 48 48 48 48 49 49 49 50 50 50 51 47 48 50 50 40 36 41 39 42 43 43 43 45 43 41 39 35 38 41 38 33 33 37 38 39 39 38 41 42 41 39 39 38 38 37 34
46 46 46 46 46 47 47 47 47 48 48 48 48 49 49 49 51 48 44 45 50 51 37 35 35 36 38 41 41 40 41 41 43 39 36 37 37 41 33 34 36 37 38 40 41 41 39 39 36 36 35 33 32 32
45 45 46 46 46 46 47 47 47 48 48 48 48 48 48 49 48 46 46 48 50 45 40 35 35 35 38 34 34 38 35 37 40 40 36 35 36 35 34 36 37 37 38 38 38 38 37 36 33 30 28 28 28 28
45 45 45 45 46 46 46 46 47 48 48 48 48 48 47 45 42 44 47 47 47 43 37 33 34 33 40 37 35 33 34 33 36 33 34 36 33 33 34 31 32 34 35 34 35 34 29 25 25 25 24 24 27 28
45 45 44 44 45 46 46 46 47 48 48 47 45 42 35 39 47 46 43 39 38 36 36 33 36 34 40 33 33 34 33 32 30 33 34 32 32 32 31 32 34 32 31 30 29 25 26 26 25 25 24 25 28 29
45 45 44 45 46 45 46 46 47 47 46 42 38 35 42 46 42 38 34 34 34 33 33 34 34 34 37 34 33 33 32 32 26 23 29 28 27 28 28 27 27 27 27 26 26 26 26 27 27 28 27 27 28 28
45 45 44 45 45 45 44 46 45 43 42 41 42 43 41 39 35 34 32 32 32 29 32 32 33 36 34 38 33 32 30 29 23 26 26 22 25 28 30 30 30 29 29 27 28 28 28 29 30 30 29 28 27 26
45 45 45 45 45 46 44 44 44 44 42 39 37 35 35 33 31 30 26 29 29 31 33 33 32 33 34 35 32 30 24 21 25 20 19 22 27 28 26 26 26 27 27 26 26 25 26 26 27 25 26 27 25 26
44 44 45 45 45 43 44 44 43 41 36 31 29 30 27 28 29 28 28 25 28 32 33 33 32 30 30 29 28 22 23 23 21 14 14 20 26 24 24 26 26 26 24 23 25 26 25 25 25 25 24 24 23 24
45 45 45 45 43 43 42 41 40 38 34 29 25 22 27 26 29 32 32 33 33 33 33 32 31 28 26 22 25 23 21 17 19 14 15 22 25 25 25 26 25 24 23 23 27 25 23 23 23 25 26 24 24 23
45 44 43 44 42 42 41 39 37 33 29 26 24 19 26 28 28 30 32 32 33 33 31 28 20 19 19 19 19 19 17 14 13 13 20 24 25 26 26 25 26 26 26 26 27 26 26 23 23 26 26 25 25 25
43 40 44 43 42 40 39 35 33 28 23 19 19 27 22 23 21 24 31 32 33 31 26 24 17 15 19 13 15 17 10 13 16 19 22 25 25 25 26 26 25 25 26 26 26 26 26 26 23 22 24 27 26 26
40 43 43 42 39 38 35 32 27 24 21 22 20 18 28 25 22 23 29 23 28 27 25 20 20 10 6 7 8 13 17 17 20 20 23 25 25 26 26 26 26 27 27 27 25 25 25 22 25 28 27 27 27 28
42 42 41 39 37 33 32 30 28 20 19 20 20 21 19 20 25 25 21 26 28 29 27 21 9 11 13 14 12 8 8 14 21 23 24 25 25 25 26 26 27 27 27 26 26 27 28 27 28 28 28 28 29 30
42 41 40 38 36 29 25 23 28 24 20 22 20 20 19 19 23 26 28 27 26 30 28 22 18 17 16 19 20 19 21 22 21 21 22 23 25 25 26 27 27 28 27 26 25 23 25 27 27 26 28 30 30 31
39 39 38 35 32 28 25 20 20 21 23 21 21 20 17 23 24 24 25 26 28 26 20 23 19 23 24 24 24 24 25 25 24 23 22 23 25 26 26 27 27 24 21 20 24 27 27 28 28 31 31 30 30 32
38 39 34 32 25 21 23 23 21 21 18 16 16 17 8 8 17 22 19 25 24 22 24 22 23 24 24 24 24 25 25 25 26 25 23 24 24 23 23 24 18 21 20 21 23 24 28 28 29 31 31 30 31 32
36 34 28 22 17 14 18 22 16 19 13 12 12 11 8 6 12 24 23 24 22 25 25 25 25 25 25 25 25 26 26 25 25 25 25 25 26 24 20 21 18 20 21 24 22 25 28 28 29 32 31 31 30 29
34 25 20 15 11 13 15 17 18 14 8 9 7 7 9 9 14 19 15 11 21 22 24 25 25 24 24 24 24 25 26 26 25 24 24 21 22 23 21 22 19 19 22 25 25 28 27 28 32 31 32 30 29 26
20 23 14 17 19 12 10 19 12 15 16 2 7 5 7 8 8 8 9 14 10 12 17 19 20 23 21 18 19 22 23 25 23 22 24 21 19 15 20 20 20 21 19 14 18 21 28 29 28 28 29 29 28 27
8 21 18 11 19 9 7 13 16 14 -2 0 10 5 -3 0 3 7 12 13 9 12 10 11 12 15 19 23 23 21 23 22 21 20 25 23 23 24 19 17 21 23 18 26 28 28 28 27 26 26 26 27 28 28
11 19 24 22 18 14 5 1 6 2 -1 5 3 1 1 3 3 11 16 17 19 19 20 20 21 23 23 24 24 23 22 19 22 24 21 21 23 25 27 27 25 24 25 28 26 27 27 27 27 27 27 27 27 29
14 12 15 20 19 11 3 -1 1 5 7 12 6 5 7 7 10 16 20 21 20 20 21 22 22 23 22 23 23 20 23 25 25 22 25 26 26 23 20 22 24 25 23 27 28 28 28 28 27 26 26 25 26 27
22 19 15 15 7 5 9 11 9 13 18 15 11 5 9 15 16 16 18 18 16 19 18 17 20 15 19 20 20 27 30 29 27 25 23 23 15 21 22 21 24 26 28 28 28 28 24 19 18 16 17 23 25 26
17 15 10 5 9 12 15 19 13 10 13 16 15 17 17 15 12 15 15 17 20 21 24 26 25 25 25 24 26 25 21 22 23 23 21 15 14 16 16 19 19 22 23 26 26 25 22 10 13 13 14 15 16 16
7 7 10 5 7 9 11 3 -1 1 1 8 10 16 19 14 15 9 12 11 13 14 13 12 13 17 15 15 16 17 18 17 17 15 14 13 14 15 15 14 15 14 17 17 20 14 9 5 3 2 8 16 11 10
16 8 8 5 8 6 2 9 -1 1 4 -0 15 5 4 7 9 10 12 12 10 8 10 10 10 11 15 17 18 18 18 17 15 14 12 11 12 11 9 9 5 4 2 3 3 3 1 -1 -2 -1 0 3 4 3
-6 -5 0 -4 3 2 -2 -0 -2 -0 -4 -8 -5 -2 -3 10 4 8 13 13 12 10 8 10 13 14 16 15 15 15 15 14 14 14 13 13 7 4 -2 -5 -6 -6 -4 -4 -4 -6 -4 -6 -5 -5 -4 -3 -2 -2

GFSWCAN_sfc_dewp_015.txt.gz
Dewpoint
50 50 50 49 49 49 49 49 50 50 50 50 50 51 50 50 50 52 52 51 47 40 43 45 43 40 40 39 37 39 39 38 37 34 33 33 30 31 30 29 27 28 29 28 29 27 25 31 32 33 36 38 37 38
49 49 49 49 49 49 49 49 50 50 50 50 50 51 51 50 50 50 50 51 50 46 42 49 51 49 45 42 41 39 39 37 39 35 33 31 32 30 31 31 31 31 32 31 31 32 34 33 36 37 38 38 39 40
47 48 49 49 49 49 49 49 49 49 49 50 50 50 51 50 50 51 50 50 47 40 43 45 45 47 50 48 47 42 38 41 39 40 36 34 34 33 32 31 34 34 34 34 34 36 34 37 39 41 41 41 40 40
47 47 48 49 48 48 48 49 49 49 49 49 49 50 50 50 50 50 50 48 47 42 34 40 45 45 48 50 49 47 44 43 41 40 35 34 34 38 34 36 36 37 37 36 35 37 38 38 40 42 41 41 40 39
47 47 47 47 48 48 48 48 48 48 49 49 49 50 50 50 50 50 50 51 49 46 37 38 44 45 45 47 48 47 45 44 41 38 34 35 37 37 38 36 35 39 38 36 35 38 39 41 42 42 39 38 37 38
46 46 46 46 47 47 48 48 48 48 49 49 49 49 50 50 50 50 45 48 50 49 39 35 41 41 41 44 46 46 46 44 43 40 36 39 42 40 33 33 38 39 39 40 39 41 43 41 40 38 36 35 31 29
45 46 46 46 46 47 47 47 48 48 48 48 49 49 49 49 52 48 43 45 50 50 38 35 37 38 40 41 41 41 43 43 44 40 36 38 39 41 33 34 37 38 37 39 40 41 39 38 34 33 26 25 28 27
45 45 46 46 46 46 47 47 47 48 48 48 48 49 49 49 48 47 47 49 50 46 41 35 35 35 39 36 36 39 38 40 40 40 36 36 37 35 34 37 32 33 36 36 35 35 32 28 26 25 24 25 25 23
45 45 45 45 46 46 46 47 47 48 48 48 48 49 48 46 43 44 47 47 47 45 38 33 34 34 40 37 36 36 37 34 37 34 35 36 34 34 32 32 34 34 35 34 28 27 26 26 25 26 26 26 24 24
45 45 44 44 45 46 46 47 47 47 48 48 46 43 36 39 47 47 44 40 38 37 37 34 36 35 39 35 34 35 34 33 32 33 34 33 33 30 30 32 31 30 30 29 29 27 27 27 27 27 27 27 27 27
45 45 44 45 45 45 46 47 47 47 46 43 38 36 42 46 42 38 34 34 34 32 34 34 34 35 38 34 33 34 33 33 29 28 31 30 29 28 28 27 28 29 28 28 28 27 27 27 27 28 29 30 30 29
45 45 45 45 45 45 46 46 45 44 43 43 42 43 42 39 35 33 32 32 32 31 33 33 34 36 34 38 34 32 31 30 25 28 28 25 27 28 30 29 29 30 28 26 25 26 26 26 28 28 28 28 28 29
45 45 45 45 46 45 45 45 45 45 43 41 38 35 36 33 31 30 28 29 30 32 33 33 32 34 34 35 32 31 26 25 27 25 23 24 28 27 25 25 26 26 26 26 26 26 27 27 27 26 27 28 27 28
45 44 45 45 44 45 45 45 44 40 38 33 33 30 30 29 30 29 27 29 30 33 33 33 32 31 31 30 29 25 25 25 23 20 20 24 26 23 24 26 25 23 24 24 25 27 27 26 26 26 25 26 25 26
45 44 45 45 43 42 43 42 41 40 34 28 28 26 27 27 30 32 33 33 33 34 33 32 30 29 27 26 26 24 23 20 20 20 22 25 26 26 26 26 24 25 24 24 27 27 26 25 25 26 27 28 28 26
45 44 43 43 43 42 42 41 39 35 31 28 25 24 27 27 28 30 32 32 34 33 31 29 24 25 24 23 22 20 19 16 20 22 24 25 26 26 26 26 26 26 26 27 27 27 27 26 25 28 28 27 26 26
44 40 44 43 41 40 39 35 34 28 26 21 22 26 24 24 27 28 33 33 34 33 27 24 21 22 22 19 20 21 18 20 22 23 23 25 25 25 25 26 25 26 26 27 27 28 28 28 26 25 26 29 29 29
40 43 43 42 40 39 36 32 28 25 22 24 21 25 28 28 24 24 28 31 31 27 25 23 22 16 16 15 16 19 21 22 22 23 24 25 26 26 26 26 26 27 27 28 27 27 27 26 27 28 29 29 29 28
43 43 41 40 38 34 31 30 28 20 20 21 23 25 25 27 27 27 28 30 31 29 26 22 17 18 18 19 20 18 18 20 23 23 25 26 26 25 25 26 26 27 27 27 28 28 28 28 28 27 28 29 28 29
41 40 39 38 36 29 25 23 27 23 21 23 23 24 22 23 26 27 29 31 32 32 29 26 22 22 21 21 22 23 23 22 22 23 24 25 26 25 25 27 27 28 28 28 27 24 27 27 28 28 28 29 30 30
38 39 37 36 30 28 26 22 21 22 23 22 22 22 20 25 25 26 27 30 29 27 25 26 24 25 25 25 25 25 25 25 24 25 25 24 25 26 26 27 28 28 27 27 26 27 24 27 29 29 29 30 31 31
38 38 34 31 25 23 23 24 22 22 19 18 17 18 11 11 21 23 25 25 24 24 25 24 25 25 25 25 25 27 27 27 27 27 25 25 25 26 26 27 25 26 26 26 27 27 28 28 29 29 29 30 31 31
35 32 27 23 20 19 19 22 16 18 13 13 13 12 10 9 14 23 22 23 23 25 26 25 25 26 25 26 25 26 26 26 26 26 26 26 27 27 27 27 26 25 25 27 27 27 27 29 29 30 31 30 31 31
30 25 21 16 13 14 14 11 20 15 10 10 9 13 11 12 19 20 18 16 21 22 24 25 26 25 25 24 25 25 26 27 26 26 26 25 25 26 27 26 26 25 26 28 27 27 27 28 27 30 28 27 28 28
21 22 15 14 15 14 6 18 19 20 8 6 14 11 8 12 10 15 17 18 16 17 19 17 19 24 23 22 21 23 23 25 25 24 26 24 25 25 25 25 24 25 27 27 27 25 26 30 29 28 27 27 27 27
15 21 10 6 9 8 7 14 16 16 9 12 13 5 0 4 6 10 13 16 14 16 15 16 18 18 20 23 23 23 24 25 24 24 26 26 25 25 26 25 24 26 27 26 27 28 27 26 27 27 27 28 27 26
15 18 22 20 16 12 7 4 8 3 9 8 5 1 3 5 4 13 17 18 20 21 21 22 22 22 23 24 24 25 24 23 24 26 26 25 26 26 27 28 27 28 29 29 28 27 27 27 27 27 26 27 26 26
11 11 14 20 17 11 3 -1 1 7 7 11 7 7 7 8 11 17 20 21 21 22 23 22 21 23 24 25 25 25 25 23 29 28 26 27 25 24 24 25 25 25 26 26 28 29 28 28 26 24 25 24 24 25
18 13 14 18 16 16 7 10 10 13 16 13 10 6 11 16 15 14 16 16 18 22 22 22 24 23 25 23 24 25 25 27 27 26 25 24 25 23 19 21 22 23 25 25 27 29 28 26 23 22 22 21 20 20
17 16 8 8 6 9 13 16 12 9 13 15 15 16 17 12 12 12 11 11 11 11 14 15 16 17 17 15 16 17 19 19 18 20 21 19 16 16 16 16 16 17 18 20 22 22 18 17 16 15 15 15 13 12
10 16 10 7 6 9 8 -2 -4 -0 -0 6 2 13 13 9 11 9 10 10 10 10 9 7 8 12 12 12 13 15 17 17 17 17 16 15 14 13 12 11 11 10 11 14 17 14 13 10 8 8 8 7 5 5
17 13 5 11 8 3 1 8 3 1 -4 -1 3 -3 -1 7 1 6 10 8 6 5 6 7 7 9 14 16 15 15 14 14 12 13 13 11 11 9 7 5 3 4 7 7 6 5 4 3 3 3 3 2 2 1
5 9 9 1 3 4 -2 -4 -2 1 -3 -5 -6 5 -6 -3 -5 3 5 9 8 7 5 6 9 14 13 12 11 11 11 10 10 9 8 8 4 3 2 0 -0 0 2 2 1 1 0 -0 -1 -1 -2 -3 -3 -3

GFSWCAN_sfc_dewp_018.txt.gz
Dewpoint
49 50 50 49 49 49 49 49 50 50 51 51 51 51 50 50 50 54 55 55 51 47 45 46 43 42 41 42 45 44 44 44 44 38 37 38 36 36 32 29 31 31 36 33 33 30 29 32 32 35 38 39 39 40
48 48 49 49 49 49 49 49 49 50 50 50 50 51 50 49 50 52 53 55 53 51 48 51 52 48 47 43 43 46 42 42 45 43 40 39 34 35 39 34 32 32 34 32 32 33 35 36 36 38 40 41 41 41
47 48 49 49 48 48 49 49 49 49 50 50 50 51 51 50 50 52 54 55 54 51 49 49 48 49 52 49 48 46 47 44 44 46 45 41 35 40 34 37 39 34 35 36 36 34 34 37 39 41 42 41 41 39
47 47 47 48 48 48 48 48 49 49 49 49 49 50 50 50 50 52 55 53 52 47 37 46 46 46 48 51 50 49 47 46 46 47 40 36 38 40 42 39 38 36 37 36 36 37 37 37 42 42 41 41 36 33
46 46 46 47 48 48 48 48 48 48 48 49 49 50 51 50 51 55 56 55 54 52 43 46 47 45 45 48 50 49 48 48 47 43 38 40 44 40 40 39 39 37 36 37 37 39 40 41 41 42 38 32 31 28
46 46 46 46 46 47 48 48 48 48 48 49 49 50 51 50 51 54 51 54 55 55 47 41 46 44 44 47 48 48 48 49 48 45 41 44 43 43 34 37 38 38 39 40 39 40 41 41 39 34 32 27 22 23
45 46 46 46 46 46 47 47 48 48 48 48 49 49 50 49 56 51 47 50 52 54 44 41 43 43 42 44 44 46 47 48 48 46 41 43 44 42 34 36 38 38 35 36 39 40 38 37 34 27 24 24 26 22
45 45 45 46 46 46 46 47 47 48 48 48 48 48 48 48 49 51 52 50 52 50 46 38 39 41 42 42 40 41 43 42 42 42 38 40 40 38 35 37 34 34 35 32 31 32 31 27 26 25 23 22 20 18
45 45 45 45 46 46 46 47 47 48 48 48 48 48 49 48 45 47 47 48 51 49 43 36 36 35 42 39 40 40 41 37 39 36 36 39 37 35 37 33 34 35 36 29 28 27 24 23 22 19 17 17 20 23
45 45 44 44 45 45 46 46 47 47 48 48 47 44 36 41 47 48 46 43 40 38 39 35 41 39 41 38 38 39 38 37 35 36 36 34 35 30 33 34 36 33 30 28 27 25 23 21 18 19 20 23 25 24
45 45 44 45 45 46 46 46 47 47 47 43 39 36 44 46 43 39 35 36 36 33 35 35 35 36 40 38 36 37 34 36 32 33 34 33 32 32 30 28 29 29 28 26 22 21 19 21 21 24 26 27 28 29
45 45 44 45 45 46 46 46 46 45 44 43 43 44 42 39 34 33 33 33 33 34 34 34 35 37 35 39 34 33 34 34 28 32 31 29 31 28 28 29 29 28 23 19 19 20 22 24 27 28 28 28 30 31
43 45 44 45 46 46 45 46 46 45 45 44 38 33 34 33 32 32 30 32 33 36 35 34 33 35 36 37 34 35 32 31 32 28 27 29 29 29 29 23 24 23 24 26 21 22 25 27 29 30 31 32 33 32
41 44 45 45 45 44 45 45 44 43 41 35 33 31 32 30 33 33 34 36 36 37 36 36 34 36 34 33 34 31 30 30 26 24 27 29 30 27 22 25 22 19 32 27 25 27 32 33 32 33 32 32 31 31
41 44 45 45 44 45 45 44 42 41 37 33 34 30 31 31 34 34 35 36 35 37 37 35 34 34 33 30 31 29 27 25 25 26 29 31 27 24 26 27 23 30 33 29 26 31 33 32 32 31 33 34 33 32
43 44 44 44 43 43 42 42 40 38 34 31 31 30 31 32 32 32 34 33 35 34 35 35 32 31 29 30 27 27 24 22 27 32 33 27 27 27 28 28 26 25 27 26 27 28 30 32 32 31 32 32 32 32
43 41 44 43 41 40 39 37 37 30 32 32 30 32 32 33 34 34 36 35 36 34 32 31 29 27 27 26 25 25 25 29 32 30 27 27 27 25 25 28 31 29 27 28 28 30 30 32 34 32 32 29 31 31
41 43 43 41 42 41 37 35 32 30 27 28 28 31 32 32 33 33 34 35 35 31 30 29 25 25 25 23 25 29 29 30 28 27 25 26 27 28 27 27 26 26 27 28 33 31 31 32 31 29 29 28 29 31
41 43 41 42 41 37 34 34 31 26 27 28 28 30 30 31 30 31 33 34 34 32 31 30 28 24 24 25 30 32 32 31 28 25 25 26 28 28 27 27 27 27 27 29 30 29 30 30 31 30 30 29 29 30
43 43 40 38 38 34 32 31 31 26 26 27 29 29 28 29 30 31 33 34 34 34 32 29 28 29 29 28 27 29 27 27 27 27 25 25 27 27 27 27 27 27 28 28 30 30 30 31 31 31 31 29 30 30
38 39 38 38 34 31 29 28 28 28 27 27 27 28 27 29 29 30 30 32 32 30 27 29 34 32 30 28 27 27 27 27 26 28 28 26 27 28 27 27 28 28 30 31 33 33 32 33 33 32 34 32 32 33
37 38 33 35 31 31 28 28 27 27 27 28 28 28 29 28 27 27 28 28 26 27 28 29 27 27 27 27 26 28 28 27 27 28 29 29 28 29 29 30 31 33 33 35 33 35 35 33 34 34 33 33 32 32
36 35 32 31 28 28 26 28 26 24 24 25 26 25 26 27 25 25 24 24 26 26 27 27 27 28 27 27 27 27 27 27 27 28 30 30 30 33 33 32 34 33 33 33 32 34 34 32 32 33 33 32 31 30
32 29 27 24 25 24 26 25 25 25 26 24 23 18 20 25 23 23 22 25 26 27 26 26 27 26 26 26 25 24 25 28 28 30 31 31 30 30 31 32 33 34 32 31 34 34 34 32 31 32 32 31 30 30
28 24 24 21 23 21 21 22 21 22 20 19 19 21 22 21 22 21 21 24 28 30 29 26 24 24 25 27 27 27 28 27 28 28 32 32 33 33 32 32 33 32 34 32 32 32 32 32 32 31 30 30 28 28
20 23 20 20 21 19 19 18 19 19 19 19 20 19 21 23 20 19 19 28 31 30 33 34 33 27 24 24 25 25 27 30 30 29 30 31 31 32 31 30 29 30 34 32 31 30 28 28 28 27 27 27 25 26
19 19 24 22 21 19 19 19 19 20 18 19 21 19 21 17 17 20 23 24 25 27 27 28 27 26 26 26 27 29 30 31 31 30 31 30 30 30 30 29 29 30 31 32 31 30 29 28 28 28 27 26 26 26
22 23 19 23 22 21 19 19 19 19 21 20 21 18 18 18 18 23 21 20 21 23 24 25 26 23 24 26 26 28 28 28 28 31 31 30 30 30 28 29 29 27 30 31 30 31 30 29 27 27 26 26 25 25
24 24 24 20 20 21 22 22 22 22 21 22 22 21 22 20 16 16 16 17 19 19 18 17 19 20 21 21 23 24 24 23 21 21 22 25 30 24 23 24 25 26 26 27 25 27 26 25 25 25 25 24 24 23
22 25 22 20 19 20 26 26 28 27 24 26 25 23 20 15 14 15 15 15 14 14 15 15 15 16 15 16 17 19 21 20 19 17 17 17 17 19 19 19 20 21 21 23 24 24 22 22 21 21 20 18 18 17
22 24 22 22 22 27 26 20 21 21 23 26 25 26 23 14 13 13 12 13 13 13 12 12 13 15 14 14 14 14 14 16 14 15 15 17 16 16 15 15 16 16 19 20 20 20 18 19 18 16 14 12 10 11
22 22 22 20 23 22 20 22 22 23 23 21 21 19 16 15 9 9 10 11 10 9 8 9 9 11 14 14 14 14 12 12 12 11 10 11 11 11 12 12 12 14 15 16 16 15 13 13 12 11 10 8 6 5
16 18 17 18 20 20 18 15 14 15 18 17 16 15 11 11 4 8 10 11 10 9 8 9 10 12 13 13 12 12 11 12 10 10 8 7 6 5 7 9 9 11 11 12 11 11 9 8 7 6 4 3 1 0

GFSWCAN_sfc_dewp_021.txt.gz
Dewpoint
50 50 50 49 49 49 49 50 50 51 51 51 51 51 50 50 50 54 55 56 52 49 46 45 43 44 43 41 46 45 44 45 47 40 40 41 39 37 33 28 33 33 35 34 35 32 29 32 32 35 39 41 41 41
49 49 49 49 49 49 49 49 50 50 51 51 51 51 50 50 50 52 51 55 55 50 49 52 51 51 49 46 42 47 42 44 44 44 43 43 37 38 39 33 28 30 34 34 33 34 34 34 35 39 41 41 41 40
48 48 49 49 48 48 49 49 49 50 50 50 51 52 51 51 50 52 53 55 53 55 49 48 47 50 51 52 51 46 49 42 44 48 48 44 36 42 35 37 41 33 32 37 37 33 33 37 40 42 41 40 40 39
47 47 48 49 48 48 48 48 48 49 50 50 49 50 51 50 51 53 53 55 52 49 40 48 47 48 49 51 51 51 48 50 48 48 42 38 39 41 43 39 38 37 36 37 38 35 37 41 42 42 41 40 38 32
46 46 47 47 48 48 48 48 48 49 49 49 49 50 51 51 52 55 56 55 55 51 46 49 48 46 47 48 49 49 48 48 49 45 38 40 46 45 44 42 40 36 36 38 38 40 41 42 42 42 40 34 31 28
46 46 46 46 47 48 48 48 48 48 48 49 50 50 51 51 51 52 49 54 55 54 50 45 48 45 45 47 48 48 48 50 48 47 42 45 43 43 38 38 37 35 36 37 39 40 41 42 42 38 34 29 25 26
45 46 46 46 46 46 47 47 47 48 48 48 49 49 50 50 55 48 46 51 51 55 50 44 45 45 44 46 47 47 49 49 47 48 46 46 45 44 38 37 36 38 39 37 39 41 39 38 36 32 27 26 27 21
45 45 45 45 46 46 46 47 47 48 48 48 48 48 49 48 50 52 53 52 52 50 50 42 41 44 44 45 43 44 46 46 46 45 41 43 44 43 38 39 39 37 36 34 36 37 36 32 29 26 24 20 17 18
45 45 44 45 45 45 46 47 47 48 48 48 48 48 50 50 50 52 48 50 54 51 45 38 37 36 43 41 42 43 44 39 42 37 38 41 37 36 38 39 37 36 34 34 31 29 27 25 22 19 17 19 19 19
45 45 44 45 45 46 46 46 47 47 48 48 48 46 38 43 47 48 50 48 48 49 46 38 44 39 41 40 39 39 40 39 36 38 37 34 34 37 35 36 36 37 34 32 31 28 26 22 19 19 19 20 22 22
45 45 44 45 45 46 46 46 47 47 47 45 39 37 44 47 45 41 36 38 37 35 37 39 41 39 43 39 37 40 35 36 34 35 36 35 33 35 35 35 33 32 30 28 25 21 18 19 19 22 25 27 28 27
45 45 45 45 46 46 46 46 46 46 45 44 43 44 43 39 36 36 34 34 34 35 35 34 36 39 38 41 36 34 34 36 32 34 33 29 32 34 33 31 31 29 27 21 19 18 19 19 23 27 28 28 28 31
43 44 45 45 46 46 46 45 45 45 46 42 36 34 34 33 32 32 31 33 34 34 34 34 33 35 35 37 33 34 33 34 34 30 28 30 32 29 30 30 28 26 24 23 17 18 21 24 28 30 32 32 35 32
41 43 44 45 45 45 45 44 43 43 42 35 33 31 32 31 33 34 36 37 36 36 36 35 34 35 35 34 35 33 34 32 29 27 30 32 30 30 31 27 25 24 32 26 23 25 28 34 34 36 34 34 33 33
42 43 45 45 45 45 44 43 42 41 39 35 35 31 32 34 34 34 35 36 36 39 39 38 38 37 35 32 35 32 29 28 27 28 32 32 33 31 28 28 23 25 35 31 25 30 35 35 35 33 34 35 34 34
43 44 44 44 44 43 42 42 41 41 36 34 34 32 34 34 33 33 33 34 37 37 38 37 34 33 32 33 30 30 29 25 30 34 35 31 29 28 28 26 25 24 25 24 25 26 30 35 34 32 34 34 34 33
43 43 44 42 41 41 42 40 38 33 34 34 33 36 35 35 34 35 36 36 37 36 34 35 31 30 31 30 28 29 30 33 35 34 30 28 27 26 25 27 33 30 28 27 27 28 29 32 35 34 33 31 32 34
40 43 44 42 43 41 38 37 36 32 30 31 34 34 34 35 35 35 36 37 36 34 33 32 28 28 27 26 27 32 32 33 31 29 25 25 27 27 27 27 27 28 26 27 31 31 31 34 33 31 28 28 30 32
41 44 43 42 42 38 35 36 35 30 31 32 31 32 33 33 33 33 35 36 36 35 34 31 31 26 27 28 32 36 36 33 28 26 25 28 28 28 27 27 28 27 27 28 28 29 28 29 30 30 31 31 32 32
42 43 41 40 41 37 34 35 34 29 29 30 32 32 32 32 32 33 34 36 34 35 32 30 28 30 30 29 28 30 28 29 28 28 26 25 25 26 27 28 28 28 28 28 29 30 30 31 31 30 32 32 33 32
39 39 38 39 36 34 32 31 30 30 28 29 30 31 30 31 31 32 31 34 34 31 26 28 36 33 32 31 30 30 30 28 25 27 28 26 27 27 27 28 29 29 30 31 36 34 35 35 34 34 36 35 35 35
37 38 35 37 35 34 30 31 30 30 30 30 30 30 30 30 29 29 29 30 28 28 28 29 28 28 28 29 28 28 29 28 29 28 29 29 29 29 28 28 30 34 34 37 35 37 37 35 37 38 35 33 34 35
36 35 33 34 32 33 28 32 30 26 28 28 29 29 29 29 28 27 27 26 28 28 28 27 27 29 29 27 27 27 27 28 27 26 28 30 29 33 33 32 35 36 36 34 34 36 37 35 35 34 34 34 33 33
35 32 30 29 31 26 31 28 27 26 28 27 26 24 24 27 25 26 25 27 27 27 27 26 27 25 25 26 24 21 23 24 26 29 31 31 30 30 31 31 34 37 35 35 36 35 35 33 33 33 33 32 32 31
30 26 29 24 27 26 25 26 25 26 23 24 24 24 25 26 25 23 24 25 32 34 33 30 27 25 24 26 25 25 28 28 28 26 30 32 34 35 34 31 32 33 36 34 32 32 33 33 32 32 32 32 29 29
23 25 24 24 24 23 23 22 23 23 23 23 24 25 27 26 23 21 19 30 32 29 30 31 31 29 26 26 27 27 29 31 31 30 30 32 33 34 32 30 32 34 36 35 33 31 31 30 29 30 30 30 29 29
21 23 25 24 23 23 24 25 24 25 22 21 24 24 24 19 19 21 26 24 25 26 26 26 26 26 25 25 25 25 26 26 28 28 28 29 30 31 32 30 29 31 31 33 32 32 31 30 28 29 29 30 30 30
25 25 22 26 25 26 23 23 23 22 25 23 25 22 20 19 21 23 21 21 22 23 23 23 23 22 22 22 22 23 24 24 25 27 28 30 32 26 26 27 28 27 29 30 30 30 30 30 28 28 27 27 27 28
26 26 26 21 23 26 26 25 25 24 24 26 26 24 26 20 20 19 18 19 21 21 20 19 20 21 21 21 22 23 21 20 17 16 16 19 19 20 22 22 23 23 24 25 26 28 27 25 25 24 24 25 23 24
24 27 25 22 21 23 30 31 31 32 28 31 29 24 20 18 17 18 18 18 18 18 18 19 19 19 17 17 17 19 21 19 17 15 13 14 16 18 19 18 18 19 20 22 23 24 25 25 23 23 20 19 19 18
26 27 26 26 26 30 28 29 29 29 30 30 30 30 22 17 16 15 15 16 16 16 16 15 15 16 15 14 14 14 13 17 15 14 13 14 15 16 15 15 16 17 17 19 20 21 19 20 20 17 16 14 12 13
27 24 24 21 26 28 29 28 29 29 29 28 27 24 20 19 14 13 14 15 14 13 11 12 12 12 14 16 16 16 14 14 14 13 12 11 12 12 12 12 13 14 14 15 18 18 16 16 15 14 13 10 8 8
23 23 22 23 24 23 26 23 20 19 23 22 21 19 17 17 10 12 14 14 13 11 11 12 12 13 14 13 14 14 13 12 12 12 11 9 8 9 9 10 9 8 10 13 14 14 12 11 10 9 7 5 3 2

GFSWCAN_sfc_dewp_027.txt.gz
Dewpoint
49 49 49 49 49 49 49 50 51 51 52 51 51 50 50 50 51 55 54 56 54 47 47 50 50 46 45 46 39 43 39 40 37 36 33 32 30 31 30 33 31 27 27 27 29 27 21 36 36 28 35 41 40 38
49 49 48 48 49 49 50 50 51 51 51 52 51 51 50 50 51 52 52 55 57 52 50 52 50 51 51 51 46 45 40 45 44 37 34 35 33 35 32 26 34 29 33 30 30 28 35 38 38 42 42 40 39 38
49 48 48 48 48 49 49 50 50 50 51 53 50 49 50 50 51 53 55 56 55 47 48 48 48 50 50 51 52 44 44 46 46 48 39 39 33 35 27 31 29 32 37 32 33 35 37 41 41 41 40 39 39 40
48 48 48 48 48 48 49 49 49 50 49 49 49 50 50 50 51 54 55 56 52 47 37 45 48 48 49 50 50 50 49 50 50 45 38 37 32 41 33 33 33 35 37 34 33 36 41 42 41 41 41 41 40 39
47 48 48 48 48 49 48 48 48 48 48 49 49 50 50 50 50 55 56 56 55 51 39 40 48 47 48 49 49 49 50 48 45 38 35 34 34 36 33 34 33 39 35 33 30 38 38 41 42 41 40 39 34 28
46 46 47 48 48 48 48 48 47 47 48 49 50 50 51 50 50 55 50 54 53 55 44 36 46 45 46 47 48 48 49 48 47 40 36 41 45 38 35 34 38 38 38 38 40 43 42 42 42 41 38 32 29 27
46 46 46 46 47 48 48 47 46 47 47 48 49 50 50 49 52 49 46 50 49 52 40 36 39 44 44 46 47 49 47 46 45 42 37 36 38 41 34 34 37 39 36 41 42 41 39 41 38 36 30 28 26 22
45 46 46 46 46 46 47 48 48 46 47 48 49 49 49 48 49 50 50 50 50 48 44 36 37 37 44 37 39 44 39 43 44 41 39 36 38 36 35 39 39 38 38 40 41 41 40 39 37 30 24 22 22 22
45 45 45 46 46 46 46 46 48 48 48 48 48 49 51 49 46 49 48 49 53 48 38 34 32 29 42 39 38 38 43 35 41 35 36 39 34 34 38 39 39 40 37 37 38 38 39 38 25 22 21 23 23 24
45 45 45 45 45 46 46 46 47 48 48 48 48 46 38 42 46 49 48 41 42 42 41 34 37 35 40 36 35 35 34 34 33 35 38 33 34 38 40 40 38 39 37 36 34 32 30 26 24 23 23 27 27 26
45 45 45 45 46 46 46 46 47 48 47 45 39 36 43 46 45 40 36 37 37 35 37 38 37 37 40 34 34 36 33 34 31 31 34 32 32 35 37 38 37 36 34 30 27 25 23 24 24 26 28 28 26 27
45 46 45 45 45 45 45 45 45 45 43 43 43 44 41 38 36 35 34 34 35 34 34 34 35 38 36 41 35 34 33 33 29 36 32 29 31 37 35 34 34 32 28 24 24 24 26 28 29 28 27 27 28 29
45 45 45 45 44 44 45 45 44 44 44 41 38 35 36 32 31 32 30 31 32 32 34 33 33 34 35 36 33 33 32 31 34 31 27 28 35 36 33 27 23 23 25 25 23 26 26 26 28 27 27 28 26 29
43 45 45 45 44 43 43 43 43 43 41 35 33 30 32 30 31 31 32 32 33 33 33 33 32 33 32 32 32 30 31 32 29 24 22 33 34 33 33 28 25 22 24 22 23 25 25 27 28 27 27 27 24 28
42 44 45 45 44 43 42 42 43 43 39 34 34 29 30 31 32 32 33 33 33 34 34 33 33 33 32 31 31 30 28 27 28 28 31 34 32 30 29 28 27 26 26 26 27 26 24 26 27 28 29 29 30 27
42 44 43 44 43 43 42 42 41 40 33 32 32 30 32 32 32 32 32 32 34 34 34 34 31 31 29 30 28 28 27 26 29 32 33 31 30 30 29 28 26 26 26 27 28 28 27 25 24 28 28 28 28 28
41 43 44 43 41 41 41 39 37 32 30 32 31 34 33 33 32 32 34 33 36 34 31 32 29 27 30 27 27 30 28 30 32 31 32 30 29 28 27 27 28 29 29 29 28 28 28 28 27 27 28 29 30 30
41 43 42 42 43 41 38 39 32 31 28 32 31 32 32 33 32 32 33 34 34 31 31 30 30 27 25 23 27 31 30 31 32 31 30 28 29 29 29 28 29 28 27 28 28 28 28 26 28 29 30 31 30 29
41 44 42 43 41 37 34 34 35 28 30 29 31 32 32 31 33 33 33 34 34 33 30 28 26 24 26 28 30 31 31 30 30 29 28 28 28 28 28 29 28 28 28 29 29 29 29 29 29 29 29 29 29 29
41 41 41 41 41 35 31 30 34 29 28 30 32 31 31 30 31 32 33 33 33 32 25 23 24 27 28 29 30 30 31 30 30 28 28 28 28 28 28 29 29 30 29 29 29 27 28 29 29 29 29 27 24 26
40 39 39 38 35 36 33 32 31 31 29 30 31 30 28 30 29 30 31 32 32 26 26 27 27 30 31 30 30 30 30 29 28 28 27 27 29 29 29 29 29 29 28 27 25 27 25 28 30 30 24 30 33 32
37 38 34 35 32 32 30 32 32 28 31 28 31 30 27 27 27 28 30 27 25 26 28 28 28 28 29 30 29 30 29 27 28 28 26 26 26 27 27 28 26 25 26 27 29 30 30 30 31 26 31 32 33 32
37 36 33 32 29 30 26 31 27 29 22 28 29 23 27 27 28 28 25 26 27 29 28 29 29 29 29 28 26 27 28 27 27 28 29 28 28 27 28 28 28 27 28 29 28 30 30 30 27 24 24 31 32 29
36 32 27 30 31 26 31 28 30 29 28 25 26 19 25 26 23 21 18 21 27 28 29 30 29 27 28 28 28 27 27 28 27 26 27 26 26 26 26 25 26 26 28 28 28 28 28 29 29 28 31 30 24 24
29 27 28 25 28 25 24 25 25 21 18 23 19 16 19 21 16 15 16 26 26 26 27 27 27 27 26 24 25 25 24 23 22 22 23 22 21 21 22 24 24 25 23 23 23 24 23 26 28 29 27 25 25 25
24 27 25 24 21 25 25 22 19 17 18 18 21 23 20 17 13 12 23 24 25 24 25 25 24 23 22 23 21 21 23 23 20 19 20 22 22 18 17 16 15 15 18 20 20 19 19 20 22 24 26 26 26 27
23 24 27 27 29 27 24 25 26 23 21 17 18 20 18 9 7 20 23 23 24 25 26 25 22 21 21 20 21 23 20 18 16 18 20 24 20 18 16 14 13 16 17 18 16 16 17 19 19 20 21 24 26 25
25 24 19 25 27 27 24 23 23 22 22 25 23 17 12 12 17 21 22 23 23 25 24 22 21 22 20 22 23 15 12 11 12 12 15 20 16 11 11 12 13 14 11 13 14 15 16 17 18 19 20 21 23 22
26 28 25 21 21 23 21 20 21 25 28 25 19 17 20 18 19 21 21 22 23 21 17 17 13 14 13 14 15 16 7 4 4 0 -4 -3 3 5 10 10 9 8 9 10 11 13 14 15 18 18 19 20 19 14
24 28 21 18 16 19 26 28 28 28 26 26 23 20 18 17 16 18 19 16 14 13 16 15 15 9 3 2 3 4 12 7 1 1 -2 -4 5 9 7 7 7 6 7 8 6 5 10 12 16 17 18 13 14 10
26 27 23 23 24 26 27 27 27 27 28 27 27 21 15 12 12 13 13 16 15 5 6 5 5 3 1 1 3 1 0 -0 2 8 5 1 3 1 -2 4 4 5 7 4 1 2 3 9 12 12 10 8 7 5
25 23 23 20 23 26 26 24 24 24 22 22 21 19 13 9 4 7 4 10 10 3 3 1 -1 1 0 5 1 -1 10 2 -2 -2 3 5 2 1 1 0 2 3 5 -7 -0 2 4 7 7 6 5 3 1 0
21 20 18 14 15 15 19 14 12 11 12 12 15 14 9 6 1 5 9 7 3 -1 -2 -2 -2 -1 6 1 -3 -0 -2 -4 -1 9 6 9 4 0 -3 1 5 5 -1 -4 -1 3 3 2 0 -0 -1 -3 -4 -5

GFSWCAN_sfc_dewp_030.txt.gz
Dewpoint
49 49 49 49 49 48 49 50 51 51 50 50 50 50 50 50 51 51 52 54 50 44 48 50 49 45 45 42 37 41 37 38 37 29 26 32 24 29 29 32 30 27 26 24 23 16 20 33 34 28 32 39 39 39
49 48 48 48 48 48 49 50 50 50 51 50 48 48 50 50 50 53 49 55 54 49 48 50 50 50 50 48 45 42 36 41 40 35 34 36 27 33 28 26 34 26 28 28 29 29 32 36 35 39 41 39 38 38
48 48 48 48 49 49 50 50 50 50 52 48 48 49 49 50 51 53 53 53 51 44 46 47 47 49 49 50 50 42 42 46 45 41 38 32 25 33 29 31 31 32 37 32 32 33 36 39 41 40 40 39 40 40
48 48 48 48 48 49 49 49 49 49 49 49 49 49 49 50 51 53 53 53 48 44 36 43 48 47 49 50 50 48 48 49 45 41 36 36 29 36 30 30 30 31 36 34 32 38 41 40 40 40 40 40 41 40
48 48 48 48 48 48 49 49 47 48 49 49 49 50 50 50 51 54 53 52 52 42 38 38 47 47 47 48 49 49 48 46 41 37 34 33 32 35 34 32 32 38 35 32 31 36 37 38 41 41 41 40 39 29
47 47 47 47 47 48 48 47 47 48 48 49 50 50 49 49 52 52 47 52 51 50 40 33 44 44 45 48 49 49 49 47 44 39 35 39 43 35 34 33 37 40 40 38 37 42 41 41 41 41 40 36 30 26
46 47 47 47 47 47 47 46 47 47 48 49 50 48 48 49 49 47 43 49 49 48 38 36 36 42 44 46 45 45 45 44 44 38 36 35 35 39 35 33 37 38 39 42 43 41 40 40 40 40 31 29 27 23
46 46 46 46 47 47 47 45 47 47 48 49 49 49 48 49 50 48 49 48 48 45 39 33 31 35 42 36 36 42 37 40 42 40 39 36 36 35 34 38 39 39 39 42 41 40 40 40 36 29 23 24 24 23
45 45 45 46 46 46 47 47 48 48 49 49 49 48 48 47 44 47 47 47 50 44 35 32 29 29 40 38 36 36 40 33 38 34 35 36 34 32 37 38 39 40 39 40 40 39 39 36 27 23 24 25 24 24
45 45 45 46 46 46 46 47 48 48 49 47 47 43 39 42 46 47 45 39 38 40 37 33 36 33 39 34 34 35 34 33 33 34 38 33 34 37 38 40 39 39 39 39 38 32 27 26 25 26 26 26 26 25
45 45 45 45 46 46 46 47 47 47 47 45 40 37 42 45 43 39 36 33 36 35 36 36 35 36 38 34 34 33 32 33 30 29 32 31 31 33 37 37 35 32 31 31 30 28 26 27 28 28 28 27 26 26
45 45 44 45 45 45 46 45 45 44 44 43 42 43 41 37 35 35 34 34 34 34 34 34 35 38 36 38 34 34 33 32 28 34 32 29 31 34 31 32 30 31 32 32 32 32 30 28 28 26 25 24 25 27
45 45 45 44 43 44 45 45 45 45 43 42 38 35 36 33 33 33 32 31 32 32 34 33 33 33 35 36 33 33 32 31 33 31 29 29 36 29 26 24 24 28 31 30 26 26 26 25 26 24 25 25 25 28
45 45 45 44 43 43 43 44 44 43 41 35 34 30 32 29 30 30 32 32 33 33 33 33 32 32 32 32 32 31 31 31 29 20 20 33 37 36 27 25 22 22 25 25 25 25 25 27 27 26 24 24 22 26
44 44 44 44 43 43 42 43 43 41 36 33 30 28 28 31 32 32 33 33 33 34 33 33 32 33 32 31 31 29 27 25 27 27 31 32 31 30 29 29 26 26 25 25 25 25 23 24 25 26 27 27 28 25
42 43 43 42 42 43 42 41 39 36 31 32 31 29 31 31 32 32 32 32 34 33 34 33 31 30 26 29 27 27 26 24 27 31 32 32 32 34 34 30 26 26 26 27 27 27 27 24 22 27 28 27 25 25
42 39 43 42 42 42 42 37 33 32 30 30 31 33 32 32 32 32 33 33 36 33 31 31 25 24 29 24 23 29 26 29 31 32 33 31 29 28 27 29 29 28 28 27 27 27 27 28 25 26 26 28 28 29
40 41 43 43 42 39 37 35 30 28 28 31 30 31 32 32 32 32 33 33 31 29 31 27 28 25 24 23 26 31 30 30 31 31 30 29 29 29 29 27 29 27 27 27 27 28 28 25 27 28 29 29 29 28
42 42 43 42 41 34 31 31 33 27 30 31 31 31 31 31 32 32 32 33 29 29 28 26 22 22 22 25 26 31 29 29 29 28 28 28 28 28 28 29 28 27 27 28 28 28 29 29 29 29 29 27 27 27
41 40 41 40 40 31 28 27 31 27 26 28 31 30 30 29 31 32 32 32 30 27 22 21 22 24 25 26 27 27 27 27 27 25 26 27 28 28 27 28 29 29 29 29 28 25 28 28 29 29 28 28 29 31
38 39 38 36 35 35 31 30 29 30 30 30 30 29 28 30 29 30 31 31 27 23 24 27 25 28 29 28 28 27 28 27 26 25 24 24 26 26 27 28 29 28 26 26 24 26 23 25 29 30 27 29 31 31
36 38 34 36 32 31 31 30 29 27 30 30 30 29 27 26 26 28 29 27 23 25 27 25 27 27 29 29 29 28 28 27 28 27 26 25 26 27 27 27 26 23 23 22 26 27 27 28 27 28 29 29 30 30
36 36 33 32 23 27 24 32 25 26 19 27 29 26 26 26 27 28 25 25 25 29 28 28 28 29 28 28 26 25 27 27 25 25 25 25 25 22 21 22 22 21 21 22 25 25 24 22 23 23 26 28 30 30
36 32 29 27 27 16 26 23 29 25 20 24 25 22 25 25 25 22 17 22 29 27 27 27 27 28 27 25 23 22 23 23 23 23 22 21 20 21 22 22 22 19 18 19 19 17 18 17 18 20 21 23 25 27
26 19 23 20 20 17 18 18 23 20 16 24 23 18 17 19 13 9 12 25 25 24 24 23 24 25 24 23 22 22 22 20 19 19 20 21 16 15 16 16 16 17 15 13 13 12 12 13 14 16 18 18 20 22
19 17 22 22 17 20 19 15 17 22 21 22 18 19 16 16 14 9 20 23 23 23 23 23 21 20 20 20 19 18 17 19 18 16 19 18 15 9 6 7 9 9 11 10 11 9 9 10 11 11 12 15 18 21
16 15 25 28 27 27 22 21 25 23 20 15 20 16 17 13 5 19 22 22 23 24 23 23 22 20 19 20 20 16 14 14 12 13 17 14 12 11 8 7 6 8 9 7 8 8 7 7 8 9 10 13 15 17
22 22 17 22 26 27 23 23 22 22 23 26 23 18 18 12 14 18 21 23 23 22 21 21 20 19 19 18 14 9 7 6 7 10 14 10 8 5 2 0 2 10 2 2 5 7 4 4 5 8 10 13 15 14
22 27 26 22 23 23 24 24 23 26 27 25 18 16 16 16 15 18 19 20 20 19 15 13 10 10 10 9 7 4 -2 -2 -1 -7 -11 -12 -8 -4 0 -4 -5 0 1 2 6 6 5 5 7 8 13 14 9 8
23 25 21 18 19 20 24 26 26 27 26 22 20 18 16 13 15 16 14 13 12 11 11 11 4 2 -8 -4 -7 -0 3 -2 -6 -5 -9 -10 -2 1 -3 -3 -0 0 1 2 2 0 3 2 2 8 8 8 7 4
25 25 22 22 22 24 25 26 27 27 27 26 21 12 9 8 8 9 11 9 7 4 3 1 1 -9 -6 -5 -8 -11 -6 -2 -6 -3 -6 -3 -5 -9 -8 -5 -5 -4 -2 1 -2 -5 -2 -1 2 3 1 -0 -1 -1
23 22 21 19 18 25 25 23 23 22 22 22 17 13 2 0 -5 2 6 3 0 -3 -9 -11 -9 -6 -4 -3 -6 -9 -7 -9 -10 -9 -4 -2 -4 -8 -8 -6 -7 -5 -4 -11 -11 -10 -2 -3 -5 -5 -5 -6 -5 -6
16 6 9 1 8 12 10 4 2 5 7 14 13 7 1 1 -3 1 4 -4 -3 -7 -9 -10 -11 -10 -4 -7 -9 -11 -9 -11 -10 0 1 5 -4 -5 -11 -14 -13 -18 -18 -16 -14 -11 -10 -13 -16 -11 -9 -9 -9 -9

GFSWCAN_sfc_dewp_033.txt.gz
Dewpoint
49 49 49 48 48 48 49 50 50 50 51 49 48 49 50 50 52 52 52 53 48 44 47 48 48 44 43 41 36 39 37 36 32 27 24 27 21 29 28 30 29 29 26 26 21 17 19 30 32 28 31 37 39 39
48 48 48 48 48 48 50 50 50 50 47 48 48 49 49 50 51 51 51 54 53 48 47 49 49 49 48 42 43 40 37 38 37 32 29 32 25 32 26 24 32 25 27 28 28 28 31 33 34 35 39 39 38 39
48 48 48 48 47 48 49 49 50 47 47 48 48 49 49 51 51 52 52 51 48 44 46 46 46 49 48 50 48 40 41 43 41 39 37 31 23 31 28 29 28 32 34 29 30 30 32 34 39 40 40 39 39 39
48 48 48 48 48 49 49 48 48 48 48 49 49 49 50 51 51 52 51 50 45 41 36 42 48 46 48 50 50 47 47 45 42 39 33 32 24 34 28 29 31 32 35 32 31 34 39 40 40 39 39 40 40 40
48 48 48 48 48 48 48 47 48 48 49 50 49 49 49 51 51 52 51 50 50 39 38 37 45 46 46 49 49 48 46 44 40 36 33 33 31 33 34 33 33 36 34 31 30 34 36 35 40 40 39 40 39 30
47 48 48 48 48 48 46 47 48 48 48 49 48 48 49 50 51 46 43 50 50 47 39 34 43 43 45 48 48 48 48 45 41 38 35 37 41 34 33 34 38 39 39 36 35 37 39 39 40 41 40 40 31 26
47 47 48 48 47 46 46 47 48 48 48 49 48 49 48 48 50 44 39 47 48 46 38 36 34 40 43 44 43 44 43 43 43 39 35 36 34 39 33 31 35 37 38 39 41 41 38 39 39 41 35 29 28 24
47 47 47 47 47 46 46 47 48 48 49 49 48 48 49 49 49 47 48 47 47 41 37 32 30 33 41 36 37 41 37 39 39 39 38 34 37 35 34 37 39 39 40 41 42 40 41 40 32 25 24 24 24 25
45 46 46 47 47 46 46 47 48 49 49 49 48 48 47 46 43 45 46 47 46 42 34 32 30 29 39 38 37 37 39 34 38 34 35 36 33 33 37 37 38 39 39 40 40 39 37 30 27 29 30 31 27 25
45 45 45 45 46 46 46 47 47 49 47 46 47 42 39 43 46 46 43 38 37 36 37 33 36 33 39 34 34 32 34 33 29 33 38 33 34 35 36 37 38 39 38 40 36 30 30 29 29 31 33 28 26 25
45 46 46 46 46 46 47 47 48 47 46 43 40 37 43 44 42 38 34 32 36 35 36 36 35 35 38 34 32 32 31 32 29 27 33 29 31 33 33 32 32 32 32 32 32 33 35 35 34 32 28 28 27 26
44 44 44 45 45 46 46 46 45 44 43 42 41 42 39 36 35 35 33 34 34 32 34 34 35 37 36 36 34 34 32 32 28 33 32 29 31 28 29 33 35 36 36 36 37 36 36 35 32 28 24 24 24 27
44 44 44 44 44 45 46 45 45 44 44 42 38 35 37 34 33 33 31 32 32 32 34 33 33 33 35 35 33 33 32 30 33 32 29 31 31 34 35 35 36 36 35 35 34 30 27 26 26 25 26 26 26 27
44 43 43 43 43 43 44 44 44 43 41 36 34 32 32 30 30 30 31 32 32 33 33 33 32 33 32 33 32 31 32 32 29 23 19 32 35 36 27 26 23 24 26 26 26 25 26 27 27 25 24 25 23 26
44 43 42 42 43 43 43 42 44 41 37 33 32 28 28 31 32 32 32 33 33 34 33 33 32 33 32 31 31 29 25 22 24 23 30 32 33 30 31 32 25 25 26 26 25 26 24 24 25 26 27 27 27 23
42 42 42 43 43 43 42 40 38 36 31 32 31 30 31 31 31 32 32 32 34 33 33 33 31 30 28 29 26 25 24 19 20 29 32 31 32 33 34 33 26 27 27 27 27 27 27 25 24 27 27 26 23 22
42 41 43 43 42 41 41 36 33 31 28 30 31 33 32 31 32 32 33 33 35 33 30 30 20 22 29 24 24 29 24 28 31 31 33 33 32 32 30 27 28 27 26 26 26 27 27 27 24 25 25 27 28 28
40 41 42 42 41 38 35 33 30 29 29 31 30 31 32 32 32 32 33 33 32 31 31 26 27 20 19 20 22 28 30 30 30 30 32 31 30 28 29 28 28 27 26 27 27 27 27 24 27 28 28 29 28 27
39 39 41 41 38 32 29 30 30 26 30 31 30 30 31 31 31 32 32 32 27 26 26 22 18 18 20 25 25 31 29 27 28 28 28 28 28 27 28 28 28 27 28 28 28 28 28 28 28 28 28 28 27 28
40 40 40 40 38 29 27 26 30 27 27 30 31 30 29 29 30 32 32 32 30 27 21 19 21 23 24 26 27 26 27 27 27 25 26 26 27 27 28 28 27 27 27 27 27 24 27 27 27 27 26 27 27 27
36 36 38 36 35 33 29 29 29 30 30 29 30 29 28 30 29 29 30 30 22 21 24 26 22 26 28 28 27 27 28 27 26 24 24 24 26 27 26 26 26 25 23 22 23 23 22 22 24 23 23 23 24 27
35 38 35 35 31 30 28 30 30 30 30 30 29 28 27 26 26 28 29 26 23 23 26 25 27 27 28 27 27 28 28 27 26 26 25 24 23 22 23 23 22 21 21 20 21 21 19 20 19 18 19 20 22 23
36 32 32 32 21 24 21 33 27 27 26 28 28 24 25 25 27 29 25 26 26 28 27 28 28 28 26 24 23 23 24 24 22 22 22 23 23 20 21 20 17 13 13 15 17 15 14 12 13 13 15 16 17 17
33 25 27 26 27 19 24 20 26 25 23 22 25 22 23 25 26 24 21 24 27 27 25 26 27 25 24 23 21 19 19 21 21 20 21 20 19 18 17 17 15 13 11 11 11 10 9 8 8 10 11 10 10 13
23 19 20 18 22 17 12 8 15 18 14 14 15 16 19 19 18 18 14 23 24 24 24 23 24 25 22 20 20 18 18 19 19 18 17 15 10 10 11 12 13 11 9 5 3 4 4 5 5 6 6 7 7 9
19 16 16 15 15 17 12 9 12 14 16 19 19 20 19 18 17 10 20 22 22 23 22 22 21 21 20 21 18 14 13 16 17 15 14 12 9 3 -1 0 2 3 7 -1 1 1 2 2 1 1 2 4 5 7
12 9 19 27 26 26 23 19 22 23 20 19 15 17 20 15 14 17 21 21 22 22 23 22 21 20 19 15 12 12 10 10 10 14 12 11 10 8 1 -6 -3 3 6 2 -4 -1 0 -1 -2 -1 -0 3 5 8
22 19 14 18 25 27 22 22 22 21 23 26 24 20 19 15 13 17 19 22 21 21 19 18 17 17 15 12 10 7 7 6 12 10 10 6 3 -2 -2 -4 -3 6 -3 -6 -8 -2 -4 -1 0 1 1 3 6 6
24 26 25 21 22 23 24 23 24 26 27 26 21 18 14 14 13 15 17 18 18 16 12 10 10 9 9 9 6 3 -3 -5 -5 -10 -14 -16 -14 -6 -2 -11 -12 -11 -11 -11 -1 4 3 4 4 4 6 8 5 1
22 25 20 18 19 18 22 23 23 25 24 21 18 15 13 11 12 14 13 12 10 7 4 4 0 1 -8 -9 -11 -6 -6 -11 -10 -9 -13 -14 -6 -3 -15 -14 -11 -11 -12 -14 -10 -6 -3 -8 -6 -10 -8 -8 -6 -6
21 23 21 21 20 22 24 26 26 26 26 21 17 11 8 7 8 9 9 5 6 3 0 -6 -7 -15 -11 -12 -14 -14 -11 -12 -15 -11 -9 -10 -11 -15 -15 -13 -14 -17 -16 -13 -16 -18 -18 -16 -18 -19 -16 -15 -14 -13
23 21 21 18 18 21 15 21 21 22 21 21 13 4 -1 -3 -8 0 3 -3 -4 -8 -13 -18 -13 -9 -10 -9 -12 -14 -8 -13 -14 -15 -13 -11 -11 -14 -17 -16 -20 -21 -22 -23 -23 -21 -21 -23 -24 -22 -23 -21 -19 -17
12 5 11 4 8 10 10 -1 -0 6 12 14 4 0 -4 -3 -4 1 2 -6 -6 -10 -12 -13 -15 -16 -13 -13 -13 -14 -13 -16 -16 -5 -5 -4 -9 -9 -17 -21 -23 -24 -23 -25 -26 -26 -22 -23 -24 -24 -24 -24 -23 -22

GFSWCAN_sfc_dewp_036.txt.gz
Dewpoint
49 49 48 48 47 48 49 50 50 48 48 48 48 49 50 51 51 54 53 52 47 44 46 47 47 42 41 40 36 39 37 36 31 27 24 25 21 28 28 28 30 29 28 28 22 14 18 28 32 27 31 33 37 37
48 48 47 47 48 49 49 49 48 48 48 48 48 49 50 51 51 53 53 53 51 47 46 48 48 48 47 41 42 39 37 37 36 30 26 27 26 31 26 23 31 25 27 26 27 27 29 30 32 35 35 35 37 38
47 47 47 48 48 49 49 47 47 48 48 48 48 50 50 51 50 53 52 48 47 43 45 46 45 48 48 48 46 39 39 41 39 37 32 29 23 29 25 28 28 32 31 28 28 27 31 33 34 39 39 38 38 39
47 47 47 48 49 48 47 47 47 48 48 48 49 50 50 50 51 51 50 48 44 42 36 41 47 45 47 50 49 46 44 42 40 37 32 30 24 32 27 28 28 31 32 30 30 32 34 37 39 37 39 39 39 40
47 48 48 48 48 47 47 47 48 48 48 48 49 50 50 50 51 51 50 50 48 38 38 36 44 45 47 49 47 46 44 42 39 36 34 32 29 32 34 32 32 34 32 30 28 31 32 32 37 39 39 40 39 33
48 48 48 48 47 47 47 47 47 48 48 47 48 49 49 49 48 43 42 48 49 45 40 34 41 42 44 46 46 46 46 43 40 37 34 36 39 34 33 34 36 36 37 34 32 37 37 38 39 40 39 39 31 28
47 48 48 47 46 47 47 47 48 48 48 48 48 49 49 49 50 42 38 47 47 45 38 35 34 39 41 43 41 42 42 41 41 38 34 36 35 37 33 31 34 37 38 38 39 39 37 37 38 40 34 28 26 25
47 48 47 46 46 46 47 47 48 49 48 48 48 48 48 48 48 46 47 46 46 39 36 32 31 33 40 37 37 41 37 38 39 39 37 34 37 34 33 36 38 39 40 40 40 39 39 34 26 25 25 28 32 33
47 46 46 46 46 46 47 47 48 48 47 48 47 47 47 46 44 45 46 46 44 40 33 27 29 28 39 37 36 37 38 34 38 34 36 36 33 33 35 34 36 37 37 38 38 31 28 29 32 34 35 35 34 31
46 46 46 45 46 46 47 47 48 47 46 46 46 42 37 43 45 45 42 37 37 36 38 32 35 33 38 34 34 33 34 32 27 30 37 33 33 34 32 32 32 33 36 39 31 30 32 34 35 35 35 34 32 29
46 46 46 46 46 46 47 47 46 46 46 43 40 37 43 44 42 36 32 32 35 29 36 35 35 34 38 34 32 31 31 32 29 27 32 30 30 32 33 34 35 36 36 35 35 36 35 35 34 33 32 30 27 26
45 45 46 46 46 46 46 45 45 44 42 42 42 41 39 37 35 33 32 33 32 28 34 34 34 37 35 35 34 34 31 31 27 32 32 28 28 32 36 36 37 37 37 37 37 36 36 36 35 30 24 23 24 27
44 44 44 45 45 45 45 45 44 44 43 40 36 33 34 32 33 31 31 32 32 33 34 33 33 33 35 35 33 33 31 30 33 31 29 30 30 36 37 36 35 34 34 34 33 32 29 26 26 25 26 26 26 27
43 43 44 44 44 45 45 45 44 43 41 35 33 33 32 31 31 31 32 32 32 32 33 33 32 33 32 33 32 32 31 31 29 25 21 32 34 31 25 26 25 25 25 25 24 25 26 27 27 26 25 24 23 25
43 43 43 43 43 43 43 44 43 41 37 33 33 28 28 30 31 32 32 33 32 34 33 33 33 34 32 31 31 29 24 19 21 19 29 31 32 31 32 31 25 25 23 25 25 25 23 23 24 25 25 26 26 21
42 42 41 43 43 42 41 39 38 37 33 32 30 29 31 31 31 32 32 32 34 33 33 33 31 28 28 26 23 21 21 15 21 29 29 32 32 34 34 34 27 27 27 27 27 26 26 23 22 26 26 25 20 19
41 40 42 42 42 41 39 35 35 30 29 30 31 33 32 32 32 32 33 33 35 33 30 30 22 22 27 21 21 25 20 26 31 32 33 33 33 34 34 29 28 27 26 27 27 27 28 28 24 25 26 28 28 28
38 38 41 42 39 36 34 32 29 29 30 31 30 30 31 32 32 32 32 33 32 32 30 26 28 19 17 17 18 24 26 27 29 29 31 32 30 28 28 28 28 27 27 28 27 28 27 26 27 27 27 26 26 25
38 39 40 40 37 31 29 30 30 27 30 30 30 30 30 31 31 32 32 32 28 26 26 22 17 18 19 22 20 27 30 24 26 27 27 27 28 28 28 28 28 28 27 27 27 26 26 27 25 23 22 21 22 22
38 39 38 39 36 29 26 26 29 27 28 30 30 29 29 29 30 32 32 32 30 26 20 19 19 21 22 24 26 27 26 26 26 24 24 26 27 26 26 25 25 26 24 23 23 20 21 21 21 20 19 19 19 20
35 36 36 34 32 30 29 27 28 30 30 29 30 29 28 29 29 29 30 30 23 19 22 23 19 24 27 27 26 26 27 27 25 23 23 25 25 24 24 23 22 21 19 18 17 16 14 16 17 16 14 16 16 17
34 36 28 31 28 24 30 32 30 30 30 28 28 29 26 26 26 27 29 25 23 23 26 25 27 27 27 26 26 26 26 26 25 23 22 21 20 21 19 17 15 13 14 13 14 12 11 13 12 11 9 10 12 12
35 31 29 25 20 20 24 31 25 27 26 26 27 24 25 25 27 28 25 27 27 28 27 28 27 26 25 23 22 22 23 21 20 21 21 21 20 19 17 14 12 8 7 9 10 10 9 5 7 5 6 6 7 6
31 29 26 25 24 22 24 17 25 21 20 23 24 22 22 24 25 23 22 24 27 26 26 27 25 24 23 20 17 17 19 20 19 17 18 18 15 14 15 13 10 9 7 6 5 1 2 -2 -1 2 1 -0 1 3
16 19 17 9 21 11 17 11 17 21 10 11 15 15 20 17 17 18 17 22 23 23 23 26 26 25 21 20 18 15 16 19 18 14 13 11 9 8 9 8 9 8 6 -3 -2 -5 -5 -5 -4 -4 -3 -4 -2 0
11 15 15 6 8 11 8 7 6 10 12 14 17 19 15 14 13 13 19 20 21 21 20 21 21 19 17 19 16 14 11 13 16 12 10 9 6 2 -3 -5 -4 -2 3 -8 -11 -11 -6 -4 -4 -6 -6 -4 -2 -1
10 9 18 26 22 21 16 14 16 17 17 20 19 18 20 17 13 15 20 20 20 20 21 20 22 19 15 12 10 9 10 11 11 11 10 9 7 5 -3 -9 -8 -1 3 -3 -13 -17 -12 -7 -6 -5 -4 -3 -3 0
16 14 11 12 18 21 18 16 16 18 17 25 23 19 18 15 12 16 18 20 18 18 16 15 14 12 10 8 7 5 7 10 9 7 5 4 3 -3 -6 -7 -7 3 -8 -15 -17 -14 -13 -8 -4 -3 -3 -1 -4 -8
17 20 20 14 16 21 20 20 22 24 25 25 21 16 12 12 12 13 16 17 17 14 11 10 8 8 7 6 3 1 -2 -7 -8 -10 -13 -16 -15 -8 -7 -15 -16 -15 -18 -16 -8 -1 -1 -4 -4 -9 -14 -15 -12 -14
16 21 16 12 16 17 19 22 19 22 21 19 17 14 11 10 11 13 13 11 8 4 0 0 0 -0 -9 -10 -12 -8 -12 -18 -14 -11 -15 -17 -11 -7 -16 -20 -18 -16 -21 -24 -21 -18 -9 -17 -15 -20 -19 -19 -21 -23
18 17 13 14 13 16 18 22 23 23 21 15 12 8 7 6 8 9 6 4 4 -0 -6 -11 -12 -20 -15 -16 -17 -17 -13 -15 -18 -14 -13 -16 -15 -18 -18 -19 -22 -25 -27 -27 -28 -28 -27 -27 -29 -29 -26 -23 -23 -24
21 19 13 13 15 15 12 15 13 19 18 17 7 -1 -2 -3 -9 -0 -0 -4 -8 -10 -15 -21 -15 -11 -15 -16 -19 -19 -13 -16 -16 -16 -17 -15 -15 -15 -19 -20 -26 -27 -26 -26 -28 -29 -28 -28 -29 -29 -29 -28 -27 -25
10 5 7 4 8 10 7 -3 -2 2 6 7 -2 -2 -7 -3 -7 -2 -0 -8 -9 -12 -14 -16 -16 -19 -17 -16 -16 -18 -17 -19 -19 -8 -6 -6 -11 -12 -20 -25 -27 -27 -25 -27 -29 -31 -27 -26 -27 -28 -29 -30 -29 -29

GFSWCAN_sfc_dewp_039.txt.gz
Dewpoint
49 48 48 48 48 48 48 48 47 48 47 47 48 49 50 50 50 53 52 53 49 45 47 49 48 42 41 41 39 41 39 39 35 34 35 30 32 30 28 28 32 30 31 30 24 25 24 28 32 32 35 34 35 38
48 48 48 48 48 48 48 47 47 47 48 48 49 49 49 49 50 53 52 54 51 48 47 49 48 49 49 44 43 41 40 39 39 35 32 31 32 33 29 29 32 28 32 31 29 30 33 31 35 36 36 35 37 38
47 47 48 48 48 47 47 48 47 47 48 48 49 50 49 50 51 52 53 51 50 46 46 46 46 48 48 49 48 41 40 42 38 38 35 33 32 33 31 31 32 32 31 32 31 30 31 34 35 36 39 39 39 40
47 48 48 48 46 47 47 48 48 47 48 49 49 50 50 50 51 52 50 50 48 44 37 43 47 46 48 50 50 46 43 41 40 38 35 34 34 33 32 31 33 32 33 31 31 33 34 34 38 39 38 40 40 40
48 48 47 47 47 47 47 48 48 48 50 49 50 50 50 50 50 51 51 50 49 43 39 40 44 45 46 48 46 45 43 43 41 38 35 36 33 35 35 34 33 34 33 33 33 33 33 34 37 41 40 40 40 36
48 47 46 46 46 47 47 48 47 47 48 49 50 50 50 49 49 48 44 48 47 46 42 37 42 42 44 46 45 45 45 43 41 40 35 37 40 36 34 33 35 37 38 37 35 38 37 39 41 41 40 36 30 28
47 47 47 46 47 47 47 48 48 48 49 49 48 48 49 48 48 40 38 46 46 45 40 36 37 39 41 43 43 43 43 42 42 40 36 38 39 38 34 33 37 38 38 40 41 41 39 39 37 30 28 29 33 34
47 47 47 46 47 47 47 48 47 48 48 48 48 48 48 48 48 47 47 46 45 38 38 34 33 36 41 38 38 42 39 40 40 39 38 36 38 36 35 35 34 35 36 39 39 36 32 29 30 31 34 35 34 33
46 46 46 46 46 47 47 47 46 47 47 47 47 47 47 46 44 46 46 45 44 40 33 30 32 32 40 37 37 39 39 34 38 35 37 38 34 33 31 31 32 34 34 36 31 32 34 35 35 34 34 33 33 32
46 45 45 46 46 47 47 46 46 46 46 46 46 42 39 43 45 44 41 39 38 37 37 32 35 34 39 36 34 36 35 34 33 34 37 34 33 31 34 35 35 35 35 32 33 34 34 34 34 34 34 34 33 32
46 46 46 46 46 46 46 45 45 46 46 44 41 39 44 44 41 36 34 34 34 32 36 35 36 35 38 36 34 34 33 33 30 30 34 32 31 31 35 35 35 35 35 35 36 35 36 36 34 34 33 33 32 30
46 46 46 46 46 45 45 45 45 44 43 43 43 42 40 38 35 34 33 34 32 32 34 35 35 38 36 36 34 35 31 32 28 34 33 28 29 35 36 36 37 37 37 36 35 35 35 35 35 33 29 26 26 28
44 45 45 45 45 45 44 44 44 44 43 42 38 37 37 34 32 27 29 32 32 33 34 34 33 34 36 37 34 34 32 31 34 32 30 30 33 36 36 33 33 33 34 34 33 32 28 26 27 28 28 28 28 28
43 43 44 44 44 45 44 43 43 43 40 34 32 32 28 32 32 32 32 33 32 33 33 34 33 34 33 34 33 33 31 32 30 28 25 31 34 33 33 30 26 25 26 26 25 26 26 27 27 27 25 25 24 27
43 42 42 43 43 43 42 42 42 41 36 34 33 28 29 31 32 32 32 33 33 34 34 34 33 34 32 32 31 30 27 24 24 24 30 31 29 27 27 26 25 26 25 27 27 27 25 25 26 26 28 28 27 26
42 41 40 42 42 41 40 40 39 39 35 33 32 30 32 31 31 32 32 32 34 33 34 34 32 31 28 28 26 25 24 21 25 30 31 32 32 33 33 33 28 28 27 27 27 28 27 26 26 27 28 28 26 26
39 37 41 42 40 39 39 36 35 31 32 31 31 33 32 32 32 32 33 33 35 34 31 30 25 25 28 24 24 27 25 26 31 32 32 32 33 34 34 32 30 28 28 29 29 28 28 28 27 25 23 20 23 24
36 38 40 40 37 36 34 32 30 30 30 30 30 30 32 32 32 32 32 32 33 32 30 28 29 25 23 21 23 26 28 31 32 32 33 34 33 32 30 29 28 29 28 27 27 26 25 24 21 19 18 18 19 20
37 38 39 39 35 32 30 30 30 28 29 30 30 30 31 31 32 32 32 32 30 29 28 24 21 22 23 25 25 27 30 29 29 28 28 29 29 29 28 28 26 25 24 23 22 21 21 21 18 17 15 15 16 17
37 37 37 37 35 29 27 27 30 29 28 30 30 29 29 29 31 32 32 32 30 28 24 22 23 24 25 26 28 30 30 28 28 27 26 26 25 24 24 23 23 20 19 20 16 15 15 15 14 13 12 12 13 12
34 35 35 33 30 31 29 28 29 30 30 29 30 29 28 30 29 30 30 29 25 23 25 25 24 27 28 28 28 28 28 27 25 26 26 23 24 21 20 19 18 16 15 14 14 12 12 12 11 10 10 10 10 11
34 35 27 28 24 26 29 31 30 30 29 29 28 28 26 26 27 28 29 28 25 25 27 27 28 28 26 25 24 25 25 25 24 23 23 22 21 18 15 13 12 12 11 10 10 9 8 8 7 7 7 7 7 8
32 28 24 22 19 20 25 30 25 28 24 26 28 25 25 26 27 29 26 27 27 28 28 28 27 25 23 22 21 21 21 21 21 21 20 19 18 16 13 11 9 8 7 5 5 5 5 2 4 3 4 4 4 4
29 22 17 14 17 22 22 17 26 22 21 24 24 19 21 25 25 23 22 25 26 27 28 26 25 23 23 20 18 19 19 18 17 16 17 15 14 13 12 10 8 6 5 4 3 1 1 1 -2 1 0 -1 0 1
17 21 17 15 12 14 18 18 15 15 10 12 16 16 21 19 17 17 18 21 21 21 23 26 26 24 19 17 17 16 17 17 15 12 10 11 10 8 7 5 6 5 5 3 1 -0 -1 -2 -2 -1 -1 -2 -1 -0
15 20 13 18 9 11 14 7 9 9 8 10 13 17 17 16 10 13 16 17 19 19 19 21 20 18 16 17 15 14 13 15 13 10 8 7 5 5 3 1 1 1 4 1 -1 -2 -2 -3 -3 -3 -2 -1 -2 -1
14 15 21 26 24 22 15 13 16 16 12 13 16 17 19 17 11 14 19 18 18 18 18 18 20 17 14 12 12 12 12 12 12 10 8 6 5 3 2 0 -1 1 3 1 -2 -5 -5 -5 -5 -4 -2 -1 0 -0
22 20 12 12 13 21 13 12 14 19 20 23 22 15 15 13 11 15 16 18 17 16 13 12 12 11 8 7 8 10 9 9 8 7 6 5 3 3 1 1 -1 2 -4 -6 -5 -6 -4 -5 -4 -2 -2 -3 -5 -4
20 19 17 8 9 15 14 14 14 20 23 24 20 14 10 11 11 11 14 15 16 14 11 9 8 9 7 5 2 1 0 3 1 -4 -5 -3 -4 0 1 -2 -4 -5 -6 -7 -6 -1 2 3 0 -4 -8 -8 -9 -9
14 16 11 7 10 12 14 19 18 19 19 18 16 13 10 9 10 11 12 10 8 5 3 3 2 3 -2 -1 -2 -1 -3 -5 -3 -2 -3 -4 -3 -1 -3 -4 -5 -5 -9 -10 -10 -9 -6 -9 -8 -11 -12 -11 -12 -12
16 14 12 12 11 13 12 21 22 21 15 12 10 7 6 7 8 7 5 3 3 1 0 -3 -4 -11 -4 -5 -5 -6 -4 -4 -11 -6 -6 -6 -6 -5 -4 -5 -7 -10 -11 -12 -12 -12 -12 -12 -13 -14 -13 -14 -16 -16
19 17 11 12 15 9 6 3 6 17 17 12 1 -1 -1 0 -6 3 2 -2 -4 -3 -11 -14 -9 -4 -8 -8 -12 -10 -11 -7 -6 -8 -9 -7 -4 -4 -4 -6 -11 -13 -12 -11 -13 -14 -15 -14 -13 -14 -15 -16 -17 -17
8 4 9 11 8 8 4 -4 -4 3 6 1 -3 -4 -5 -2 -4 1 1 -4 -4 -7 -8 -8 -8 -10 -11 -11 -8 -8 -12 -8 -12 -8 -6 -6 -9 -6 -5 -9 -12 -13 -12 -11 -12 -15 -14 -14 -14 -15 -16 -18 -18 -19

GFSWCAN_sfc_dewp_042.txt.gz
Dewpoint
46 46 46 47 48 48 48 48 48 48 48 48 48 48 48 48 50 54 57 56 52 50 48 49 46 43 43 44 44 42 40 42 43 44 44 38 41 32 29 27 31 32 36 36 33 35 30 26 32 31 34 35 33 36
48 48 47 48 47 47 48 48 48 47 47 48 48 48 49 49 50 53 55 56 54 51 49 51 50 50 49 45 44 43 43 41 42 43 43 41 39 37 36 33 31 31 33 34 31 31 32 32 34 37 37 37 37 38
47 47 47 47 48 48 47 47 47 47 47 48 48 49 49 50 50 53 55 55 55 52 48 49 48 49 50 51 51 44 46 44 41 44 43 44 38 39 37 35 34 32 32 34 32 27 30 33 34 35 36 37 37 38
47 48 47 47 47 47 47 47 47 47 48 48 48 49 49 49 51 52 53 54 55 51 42 47 48 48 49 51 50 48 46 45 43 44 47 42 42 36 38 35 35 33 34 32 32 31 30 32 36 39 40 41 41 41
47 47 46 47 47 47 47 47 47 48 48 48 49 49 49 50 50 53 53 52 53 50 44 48 48 47 48 47 46 46 45 44 45 46 42 44 40 40 40 39 38 33 33 35 35 35 36 35 40 42 41 41 41 38
46 46 46 47 47 47 47 48 48 48 48 49 49 50 49 49 49 52 48 51 48 51 50 43 46 46 47 48 47 47 47 46 45 44 40 40 39 42 39 37 37 39 39 40 37 40 40 42 38 39 36 36 34 32
46 47 47 47 47 47 48 48 49 48 49 49 49 48 48 48 49 44 41 48 46 48 48 42 45 44 45 47 46 46 47 46 46 43 41 42 41 42 39 39 36 36 36 40 41 41 39 34 33 34 35 35 35 33
46 46 47 47 47 47 47 48 48 48 49 49 49 48 48 47 48 49 48 46 46 43 46 41 40 46 44 44 43 44 44 45 43 41 41 40 41 42 39 34 34 35 36 35 34 35 34 34 35 34 33 33 34 35
46 46 47 47 47 46 46 46 47 48 48 48 48 48 52 50 51 49 45 46 48 45 42 37 40 38 42 40 41 44 43 39 41 41 40 41 38 36 32 32 34 36 36 34 36 36 35 33 33 34 34 34 35 35
46 46 46 46 46 45 45 45 46 46 46 46 50 48 47 48 45 45 46 46 45 44 42 35 39 37 40 41 38 40 40 39 37 38 39 37 33 33 34 35 35 36 36 35 34 33 35 35 36 35 34 33 31 30
46 46 46 46 46 45 45 45 45 46 48 50 48 44 48 45 46 43 41 40 40 38 39 38 40 38 40 38 36 39 36 39 35 36 37 35 32 32 35 35 35 36 36 35 35 36 36 35 34 33 33 33 31 29
46 46 46 45 45 44 44 44 46 48 48 48 48 46 46 42 42 37 35 38 37 35 37 38 38 39 39 40 38 37 35 35 32 35 36 31 31 35 36 36 36 36 35 34 34 34 34 33 31 27 26 26 28 29
45 45 45 45 44 44 44 44 44 44 45 47 44 40 42 39 36 36 32 35 33 35 36 36 35 39 39 39 37 37 34 33 36 33 30 31 35 36 36 35 34 34 34 33 29 26 26 27 28 29 30 30 34 29
43 43 44 44 44 43 43 43 43 44 45 41 39 34 35 35 34 35 35 35 34 35 36 38 35 37 37 37 35 34 33 35 32 30 29 31 34 35 32 30 27 25 30 27 26 27 28 28 28 31 32 32 32 30
42 42 42 42 43 42 42 42 42 41 40 35 37 31 31 32 33 33 34 35 35 36 38 38 37 38 34 33 34 34 31 29 29 29 32 33 34 35 31 26 25 27 31 30 27 29 32 32 31 30 31 28 26 28
41 40 40 42 41 41 40 41 41 40 38 34 34 32 33 33 32 33 33 33 36 35 37 37 34 34 32 34 32 32 31 29 31 33 33 32 32 33 28 29 29 27 27 29 29 30 30 30 30 28 25 24 25 26
39 37 40 41 40 40 39 39 38 35 35 34 32 34 34 33 32 33 34 33 35 34 33 36 32 30 32 31 30 31 32 33 33 32 32 33 32 33 33 31 32 30 30 30 30 28 28 26 24 21 19 17 18 20
37 38 39 39 38 39 36 36 36 33 30 32 32 32 33 33 33 33 33 34 36 35 33 31 32 31 31 29 30 33 32 33 33 33 33 35 36 35 34 32 30 30 29 27 25 23 22 21 18 16 14 13 14 14
37 37 38 38 37 37 35 34 33 30 31 33 33 33 33 33 34 34 33 33 34 35 33 32 32 30 31 32 33 32 33 34 33 31 30 33 34 33 30 29 28 26 23 21 20 19 18 16 15 13 12 11 13 14
36 37 36 37 38 35 33 32 34 31 29 31 32 31 31 32 34 33 33 34 33 34 33 31 30 31 32 31 32 34 35 34 32 29 28 27 28 28 27 25 23 21 20 17 15 15 15 14 11 11 11 11 13 13
37 36 35 37 36 33 31 30 30 31 30 29 31 30 30 33 32 32 32 32 34 29 28 29 29 29 29 29 31 32 32 31 30 31 28 25 25 23 21 20 17 17 17 18 17 14 14 13 11 10 13 15 13 15
35 35 35 33 32 33 31 32 31 32 30 30 30 29 29 29 30 30 32 32 27 27 28 28 29 28 27 26 26 28 28 27 27 26 26 24 21 20 18 17 18 17 14 14 12 13 12 9 9 10 12 12 11 13
33 34 35 33 28 30 28 31 30 28 26 29 30 26 27 29 30 31 29 28 28 28 29 28 27 26 24 22 22 23 24 24 23 23 22 21 18 18 16 13 14 14 13 9 9 9 10 6 8 9 10 10 11 11
31 28 25 25 27 24 28 26 26 27 28 27 27 25 25 27 29 26 24 25 25 25 27 27 26 24 24 23 22 21 22 21 19 19 19 18 17 15 13 11 10 10 8 7 8 9 9 9 6 8 8 8 8 8
26 23 25 22 24 23 22 22 23 24 23 24 23 23 24 27 24 21 20 21 22 22 24 26 26 25 21 21 20 19 22 21 19 16 16 16 14 12 10 8 8 7 9 10 9 8 7 7 7 6 6 7 5 5
20 24 23 23 24 23 22 21 22 22 22 22 23 24 27 25 19 16 15 19 21 20 21 22 23 20 17 19 18 17 16 19 17 13 10 10 10 12 10 9 9 9 8 8 7 5 5 4 4 3 4 5 3 4
20 22 24 26 24 23 24 24 24 24 21 21 24 23 24 17 14 15 19 18 19 18 18 18 19 17 16 15 14 14 15 14 13 11 9 8 8 8 9 8 5 6 6 5 5 4 3 2 3 3 4 5 5 4
23 23 21 23 25 25 22 23 22 22 23 24 25 18 16 15 14 15 16 19 19 17 15 15 13 13 12 12 14 13 13 12 11 10 10 9 9 9 7 8 6 4 4 4 3 3 3 3 3 4 3 2 2 2
23 26 24 19 22 23 22 22 23 23 23 24 23 17 13 11 13 14 15 17 19 18 15 13 13 13 12 10 10 10 11 12 8 3 2 7 8 8 8 7 7 6 5 4 2 2 3 4 3 2 -0 -0 -0 0
23 26 23 19 18 20 24 25 25 24 21 20 17 13 11 11 12 14 15 15 13 12 10 10 10 12 10 11 9 8 8 8 7 6 5 4 5 6 6 6 5 5 4 3 2 1 -0 1 0 0 -1 -1 -1 -2
25 27 22 22 21 24 24 23 27 23 21 16 15 14 11 11 12 12 10 10 11 11 12 10 8 9 9 7 8 7 6 7 3 3 3 5 5 5 6 5 5 4 3 1 -0 -0 -2 -2 -1 -3 -3 -5 -6 -7
23 20 21 19 21 21 20 22 21 22 20 17 12 11 10 11 6 9 8 10 10 8 1 7 8 8 7 7 5 6 -3 5 5 3 3 4 5 6 5 4 4 3 1 -0 -1 -2 -3 -4 -3 -4 -5 -6 -8 -10
20 20 19 19 20 19 16 15 13 14 14 12 9 9 8 8 3 8 8 8 8 8 7 8 8 8 4 2 4 6 -0 5 1 1 1 0 -2 0 2 4 3 1 -1 -1 -1 -2 -4 -5 -5 -6 -7 -9 -10 -10

GFSWCAN_sfc_dewp_045.txt.gz
Dewpoint
43 43 43 44 44 44 45 46 46 45 47 48 49 49 49 49 49 52 54 59 57 48 46 47 39 37 39 39 44 43 42 43 44 44 46 41 42 36 32 28 33 34 38 37 38 35 31 25 29 27 36 31 33 33
44 44 44 44 45 45 46 45 47 48 48 48 48 48 48 48 49 52 53 57 57 50 49 52 52 51 49 46 41 45 39 42 42 42 47 48 42 40 39 33 30 32 33 36 32 32 33 28 29 33 34 34 35 36
45 45 45 45 45 44 45 46 48 48 48 48 48 48 48 48 50 53 54 55 54 52 49 49 48 51 50 52 53 44 48 43 44 48 46 48 43 43 39 38 35 31 33 34 30 25 27 30 33 35 37 39 39 39
43 44 44 46 47 47 48 47 47 47 47 47 47 48 48 49 50 53 56 57 55 52 47 48 50 48 50 51 50 50 49 49 48 47 51 44 44 39 42 37 36 33 33 30 31 28 30 35 39 41 41 41 41 41
47 46 47 47 46 46 46 46 46 46 47 47 48 48 49 50 51 55 57 55 57 50 46 48 49 48 48 48 48 48 48 46 46 48 44 46 43 44 44 42 39 32 32 36 36 38 39 38 41 41 41 40 40 37
47 47 47 47 47 47 47 47 47 47 47 47 48 48 49 50 51 53 54 54 53 53 51 46 48 47 48 48 47 47 47 47 46 45 46 42 40 45 42 39 38 38 37 39 37 41 41 40 37 36 36 36 36 36
47 47 47 47 47 48 48 47 47 47 47 48 48 49 49 50 52 51 44 51 50 53 50 45 46 47 47 48 47 47 49 48 47 46 44 45 43 42 42 38 37 36 37 39 39 39 38 37 36 37 35 36 36 35
47 47 47 47 48 49 48 48 48 48 48 48 48 48 47 48 49 50 46 46 49 46 49 43 42 47 47 48 46 47 49 48 45 43 44 43 43 44 42 36 35 36 37 35 36 36 36 37 35 34 35 34 33 34
46 46 46 46 46 47 48 48 48 48 47 47 47 49 53 52 51 49 45 47 50 47 44 39 40 38 44 43 45 46 47 42 44 43 43 43 40 39 35 35 35 36 37 36 36 35 35 34 33 33 34 35 35 34
46 46 45 45 45 45 46 47 47 48 48 48 51 46 50 51 46 47 47 49 47 46 43 39 42 40 42 44 41 42 42 41 38 39 41 42 35 34 34 35 36 37 37 36 35 34 35 35 34 34 33 30 31 31
46 45 44 44 44 45 45 46 46 46 48 52 50 46 49 46 47 46 42 42 43 40 40 39 41 40 42 40 37 41 38 41 35 37 38 37 35 33 35 35 36 36 36 35 35 37 35 33 32 32 31 29 28 28
45 45 44 44 44 44 44 45 47 48 50 50 49 48 47 44 45 39 37 39 39 36 39 39 39 40 41 42 40 40 36 38 33 37 38 33 33 35 35 35 35 35 35 34 34 32 32 30 27 26 26 29 30 30
44 44 44 43 44 44 44 44 44 44 45 49 46 42 44 40 37 36 34 35 35 37 37 39 36 41 40 41 40 37 34 35 37 35 32 33 34 36 35 34 32 32 33 32 29 26 26 27 29 30 30 31 35 31
43 43 43 43 43 43 43 43 44 45 46 43 40 35 37 35 35 35 37 36 35 37 39 40 37 39 40 37 39 35 34 35 33 31 32 34 35 36 34 33 32 30 34 28 26 28 29 29 30 33 33 33 32 28
42 42 42 42 42 42 43 43 43 42 41 37 38 32 32 33 33 34 35 36 36 38 41 39 39 40 36 35 37 35 32 31 31 32 33 34 35 34 31 28 26 27 33 29 28 30 34 34 31 30 27 24 26 27
41 41 40 42 42 41 42 44 44 42 39 36 35 33 33 33 32 33 33 33 37 38 42 41 38 37 34 35 33 34 33 31 32 35 34 35 35 34 29 29 28 27 28 30 31 31 31 31 32 26 24 22 27 25
40 38 40 41 41 40 41 42 41 36 35 35 32 34 34 33 32 32 34 34 36 37 35 36 34 32 34 32 31 33 33 35 34 35 34 35 35 32 30 32 34 32 32 31 31 30 28 25 24 20 17 16 15 16
38 38 39 40 41 40 37 38 36 33 32 34 32 32 33 33 34 33 34 35 36 35 36 33 34 33 33 31 32 33 33 35 33 33 35 35 35 35 32 32 32 31 31 29 26 24 22 21 18 17 14 11 12 13
36 37 38 40 39 38 34 34 35 31 34 35 34 35 35 34 35 36 36 37 37 37 36 34 34 31 31 33 33 33 34 33 32 32 33 35 35 34 35 33 30 29 26 24 23 22 19 16 15 12 13 12 14 16
37 37 38 39 39 35 33 33 35 31 30 32 34 32 33 34 35 35 35 37 35 35 33 30 29 30 30 31 32 35 35 34 32 31 30 31 33 34 33 31 27 24 20 18 17 18 17 16 12 12 14 14 17 16
37 36 38 39 37 34 32 31 31 32 31 30 32 31 32 35 34 33 34 35 33 28 27 29 30 29 30 30 32 35 35 34 32 33 31 28 28 27 25 24 23 22 22 22 21 17 17 15 13 13 17 18 17 17
35 37 38 38 36 36 32 33 31 32 31 31 30 30 32 32 32 32 34 32 27 28 29 29 30 31 28 28 29 30 31 30 30 30 28 28 26 24 23 23 22 21 19 18 16 18 16 12 12 13 16 16 14 15
35 36 37 37 32 33 30 33 31 28 28 28 29 26 28 30 30 32 29 28 27 28 29 27 27 28 26 26 25 26 28 27 26 26 25 24 23 22 19 18 19 19 16 11 11 12 14 10 12 13 14 14 14 14
33 32 30 30 30 27 31 28 26 28 28 27 26 24 25 28 29 28 25 23 25 25 27 28 28 27 27 25 23 23 25 26 25 25 25 23 20 18 16 14 13 13 11 11 13 14 14 14 10 12 12 12 12 11
29 26 30 26 30 27 26 26 26 25 23 25 26 25 26 28 26 23 22 21 23 23 24 25 24 25 23 23 22 20 23 23 21 19 21 21 20 16 13 11 11 10 12 14 13 12 12 11 11 10 8 10 8 7
23 26 25 26 26 25 25 23 23 23 24 24 24 26 29 27 21 17 16 21 22 21 22 23 25 22 18 19 18 17 18 22 20 16 14 13 14 16 14 13 13 13 12 13 11 10 9 8 7 6 7 7 6 7
22 23 25 25 25 25 25 26 26 24 23 23 24 24 26 18 16 17 19 19 19 20 19 19 19 18 17 16 16 17 17 16 16 13 11 10 11 11 13 12 9 9 8 9 8 8 7 6 6 6 7 8 8 7
23 25 22 25 25 26 23 23 23 23 23 23 26 19 18 18 16 18 18 20 20 18 17 17 16 15 15 17 18 17 16 15 14 13 13 12 11 12 10 11 9 2 8 8 7 6 6 6 6 7 6 6 5 6
24 26 26 22 24 24 23 22 23 22 23 24 24 19 16 14 16 18 17 19 21 21 18 17 17 18 16 14 14 14 15 15 12 6 6 10 11 12 11 10 10 9 9 8 6 5 5 5 5 5 4 4 5 5
24 27 24 23 21 20 23 25 25 24 22 22 19 15 13 14 15 18 18 18 16 15 15 15 16 15 14 14 13 12 12 11 9 8 7 7 8 9 9 9 9 9 8 8 6 5 5 5 5 5 4 3 4 3
26 28 23 22 21 23 25 27 26 24 23 20 21 18 14 13 15 15 14 15 15 15 16 13 12 13 12 10 11 10 10 11 6 6 6 7 8 8 9 8 8 8 7 6 5 4 3 2 3 3 2 1 -1 -2
24 22 21 18 22 24 26 25 25 24 22 20 16 17 15 15 10 12 12 16 14 12 9 12 12 10 10 10 10 11 3 7 7 6 5 6 7 8 8 7 7 7 6 4 3 3 2 1 1 1 0 -1 -2 -5
22 23 22 21 20 19 22 21 19 17 17 15 14 14 13 13 7 10 12 13 12 11 10 11 12 12 8 7 7 8 6 7 5 5 5 3 2 3 4 6 7 6 4 3 3 2 1 0 -1 -1 -3 -4 -5 -6

GFSWCAN_sfc_dewp_048.txt.gz
Dewpoint
43 42 42 42 42 43 43 44 45 45 46 46 47 47 47 47 47 47 47 51 50 52 46 44 41 40 39 45 44 47 43 44 49 45 46 46 44 41 35 31 37 37 39 36 41 35 32 25 26 29 38 37 35 35
42 42 42 43 43 43 43 44 45 45 46 46 47 47 47 48 49 49 47 52 54 51 52 53 51 51 50 51 47 47 44 44 47 45 48 50 41 40 43 37 30 35 36 39 37 37 37 30 33 36 37 37 38 39
43 43 43 43 43 44 44 45 45 46 45 46 47 47 48 48 48 49 49 53 57 52 49 47 49 51 51 52 55 47 51 45 47 51 50 50 40 47 39 43 41 32 34 39 36 27 28 32 37 40 39 40 39 40
44 44 44 44 44 44 45 45 45 44 44 45 47 48 48 48 49 49 50 54 56 54 47 48 50 48 50 51 51 53 52 54 53 53 53 43 43 42 47 41 42 35 34 31 33 29 34 38 42 41 41 42 41 39
44 45 44 44 45 45 45 44 43 42 45 45 47 48 49 49 49 50 53 56 57 54 45 48 48 48 48 49 48 50 52 51 51 50 42 48 46 47 47 46 45 34 33 40 41 40 40 39 38 39 38 37 36 34
45 44 43 42 43 44 44 44 46 47 47 48 48 48 48 48 49 52 49 55 57 56 49 45 49 48 47 47 47 49 49 50 48 48 48 45 43 48 42 43 37 38 38 40 39 40 40 38 37 37 37 37 37 36
43 44 45 47 46 47 47 47 47 47 47 47 47 48 48 49 52 51 48 50 49 55 50 42 44 47 48 48 48 48 51 49 48 47 46 46 44 44 41 43 38 37 37 39 38 39 37 38 36 37 36 35 36 34
47 47 47 46 46 46 46 46 47 47 47 47 48 48 49 49 49 51 51 47 49 49 51 41 39 47 48 49 47 48 50 49 46 43 45 44 44 47 43 37 36 36 36 36 37 38 38 36 36 35 34 34 33 34
46 47 47 47 47 46 46 46 47 47 47 48 49 49 52 52 51 49 45 47 54 51 46 38 38 38 45 44 46 47 47 41 45 43 43 44 40 39 38 36 36 37 37 36 36 36 35 34 34 33 33 33 33 32
44 45 46 47 47 47 47 47 47 48 48 48 51 49 43 49 45 46 49 49 49 47 44 41 43 40 43 44 42 42 44 41 39 41 42 40 36 35 36 36 37 38 37 37 35 34 34 33 33 33 32 32 30 27
44 44 45 45 47 47 47 47 48 48 48 53 49 44 48 46 48 47 42 43 44 40 40 41 42 41 43 40 38 43 39 40 37 37 40 36 34 34 35 35 37 37 37 36 36 35 34 34 34 33 29 29 31 31
44 44 44 44 45 45 46 47 47 51 52 50 49 49 49 46 45 38 36 40 39 36 39 39 40 40 42 43 41 41 37 38 34 38 36 34 34 34 35 35 36 37 36 35 34 33 33 31 29 28 29 30 32 32
43 43 44 43 44 44 45 46 47 47 48 50 47 41 44 39 36 35 33 35 34 36 37 39 37 41 41 41 39 38 34 36 39 35 32 34 34 35 35 34 35 35 35 33 30 28 28 30 31 32 32 33 32 31
42 42 43 43 43 44 44 44 45 47 47 44 38 34 36 34 33 34 35 35 34 35 38 39 37 39 40 36 37 34 35 35 32 30 32 34 35 35 34 33 33 30 31 29 28 29 31 31 31 31 30 29 27 25
42 42 42 42 43 44 44 43 43 44 42 37 37 31 31 32 33 33 34 35 35 39 41 40 40 38 36 34 37 34 32 31 32 33 34 35 36 36 34 32 29 31 31 30 30 32 32 31 30 27 25 25 26 25
42 41 40 42 42 43 43 44 44 42 39 35 34 32 33 33 32 33 33 33 37 39 42 43 37 34 33 35 34 33 32 31 33 34 34 36 36 34 31 30 30 29 31 31 32 32 31 30 28 25 23 21 25 24
41 39 40 41 42 41 42 42 40 36 36 34 32 33 33 33 31 32 33 34 37 38 35 38 33 32 35 33 31 34 32 33 34 34 35 36 34 32 31 33 32 32 32 32 32 31 29 26 25 22 20 15 16 19
39 40 40 42 42 41 40 41 38 35 31 33 31 32 32 33 33 33 34 35 37 36 36 33 36 34 33 31 31 33 33 35 35 35 35 35 33 33 33 31 32 33 31 30 28 26 24 25 21 18 15 12 14 16
37 38 40 41 40 39 35 36 36 32 33 34 34 34 34 33 35 36 36 38 39 40 39 37 34 31 31 32 33 34 33 33 31 33 33 34 35 35 36 35 33 30 29 27 26 23 18 17 15 14 14 14 16 17
38 38 39 39 39 37 34 34 37 33 31 34 35 34 34 34 35 34 36 37 34 34 29 27 26 27 28 31 32 34 34 33 32 31 31 32 33 33 33 32 28 25 22 20 19 22 19 17 14 14 15 16 17 16
36 35 39 39 38 36 34 33 31 33 33 32 34 33 33 36 34 33 35 34 31 28 27 29 30 31 33 33 33 33 33 34 32 33 32 30 32 31 29 28 27 25 25 24 22 18 19 16 14 14 18 19 17 17
34 38 40 40 37 35 33 35 32 34 32 33 31 32 32 32 32 33 34 29 26 28 28 28 28 30 28 29 29 32 33 33 32 31 30 29 27 26 25 26 26 24 21 20 18 19 17 13 13 14 16 17 15 17
36 37 37 37 32 32 30 34 31 28 27 27 29 26 28 30 30 33 28 25 25 29 31 28 28 29 27 26 26 27 31 29 28 28 28 27 26 25 23 23 24 21 16 13 13 15 15 11 13 13 15 15 14 16
35 33 31 30 31 26 32 28 28 27 29 28 25 23 24 27 30 27 22 23 25 25 26 26 29 28 25 23 22 22 26 26 25 26 27 24 22 21 20 18 16 15 14 14 15 15 15 15 11 13 13 12 12 12
29 27 30 25 32 27 24 23 26 24 24 25 24 24 25 29 24 22 20 23 21 22 22 26 23 24 22 22 20 20 23 24 21 20 22 23 21 18 15 12 12 12 14 15 13 13 13 13 13 11 9 10 8 8
22 25 23 24 24 24 24 21 21 24 25 24 24 24 29 26 20 18 18 21 20 19 20 21 24 19 16 18 17 16 18 22 20 16 16 18 18 19 17 15 15 12 12 13 11 9 9 9 8 7 8 7 7 9
20 22 25 27 26 26 25 26 26 25 23 24 25 25 26 19 17 18 19 19 18 20 19 20 19 18 17 16 16 17 16 16 16 13 13 11 12 12 13 11 9 8 8 9 8 7 6 6 7 7 8 9 9 8
23 25 22 26 26 26 24 24 24 23 23 23 27 20 18 16 14 18 19 21 21 18 18 17 16 16 16 17 18 18 18 16 15 15 14 14 13 13 12 12 11 7 9 10 7 7 6 6 5 6 6 6 6 7
24 27 27 22 23 24 24 24 23 22 23 25 24 18 15 14 17 18 18 22 22 20 18 18 19 19 17 15 15 14 14 14 12 9 8 10 12 12 11 11 11 11 11 9 10 9 8 7 6 6 4 4 5 7
23 29 24 22 22 21 23 26 23 23 22 22 18 14 13 14 16 18 18 18 17 16 17 17 17 16 16 15 13 12 11 10 9 7 6 6 7 9 10 11 9 10 10 9 7 6 8 7 6 6 7 6 5 4
26 27 24 24 22 24 25 27 26 24 21 20 22 17 13 13 15 15 15 18 16 18 18 14 12 13 11 10 10 10 11 10 8 6 5 7 8 9 11 9 9 9 8 7 6 5 5 4 3 3 3 2 2 2
23 21 20 20 22 24 25 26 25 25 23 20 17 17 17 17 11 11 13 17 15 13 11 13 11 10 10 11 12 12 4 8 9 7 5 6 6 7 7 7 7 8 8 6 5 5 4 3 3 2 1 1 1 -2
21 22 21 20 22 21 21 21 17 18 18 15 14 15 13 12 7 11 14 14 12 12 11 12 13 13 10 9 8 8 6 8 7 9 9 6 2 4 3 5 5 5 4 3 2 3 3 2 2 1 -1 -1 -2 -2

GFSWCAN_sfc_dewp_054.txt.gz
Dewpoint
43 43 43 42 41 41 42 42 42 42 42 43 43 44 43 44 48 45 43 49 46 44 45 48 48 38 37 36 35 43 42 43 41 35 36 36 31 33 32 33 30 28 28 25 28 24 22 35 31 24 30 37 37 38
43 43 43 42 41 41 42 41 42 42 43 43 43 45 45 47 47 46 43 48 50 44 45 48 48 48 47 43 42 44 40 43 45 40 41 39 35 33 32 30 37 30 31 30 31 30 36 39 37 39 39 38 39 40
43 42 42 41 41 41 42 42 42 42 42 43 45 45 46 46 47 45 44 47 46 43 43 47 45 49 52 51 49 44 44 47 46 46 44 41 35 35 30 30 33 35 39 35 33 37 40 40 41 42 40 36 36 37
43 42 42 42 42 42 42 42 42 44 45 45 45 46 46 47 48 46 44 48 46 46 39 40 52 51 51 53 48 48 47 49 50 46 39 37 34 39 31 34 33 35 35 34 38 39 39 39 40 37 36 36 36 35
42 42 42 42 42 42 42 43 44 44 45 45 45 46 47 47 47 46 48 47 49 46 39 43 50 50 52 52 49 49 49 49 45 38 34 36 39 38 36 34 31 35 33 32 33 39 37 37 38 38 36 36 35 34
42 42 42 42 43 42 43 44 45 45 45 45 46 47 47 47 46 45 41 45 49 50 44 38 48 49 50 53 52 51 52 49 48 43 36 41 43 36 32 28 37 40 41 40 40 38 38 38 37 36 35 34 34 32
43 43 43 43 43 44 44 45 45 46 46 46 46 47 47 47 46 42 39 45 47 49 43 37 39 47 50 50 48 50 49 47 48 43 40 40 41 39 32 31 38 39 38 37 37 37 36 36 34 35 34 33 33 32
44 44 44 44 44 44 44 45 45 45 46 46 47 47 47 47 47 43 49 49 48 45 45 36 38 41 46 42 42 46 45 44 44 42 39 36 39 33 31 37 37 37 38 37 37 37 36 34 33 33 34 33 32 32
44 44 44 44 44 45 45 45 44 44 45 46 46 47 47 45 44 46 49 49 50 47 38 34 35 35 43 41 40 38 40 36 41 36 36 38 35 33 36 36 36 37 36 35 35 35 34 33 33 33 33 32 31 28
43 43 43 44 44 44 43 43 43 43 45 46 45 45 40 45 49 49 48 45 45 43 40 35 40 36 41 35 36 33 34 34 30 36 38 33 33 35 37 38 37 36 36 35 33 33 33 33 33 32 32 30 29 28
44 44 43 43 43 43 43 43 44 46 46 45 42 40 46 49 48 44 38 36 37 32 36 38 37 38 41 34 34 34 33 33 30 34 32 33 32 35 38 38 38 37 37 36 35 34 34 34 33 31 31 30 29 29
45 45 46 45 44 44 44 45 46 46 45 48 47 49 47 45 39 35 33 33 33 31 35 36 37 39 37 42 36 35 33 29 28 36 33 30 34 38 38 38 39 37 35 35 35 34 33 31 31 30 29 28 28 28
46 46 46 46 46 46 46 46 46 49 48 47 42 38 40 33 29 25 28 30 30 33 35 35 34 35 37 38 34 32 27 26 31 24 30 32 35 37 38 37 36 35 34 33 33 31 32 31 31 29 26 25 25 23
44 45 46 46 46 46 46 47 47 47 44 38 36 31 32 30 30 30 31 32 33 33 35 35 34 34 34 34 33 30 32 31 27 23 26 33 35 36 36 34 31 31 31 31 30 30 29 29 29 28 25 23 22 20
43 43 43 44 46 47 47 46 44 43 38 33 33 28 28 31 32 32 33 33 34 35 32 32 34 35 33 32 32 32 30 27 26 27 31 34 35 34 33 30 30 30 30 29 29 28 27 26 24 24 24 22 22 20
43 42 42 44 43 44 44 42 41 39 34 33 31 31 33 32 32 32 32 33 35 34 34 34 32 30 30 31 31 29 26 26 29 31 33 34 32 31 30 31 31 30 30 29 27 26 25 24 23 22 22 19 18 18
41 39 42 43 43 42 42 40 36 33 33 31 29 32 32 31 30 31 32 33 35 34 32 29 29 29 31 29 28 30 27 29 31 33 34 33 30 30 31 31 31 32 30 30 28 26 25 22 23 22 18 18 18 17
38 40 42 43 42 41 40 38 33 30 30 31 28 30 32 32 32 32 33 34 33 31 32 32 33 27 25 26 26 29 30 31 33 33 32 33 33 34 33 33 33 31 30 27 26 25 22 22 17 18 20 18 18 19
39 40 41 42 41 37 34 35 35 29 30 31 32 32 32 32 32 32 32 33 33 32 31 28 23 22 23 27 27 30 31 31 31 31 32 33 33 32 32 31 30 29 28 26 23 20 19 18 17 18 18 17 16 16
38 39 41 41 39 34 32 33 36 32 29 31 32 31 32 31 31 30 29 29 28 28 24 23 22 23 24 25 28 31 32 32 32 30 30 31 32 32 30 28 27 26 22 19 18 18 17 17 17 18 17 15 10 9
35 37 38 37 35 35 33 32 32 32 32 31 32 32 31 28 25 25 25 26 23 24 22 25 24 25 27 27 28 29 29 33 32 31 30 27 29 27 27 27 27 25 21 19 17 17 18 17 17 15 12 6 7 3
34 37 29 32 29 29 31 33 32 33 32 31 31 32 29 28 26 24 23 21 21 23 26 24 24 23 22 23 24 27 27 26 26 26 25 26 24 22 21 22 20 19 19 19 17 16 15 14 14 13 11 9 10 8
34 32 26 25 22 22 24 31 27 30 27 28 29 26 27 27 29 27 21 20 21 23 25 23 22 22 21 22 22 23 25 24 22 21 20 19 19 19 19 19 19 17 16 17 18 16 15 13 12 10 8 6 4 -3
32 27 25 22 20 17 18 20 26 26 25 23 23 20 23 26 25 20 16 16 18 19 20 20 20 17 16 16 16 18 20 20 19 20 20 17 15 15 16 15 15 16 15 15 13 12 11 8 7 6 1 -5 -9 -10
18 19 17 16 21 17 15 15 15 18 18 20 18 18 22 23 16 15 13 14 14 14 16 18 16 16 14 14 14 15 18 16 14 13 15 18 16 15 13 12 11 11 11 8 6 3 3 1 -1 -2 -2 -12 -4 -7
18 19 18 20 20 18 17 14 13 17 13 17 21 22 20 13 8 9 12 13 12 14 14 15 14 12 12 13 12 12 14 16 13 10 11 13 13 13 12 10 7 6 8 3 -1 -6 -7 -11 -13 -12 -13 -5 -2 -4
17 17 23 28 26 23 19 18 18 13 11 12 17 16 12 4 4 12 16 18 15 15 17 16 16 14 13 14 14 14 13 13 12 11 12 11 9 7 1 -4 -4 0 3 -5 -11 -13 -12 -14 -16 -16 -18 -16 -14 -14
22 23 18 19 14 18 10 8 9 11 11 18 12 3 -3 -1 6 15 16 18 16 17 16 15 15 13 10 9 8 7 6 10 11 10 8 7 6 4 2 2 -1 10 1 -3 -6 -5 -7 -6 -7 -10 -11 -15 -13 -13
22 23 16 11 10 11 15 12 13 18 19 15 0 4 5 11 12 14 16 17 17 15 13 13 11 10 7 5 3 2 1 -1 -6 -9 -14 -13 -11 -5 2 2 0 -5 -9 -7 -1 3 -0 -3 -2 -8 -12 -14 -8 -12
13 17 10 5 7 9 12 9 9 12 15 10 11 9 8 9 11 13 13 13 10 8 8 8 5 2 -3 -9 -9 -4 -6 -9 -7 -12 -16 -17 -11 -5 -6 -5 -4 -5 -8 -14 -8 -9 -3 -12 -10 -11 -11 -8 -18 -20
17 11 8 11 11 15 12 9 11 9 3 1 -1 -4 -1 5 6 10 11 10 10 0 2 -4 -4 -10 -3 -6 -14 -15 -11 -6 -11 -11 -13 -15 -18 -18 -18 -16 -17 -17 -15 -14 -10 -11 -11 -14 -16 -15 -10 -8 -11 -15
7 6 8 7 9 19 16 15 17 6 -1 -2 -0 -7 -3 -7 -7 2 6 2 4 3 -2 -11 -10 -7 -12 -14 -15 -12 -5 -7 -9 -10 -7 -11 -14 -18 -18 -16 -19 -20 -21 -21 -21 -20 -21 -18 -14 -9 -8 -9 -11 -11
4 2 -0 7 11 8 3 11 7 5 1 -4 1 -1 -4 -6 -7 -0 6 0 -4 -9 -9 -8 -7 -3 -4 -9 -9 -11 -10 -15 -12 -3 -3 -1 -4 -7 -15 -20 -20 -20 -18 -21 -23 -20 -16 -19 -21 -21 -17 -15 -14 -15

GFSWCAN_sfc_dewp_057.txt.gz
Dewpoint
44 44 45 44 44 44 43 42 42 42 41 41 42 42 43 44 44 43 43 48 45 43 44 46 46 40 39 38 35 40 42 42 39 35 35 33 29 33 30 32 30 31 30 25 26 20 23 32 30 22 27 36 36 37
44 44 44 43 43 42 42 42 42 42 41 41 41 42 43 44 45 44 42 49 49 43 44 46 46 46 46 44 38 43 39 42 42 39 37 35 33 31 31 29 35 28 31 31 30 30 34 37 31 36 37 37 38 38
43 43 43 42 41 41 42 42 42 42 42 43 43 42 41 42 45 44 43 46 44 40 39 43 44 47 49 48 50 41 43 45 45 45 41 39 33 35 31 31 35 35 37 33 33 37 39 40 40 39 39 38 39 40
42 41 41 42 42 42 42 42 42 42 43 43 43 43 44 44 43 46 44 46 43 42 37 40 49 51 52 52 51 49 45 50 47 45 40 37 32 41 37 38 36 36 36 36 36 38 39 40 37 37 36 36 35 34
42 42 41 41 41 41 42 42 42 42 43 43 43 44 44 45 47 47 47 46 46 44 39 38 45 48 51 52 51 49 50 47 42 38 35 37 38 37 35 36 35 36 35 34 33 38 37 38 37 37 35 35 34 33
42 42 42 42 42 42 42 42 42 41 42 43 44 44 47 46 46 44 40 44 49 48 42 35 45 47 50 52 50 49 49 48 45 42 39 42 43 36 33 31 35 39 40 36 36 39 38 37 36 35 35 33 33 32
42 42 42 42 42 42 43 44 45 42 43 44 46 46 46 46 44 41 36 41 48 47 41 35 36 46 50 50 47 48 47 45 45 42 38 38 40 38 31 29 37 38 38 38 37 36 35 35 34 33 33 33 33 32
43 42 41 43 44 43 43 44 44 44 45 46 46 46 45 45 44 40 47 47 46 44 43 35 35 40 47 43 42 45 42 42 43 41 39 33 38 34 31 36 38 37 37 37 36 37 36 34 33 32 32 32 31 30
43 44 43 44 44 45 45 45 46 46 46 46 46 46 45 42 38 42 47 47 49 43 36 33 34 33 44 41 40 40 40 36 41 34 38 39 35 36 36 37 37 37 37 35 34 33 33 33 32 32 31 29 28 27
44 44 44 44 44 44 44 45 46 46 46 46 43 40 35 39 47 48 46 43 44 43 41 35 39 35 42 36 35 37 35 35 34 37 39 34 34 37 37 38 38 37 35 35 33 33 33 32 32 31 29 28 28 27
44 44 44 44 44 44 44 44 45 46 44 40 39 38 45 47 43 40 35 34 35 33 36 37 38 38 42 36 35 34 34 32 32 34 35 32 32 34 38 38 37 36 36 36 36 35 34 34 32 31 29 29 28 28
44 44 44 44 44 44 44 44 45 42 41 42 44 47 46 43 37 34 32 33 34 32 34 36 37 39 37 40 35 35 33 30 31 35 33 31 32 37 37 36 37 37 36 35 35 35 35 33 31 30 29 28 28 27
44 43 44 44 44 44 43 44 44 46 46 46 42 36 38 33 31 30 29 30 31 33 35 35 34 35 35 35 32 30 24 28 33 31 30 32 36 37 37 36 36 36 36 34 33 32 31 30 29 28 28 27 25 22
44 44 43 44 44 44 44 45 45 46 46 37 35 30 31 30 30 30 31 33 33 33 34 34 33 34 33 32 30 28 32 31 20 21 26 32 36 36 34 34 33 33 31 31 31 30 29 26 25 25 25 23 20 17
45 45 46 45 44 44 45 45 45 44 38 33 33 27 28 31 32 32 33 33 33 35 34 34 34 35 32 32 30 31 30 27 22 22 31 34 35 33 32 31 31 30 30 30 30 29 27 25 23 22 22 20 18 19
44 43 42 46 46 46 46 44 41 39 35 33 31 31 32 32 31 32 32 33 35 33 33 32 31 31 30 31 30 28 24 25 28 31 33 34 32 31 31 31 31 31 30 30 29 28 27 24 22 20 21 19 18 17
42 40 42 44 45 44 42 39 33 31 32 30 29 32 32 31 31 32 32 32 35 33 31 29 28 29 31 28 27 29 26 29 31 32 32 32 32 32 32 31 31 31 30 29 27 25 24 22 20 18 17 18 16 16
39 41 43 43 43 41 40 37 32 31 29 31 29 30 30 30 30 30 31 32 30 31 32 30 30 22 22 24 24 29 30 31 31 32 32 32 32 33 33 32 32 30 29 26 24 22 22 21 19 18 18 19 17 16
40 40 42 42 41 37 34 34 34 29 30 31 32 32 31 29 29 30 30 32 31 30 28 26 19 19 20 24 24 29 30 31 30 31 31 32 33 32 32 31 30 27 25 24 22 20 19 19 19 19 18 17 17 16
38 39 39 40 40 35 32 32 35 31 29 31 31 26 28 27 28 28 27 26 26 26 23 20 19 21 22 24 26 30 31 32 31 29 28 29 30 29 29 28 26 25 22 20 19 19 18 18 17 16 15 15 14 13
34 36 36 37 36 35 33 32 31 32 32 30 32 30 26 25 22 21 21 24 21 22 20 22 21 22 25 25 26 27 28 31 29 29 27 25 26 25 25 25 23 22 19 19 18 17 17 17 17 16 14 11 11 13
33 34 28 30 29 31 31 32 32 32 31 31 30 31 28 24 22 22 21 17 18 19 22 21 21 21 21 21 22 24 25 24 24 22 22 22 20 19 19 20 19 17 17 17 16 15 15 15 15 15 12 10 12 10
32 30 26 24 21 22 26 31 29 31 27 28 29 26 26 25 25 24 17 18 18 21 23 22 21 21 20 20 20 20 22 21 19 18 18 17 17 17 17 17 18 16 15 15 17 15 13 14 12 10 8 8 7 2
28 21 18 19 20 15 21 23 27 27 26 24 24 22 24 23 23 17 12 13 16 18 18 18 18 16 15 14 14 15 18 17 16 17 18 15 12 12 13 12 12 12 12 11 10 9 8 6 6 4 1 -4 -4 -5
18 17 14 11 17 15 12 12 16 19 19 20 19 20 22 20 14 11 9 11 13 13 15 15 14 14 13 13 13 14 15 14 12 10 13 15 12 11 9 8 8 7 8 4 1 0 -0 -2 -3 -5 -4 -12 -3 -9
14 18 19 14 18 16 14 11 14 15 11 10 16 19 15 11 6 7 10 12 12 13 13 14 12 11 10 11 10 10 12 13 10 7 7 8 9 8 4 3 2 4 4 -3 -7 -10 -11 -14 -17 -15 -18 -13 -11 -15
14 16 20 24 21 20 14 11 15 10 9 10 13 8 2 -1 0 10 15 16 13 15 15 15 13 11 10 10 10 10 11 11 9 8 8 7 6 5 -1 -5 -5 1 2 -7 -12 -13 -11 -14 -17 -16 -16 -23 -21 -20
23 23 14 10 10 14 7 3 6 8 10 16 5 -3 -6 -4 4 12 14 16 15 14 11 9 7 6 5 5 6 7 8 6 6 4 4 2 2 2 2 3 2 7 -1 -4 -10 -14 -14 -9 -10 -11 -15 -13 -12 -19
16 15 12 6 5 7 10 7 7 12 13 10 -5 -2 2 7 8 11 14 15 14 12 9 7 4 -1 1 1 -1 -2 -2 -7 -8 -12 -18 -19 -15 -8 -4 -6 -8 -8 -11 -13 -4 1 -2 -7 -11 -14 -14 -17 -11 -14
9 11 7 -0 2 6 6 9 5 1 8 6 8 6 6 7 9 12 11 9 6 2 -1 -3 -3 -5 -15 -10 -12 -6 -8 -14 -13 -14 -18 -18 -14 -12 -20 -21 -19 -19 -20 -20 -18 -15 -4 -14 -11 -17 -18 -17 -20 -24
9 8 4 5 8 6 7 6 7 2 -5 -3 -8 -5 -2 2 3 8 7 5 3 -3 -5 -9 -10 -18 -10 -15 -19 -18 -13 -9 -12 -13 -13 -16 -20 -21 -22 -22 -22 -25 -26 -25 -24 -24 -23 -24 -25 -24 -21 -19 -16 -16
2 -6 1 3 7 8 8 9 -2 -3 -10 -9 -8 -12 -8 -10 -10 -2 2 -2 -0 -2 -10 -17 -12 -7 -15 -18 -18 -15 -10 -13 -16 -16 -14 -14 -13 -17 -21 -21 -24 -25 -24 -26 -28 -27 -25 -25 -27 -28 -28 -25 -24 -21
-3 -5 -6 -3 5 6 10 12 4 -0 -3 -5 -4 -5 -9 -12 -12 -3 1 -8 -11 -13 -13 -13 -14 -14 -8 -12 -15 -17 -16 -20 -18 -6 -7 -7 -12 -12 -19 -23 -24 -24 -23 -25 -26 -26 -24 -24 -27 -29 -29 -30 -29 -28

GFSWCAN_sfc_dewp_060.txt.gz
Dewpoint
44 43 44 44 44 44 46 46 45 45 44 44 44 44 43 44 44 41 40 45 42 39 43 45 43 38 37 36 33 37 41 40 36 32 32 30 28 33 32 34 33 32 31 27 25 22 24 30 28 23 28 34 34 34
44 44 45 45 44 45 45 44 44 44 44 43 43 42 43 43 43 40 37 43 47 43 42 45 45 46 40 39 37 41 36 41 41 38 35 33 31 31 31 29 34 31 33 32 31 31 34 33 30 33 34 35 36 37
44 44 44 44 44 44 44 44 44 43 43 43 42 42 43 43 42 39 39 43 44 41 41 43 42 47 48 47 45 39 40 44 42 43 40 38 33 35 31 32 33 34 35 32 32 34 37 39 39 39 39 38 39 40
43 43 43 43 43 43 43 43 42 42 42 42 42 42 42 43 43 40 40 42 44 42 37 39 48 47 50 49 49 46 43 47 45 43 38 37 34 39 33 37 35 37 37 35 34 38 39 39 38 37 37 37 36 34
41 41 41 41 42 42 42 42 41 41 41 41 41 43 43 43 43 42 43 46 45 42 37 38 42 47 51 50 50 49 48 45 42 38 35 35 38 37 35 35 31 37 36 34 33 36 36 36 37 37 36 35 35 33
42 42 42 42 42 42 42 42 42 41 41 41 42 42 42 44 44 41 38 46 46 46 39 33 40 42 48 51 50 48 48 46 43 39 37 40 41 37 32 31 35 37 38 37 35 39 37 37 36 35 34 33 33 32
42 42 42 42 42 42 42 42 42 42 42 43 42 43 44 44 43 40 38 44 46 45 39 34 34 42 48 50 48 48 46 44 44 41 35 38 39 36 29 30 36 38 38 39 37 37 35 35 34 33 33 32 32 31
42 42 42 42 42 42 42 42 42 43 43 43 43 44 44 45 45 40 46 46 45 42 41 34 35 38 46 42 42 46 42 42 42 41 37 34 38 33 35 36 37 37 36 36 35 36 35 34 33 32 32 32 31 31
42 42 42 42 43 43 41 41 41 43 43 44 45 46 45 42 38 39 47 47 47 41 34 32 33 29 41 40 40 41 42 36 40 35 37 38 33 36 36 36 36 37 36 34 33 34 33 32 32 31 31 30 29 29
43 43 42 43 43 43 43 42 43 44 45 45 42 39 34 37 47 45 44 38 40 40 40 34 38 34 39 35 36 35 35 35 34 36 39 34 34 37 38 39 38 36 34 34 33 32 32 31 30 29 29 29 29 29
44 44 44 44 44 44 43 43 44 45 43 38 35 36 41 45 44 40 34 34 35 33 36 36 37 36 41 35 34 34 34 33 33 35 34 33 32 35 38 40 39 38 37 37 36 35 33 32 30 28 28 29 29 29
44 44 44 44 44 44 44 45 44 43 40 40 43 44 44 40 37 31 32 33 33 32 34 35 36 38 37 40 35 34 32 32 31 35 34 31 32 36 36 36 36 36 36 35 34 33 33 31 30 30 30 30 28 24
44 44 44 44 44 44 45 45 45 44 43 42 41 36 38 33 30 22 27 30 31 33 35 35 34 35 34 36 32 32 30 30 33 32 31 32 36 37 36 36 35 36 35 35 34 33 33 32 32 30 28 26 23 22
44 44 44 44 44 44 44 45 44 43 41 37 33 29 31 29 30 31 32 31 32 33 34 34 33 34 33 33 31 32 32 31 28 26 27 32 35 35 35 35 33 33 33 32 32 31 30 29 27 26 26 23 21 19
44 44 44 44 44 44 44 44 44 43 37 32 32 27 28 31 32 32 32 33 33 34 34 34 34 34 32 31 31 31 29 27 24 22 30 33 34 33 33 32 32 31 31 30 28 27 27 26 25 22 20 19 20 20
44 44 43 44 44 44 44 44 42 40 35 32 30 30 32 31 30 32 32 32 34 33 33 34 32 31 30 31 29 27 26 25 28 30 32 33 32 32 31 31 31 31 30 30 29 27 26 24 22 19 18 18 18 17
42 40 45 44 44 45 44 40 36 32 32 30 28 30 30 30 29 30 31 30 34 33 30 30 30 28 31 27 25 28 25 28 30 31 32 32 31 31 31 31 30 30 29 29 28 27 22 21 19 17 15 15 15 16
40 43 45 43 42 42 40 37 32 31 29 30 27 28 27 27 27 27 29 31 32 32 30 27 28 22 20 21 22 27 30 30 31 31 31 32 32 32 32 30 30 29 28 27 26 22 19 19 18 18 17 16 16 16
41 43 44 44 42 38 33 33 33 28 29 31 30 30 29 27 28 28 29 30 30 29 27 23 15 15 16 21 21 24 29 30 29 29 30 31 32 31 30 29 28 26 24 23 21 20 20 20 19 19 18 18 17 15
40 40 41 43 41 35 32 32 34 31 29 27 27 24 25 24 25 25 25 27 26 24 19 17 16 18 19 21 24 25 31 32 29 25 24 25 27 26 26 25 23 22 21 20 20 20 19 18 18 17 17 17 16 14
35 35 36 40 36 35 32 32 31 32 31 27 29 27 24 24 20 19 19 21 19 19 16 19 19 20 22 23 24 25 24 25 24 25 22 20 22 22 22 22 21 20 18 17 16 16 16 15 15 15 14 13 14 14
32 32 30 31 32 32 30 32 32 32 31 31 30 29 25 21 20 19 18 15 15 17 19 19 19 20 19 19 20 22 23 22 21 20 20 19 17 17 17 18 16 15 15 14 14 13 13 14 13 12 10 11 13 11
31 30 26 25 23 25 26 32 28 30 26 26 27 25 22 21 22 20 14 15 15 19 20 20 20 20 18 19 19 19 20 19 16 16 15 14 14 13 12 12 14 12 11 12 13 11 9 10 8 6 6 6 6 3
27 20 17 16 18 14 20 23 28 27 26 25 23 21 21 20 20 14 10 11 15 16 16 17 18 16 16 14 12 13 16 15 14 14 14 11 9 9 8 7 8 8 9 8 6 4 4 2 2 1 -3 -8 -8 -11
18 18 15 12 15 14 11 14 18 18 19 21 20 20 18 20 13 10 8 10 12 12 14 15 14 14 12 12 12 12 12 12 10 8 11 12 9 7 5 5 5 5 5 1 -3 -5 -7 -12 -15 -17 -13 -20 -9 -14
16 18 14 13 15 12 14 9 10 14 13 14 15 13 10 7 3 5 9 11 11 12 11 12 11 9 8 9 8 8 10 10 7 4 6 6 6 3 2 0 0 3 1 -8 -11 -15 -13 -16 -18 -14 -19 -15 -16 -22
12 14 17 19 19 17 7 5 10 5 3 6 8 -1 -0 -3 -0 9 13 13 11 11 11 11 11 9 8 8 8 8 8 7 6 6 6 5 4 4 1 -2 -3 0 3 -4 -13 -15 -13 -15 -19 -19 -21 -25 -25 -22
21 15 7 6 6 10 2 -0 2 4 6 11 1 -8 -11 -8 1 11 12 14 11 9 7 6 6 5 5 5 6 5 5 4 4 2 1 -1 -1 -1 -3 -4 -5 1 -12 -16 -17 -17 -15 -12 -13 -16 -19 -19 -17 -20
8 8 9 1 1 4 6 4 3 6 8 5 -9 -7 -2 5 6 9 12 13 12 8 4 1 -1 -2 0 -0 -3 -4 -6 -10 -11 -14 -20 -21 -19 -11 -12 -18 -19 -18 -20 -17 -6 -1 1 -7 -6 -14 -16 -19 -19 -23
6 7 4 -4 -2 1 -5 2 -3 -2 6 5 6 5 4 5 8 10 8 6 3 -2 -6 -7 -13 -14 -19 -13 -15 -7 -11 -18 -18 -16 -19 -20 -16 -15 -25 -24 -22 -23 -27 -27 -25 -20 -9 -18 -15 -22 -22 -23 -24 -27
5 5 3 2 2 -2 -5 -4 -1 -2 -7 -4 -8 -8 -4 -1 1 5 3 -3 -9 -15 -8 -12 -13 -22 -16 -19 -21 -20 -16 -14 -19 -18 -17 -17 -19 -22 -23 -24 -26 -28 -29 -28 -29 -29 -28 -29 -31 -32 -30 -26 -25 -26
-1 -2 0 0 2 6 4 -4 -10 -9 -12 -12 -11 -17 -14 -13 -13 -6 -3 -5 -6 -11 -15 -21 -15 -11 -18 -21 -24 -22 -16 -19 -19 -20 -16 -18 -20 -22 -22 -22 -27 -27 -28 -29 -30 -30 -29 -29 -31 -32 -33 -32 -32 -31
-8 -11 -9 -3 1 2 4 4 -0 -3 -8 -8 -7 -10 -18 -15 -13 -7 -4 -15 -13 -15 -15 -16 -15 -15 -15 -17 -18 -22 -20 -23 -21 -7 -9 -11 -16 -16 -24 -28 -30 -29 -26 -28 -31 -31 -28 -28 -30 -31 -33 -35 -32 -32

GFSWCAN_sfc_dewp_063.txt.gz
Dewpoint
44 44 43 44 43 44 45 45 44 44 45 46 45 45 45 44 44 41 42 44 41 39 40 43 42 37 35 36 34 37 37 39 38 33 33 33 33 32 33 35 34 33 32 32 29 31 27 32 26 29 34 33 33 35
44 45 44 44 44 44 44 44 44 44 46 45 45 44 44 44 45 42 40 45 45 40 42 45 45 45 37 36 36 41 38 39 39 37 37 35 35 34 34 29 36 34 35 34 33 34 38 33 35 34 33 35 37 37
45 44 44 44 44 44 43 44 44 46 45 45 45 44 44 44 44 41 40 42 42 38 41 42 43 47 48 44 42 42 42 44 43 44 41 40 35 36 34 33 35 36 38 35 35 35 35 38 39 39 38 37 38 39
43 44 44 45 45 45 45 45 45 44 44 44 44 44 44 45 43 40 40 43 41 40 35 39 47 48 50 48 45 45 45 47 46 45 40 37 37 39 36 37 37 37 38 36 36 36 39 40 41 39 38 39 37 36
43 43 44 43 43 44 44 44 44 44 44 44 44 43 44 43 41 41 43 43 42 41 35 38 43 46 50 49 49 48 47 46 44 42 37 39 39 39 37 38 37 39 37 36 36 38 37 37 40 40 38 38 36 34
42 42 42 43 43 43 44 44 44 43 43 43 44 44 43 41 41 40 35 43 44 43 38 34 42 43 49 51 49 49 49 47 46 42 40 41 41 40 37 37 38 39 39 39 38 39 37 37 36 37 36 36 35 33
43 42 42 42 42 42 42 42 42 42 42 42 43 43 43 42 40 38 36 42 42 45 37 33 35 42 48 49 48 48 49 47 45 43 40 41 42 39 35 35 35 38 38 38 37 37 36 36 36 35 34 33 32 31
42 42 42 42 42 42 42 41 41 42 42 41 41 41 42 42 41 39 46 45 44 41 40 32 34 39 46 43 42 46 44 44 43 42 39 40 40 37 36 36 37 37 36 36 35 36 36 34 33 32 32 32 31 31
43 42 42 42 42 42 42 42 42 42 42 42 43 43 42 40 38 41 46 45 47 42 34 32 33 34 42 40 40 42 42 35 41 36 38 41 37 37 38 37 37 37 37 34 34 34 33 33 32 32 32 31 31 30
43 43 42 42 42 42 43 42 42 43 42 43 41 38 33 39 44 46 44 40 40 39 37 34 36 35 39 36 37 36 36 34 34 37 40 37 37 38 38 38 39 36 34 34 33 32 32 32 31 31 31 31 30 29
44 43 43 42 41 41 41 42 42 43 43 39 38 37 41 46 44 40 33 33 35 33 36 36 36 36 41 35 35 36 34 33 32 35 37 34 34 36 39 40 38 36 35 37 38 35 34 33 31 30 30 31 30 28
44 44 44 42 42 42 43 43 44 43 41 40 42 45 44 39 36 33 32 33 34 31 35 35 36 38 38 40 35 35 33 32 30 36 34 32 34 36 37 38 38 37 36 35 35 34 33 32 31 31 31 30 29 28
44 44 44 43 43 44 44 44 44 43 43 42 39 36 35 33 29 28 28 31 31 33 35 35 34 36 36 36 33 33 31 31 34 32 32 32 36 36 36 36 35 35 35 33 32 31 31 31 31 30 28 28 28 27
44 44 44 44 44 44 43 43 43 42 40 34 32 30 31 30 31 31 31 32 33 34 35 35 33 35 34 34 33 32 33 32 30 29 27 32 35 35 34 34 33 32 32 32 31 30 30 29 28 28 28 28 26 23
44 44 44 44 44 43 43 43 42 40 35 32 32 27 28 31 32 32 33 33 33 34 35 34 34 35 32 32 32 32 30 27 27 27 31 32 33 33 32 32 31 30 30 29 29 27 27 27 26 25 25 24 21 22
44 43 42 44 44 44 43 42 40 39 34 32 29 28 30 29 29 30 31 32 33 33 34 34 32 32 30 32 29 27 27 25 28 30 32 32 32 31 31 31 30 30 29 28 28 27 26 25 24 21 20 19 20 20
43 40 44 44 43 42 41 39 36 32 31 30 26 28 27 28 25 27 29 29 32 33 31 32 28 27 31 26 24 28 25 27 30 30 31 32 30 30 30 30 29 29 28 27 26 25 24 23 20 17 15 15 16 17
40 44 44 43 41 41 39 37 33 32 28 29 25 26 25 25 25 25 28 29 32 31 27 24 26 20 18 19 19 22 27 30 30 30 31 31 31 30 30 28 28 27 26 25 25 24 21 19 17 17 15 16 16 16
43 44 43 43 42 37 33 33 34 26 25 27 26 26 26 24 25 25 26 28 27 26 25 20 16 14 16 19 19 21 24 29 26 25 26 28 28 27 26 25 25 24 24 23 22 21 21 21 21 19 18 17 15 14
42 43 42 42 40 33 32 32 34 27 24 24 25 22 22 22 23 23 22 22 21 20 16 14 13 16 17 19 22 23 28 30 26 22 21 22 24 23 24 23 22 22 21 20 20 19 18 17 16 17 18 18 17 15
38 38 41 39 35 34 32 32 31 31 29 25 26 24 23 22 18 17 17 19 15 16 13 16 17 19 21 21 23 23 23 23 22 22 20 18 21 21 20 20 19 18 17 16 15 14 14 14 14 14 15 15 15 15
33 35 31 34 33 32 31 32 32 32 31 29 29 26 23 19 18 17 16 13 12 14 18 17 17 17 17 17 19 21 21 20 19 18 17 17 15 15 15 16 15 14 14 14 12 12 11 11 11 11 11 11 11 10
31 29 27 26 25 26 26 32 28 29 25 26 27 22 20 19 19 15 12 13 14 17 18 19 19 18 16 18 18 18 19 17 14 14 13 12 12 12 11 11 12 11 9 9 9 8 7 5 5 5 6 5 5 4
26 19 17 18 19 16 22 22 27 26 25 24 23 19 19 18 17 13 8 10 13 15 14 16 17 15 14 13 11 12 16 15 13 12 13 9 6 5 5 5 5 6 6 4 3 2 1 0 -0 1 -0 0 -1 -1
17 16 16 13 14 11 9 13 16 17 18 20 18 16 16 18 10 8 7 9 11 11 12 14 12 13 11 11 11 10 12 10 8 7 9 7 6 5 4 4 4 4 5 3 0 0 -1 -2 -2 -2 -2 -3 -3 -3
12 14 11 12 14 11 12 9 10 11 11 12 12 10 11 9 5 5 8 10 10 10 10 12 11 9 7 8 7 7 7 7 5 4 4 5 5 4 3 2 1 2 3 1 2 0 -0 -2 -2 -3 -2 -2 -10 -6
11 10 13 15 16 12 5 5 8 5 4 5 5 -3 -2 -5 -1 7 11 11 9 9 10 10 9 7 6 5 5 6 6 6 5 3 4 3 2 2 2 -0 -1 1 2 -1 -1 -1 -1 -2 -3 -4 -4 -4 -4 -7
16 12 3 3 3 8 -4 -2 -1 1 4 7 -1 -9 -11 -10 0 8 10 10 9 8 7 6 5 5 4 4 4 4 4 3 3 2 1 -1 -2 -3 -4 -4 -5 -1 -7 -6 -3 -4 -3 -3 -3 -4 -6 -6 -7 -8
5 6 6 -3 -2 -0 1 -2 -2 2 5 3 -9 -6 -2 3 5 8 10 9 9 6 4 1 -0 0 1 -0 -2 -4 -4 -2 -4 -8 -9 -8 -7 -3 -6 -7 -7 -9 -10 -5 -4 3 0 -1 -4 -8 -10 -10 -11 -14
4 6 1 -8 -7 -5 -6 -2 -3 -1 4 5 5 3 2 3 6 8 8 7 5 1 -2 -6 -9 -6 -7 -4 -6 -3 -6 -9 -8 -7 -8 -8 -6 -4 -9 -9 -8 -10 -12 -9 -8 -7 -6 -9 -7 -12 -13 -13 -13 -13
3 3 -0 -2 -4 -6 -5 -10 -9 -3 -7 -6 -7 -7 -4 -1 3 4 2 -2 -3 -4 -3 -6 -8 -13 -8 -9 -8 -8 -8 -7 -14 -10 -8 -7 -9 -9 -8 -10 -12 -14 -13 -12 -12 -12 -11 -13 -15 -15 -14 -15 -17 -18
-3 -4 -2 -3 -2 -1 1 -9 -13 -10 -13 -9 -11 -16 -13 -10 -11 -2 -0 -1 -1 -6 -12 -13 -6 -5 -11 -12 -16 -14 -16 -11 -9 -10 -10 -8 -6 -8 -10 -11 -15 -15 -13 -14 -15 -15 -15 -14 -14 -16 -16 -17 -19 -19
-11 -12 -10 -4 -2 -1 1 1 -2 -5 -9 -9 -9 -11 -18 -12 -11 -6 -5 -13 -6 -5 -7 -8 -7 -9 -11 -15 -11 -12 -15 -12 -16 -8 -9 -8 -13 -11 -11 -12 -14 -15 -13 -13 -14 -15 -15 -16 -15 -17 -17 -20 -20 -20

GFSWCAN_sfc_dewp_066.txt.gz
Dewpoint
46 46 45 44 44 45 44 44 44 45 45 45 47 47 46 45 45 42 43 46 43 39 36 34 35 35 32 33 35 34 35 39 40 37 36 35 37 33 32 33 35 34 35 37 34 37 33 32 28 28 33 37 34 35
45 45 44 43 44 45 45 45 45 45 45 44 45 46 46 45 45 42 41 46 45 42 40 44 46 42 35 34 34 41 32 36 38 36 39 38 40 40 33 30 33 33 35 35 34 33 40 35 33 34 36 34 36 36
45 44 45 44 44 45 45 45 44 44 44 44 46 46 46 45 44 41 42 45 44 40 38 41 39 42 46 42 41 37 38 34 38 41 42 42 41 40 39 34 32 34 37 37 36 32 35 38 35 38 35 35 35 37
44 44 44 44 44 45 44 44 44 43 45 46 46 45 45 45 45 43 41 44 40 39 35 37 44 42 46 45 42 42 38 46 45 45 45 43 42 38 40 36 36 35 37 34 36 35 37 38 40 39 38 39 39 39
44 44 44 43 44 44 44 44 44 45 46 45 45 45 45 46 44 43 45 42 41 38 35 37 41 40 47 46 41 41 45 46 48 46 40 42 42 43 43 41 40 37 36 39 38 40 39 35 40 41 41 39 39 38
43 44 44 44 45 45 45 45 45 45 45 45 45 46 44 44 42 39 38 43 43 42 37 34 41 37 45 45 42 43 43 45 45 42 45 41 43 43 43 38 35 37 39 39 37 40 40 40 38 39 41 40 39 37
42 43 44 44 44 44 44 43 43 44 44 45 45 44 43 41 39 35 34 40 43 43 37 33 33 42 47 45 45 45 44 44 44 43 45 43 44 41 43 38 34 38 39 40 39 39 38 37 37 37 38 37 37 35
42 42 43 43 43 43 43 44 44 44 44 43 42 42 40 41 40 39 46 44 41 39 39 32 33 39 47 43 43 48 45 46 46 44 45 44 45 45 41 37 35 38 38 39 38 38 38 37 36 35 35 34 33 33
42 42 42 42 43 43 43 43 43 43 43 42 42 41 41 37 36 42 43 42 45 40 35 33 33 33 44 42 43 43 44 39 44 43 44 44 43 40 36 37 39 39 39 38 36 36 36 36 34 34 35 35 34 33
42 42 42 42 41 42 41 41 42 42 42 42 40 37 34 38 46 43 40 39 39 40 39 35 37 34 41 41 39 41 43 39 35 39 44 42 39 39 39 40 40 40 38 37 37 35 35 35 34 34 34 34 33 32
42 43 42 42 42 42 42 42 42 42 41 39 36 36 41 45 43 39 34 35 35 33 37 36 37 38 43 39 37 40 37 38 35 38 38 38 39 39 40 39 39 38 38 38 38 36 35 35 35 33 33 33 31 30
42 42 42 42 42 42 42 42 41 39 39 40 41 43 41 37 35 33 33 33 33 32 37 37 39 40 41 43 38 38 35 35 33 37 34 33 35 37 39 39 38 38 37 37 37 36 34 33 33 32 32 31 30 30
42 42 42 42 43 42 43 42 42 44 44 44 39 36 36 35 31 32 28 33 33 37 38 39 36 41 42 40 36 37 33 35 36 33 32 32 35 36 37 36 35 34 34 33 33 32 32 31 31 30 29 30 30 28
42 43 43 43 43 42 44 43 43 42 42 37 35 30 33 32 33 34 34 36 37 38 37 39 37 41 40 37 37 34 35 36 33 32 28 33 33 34 35 33 32 31 31 31 30 29 29 28 29 30 30 30 29 27
43 44 44 43 43 43 42 42 42 42 38 33 35 29 31 33 33 33 34 36 35 39 38 39 38 38 35 34 35 35 33 30 30 29 31 33 34 33 32 31 30 29 29 28 28 28 29 29 27 28 28 28 26 26
42 43 43 42 42 42 42 42 41 40 36 32 28 29 28 29 27 29 30 32 34 35 36 36 33 33 32 34 32 30 29 26 28 30 32 32 31 30 29 29 29 29 29 29 30 28 28 26 25 24 24 23 24 23
43 42 42 42 42 41 41 41 39 35 32 30 27 28 27 26 25 26 28 28 32 34 32 35 31 29 34 28 25 26 25 27 30 30 32 32 31 30 30 30 30 30 29 28 27 27 25 22 21 18 16 16 17 18
42 43 43 42 42 40 38 37 35 33 26 26 24 26 26 25 23 24 26 29 32 30 29 25 28 23 21 21 21 24 26 28 30 30 30 30 30 31 30 28 28 27 27 27 26 25 24 22 18 17 16 16 16 16
43 43 43 42 41 38 35 34 35 24 24 26 25 25 26 24 25 25 26 28 28 29 26 23 18 16 17 20 21 24 28 28 25 25 26 28 28 28 27 26 26 25 24 24 23 22 21 20 19 19 18 18 17 18
42 41 41 40 39 35 34 34 34 27 25 25 26 23 22 22 23 24 22 23 22 19 16 15 14 17 18 20 23 26 30 29 26 23 23 24 26 25 25 24 23 23 21 21 21 20 18 18 17 18 19 19 19 18
39 39 40 39 37 36 34 33 33 29 28 25 27 24 24 23 21 19 17 16 17 15 13 17 18 19 22 23 25 26 26 26 25 23 21 19 22 21 21 22 21 20 19 18 17 16 17 16 16 17 18 18 18 17
35 35 36 37 35 35 33 34 34 34 31 29 27 24 22 20 19 18 14 13 12 15 18 17 17 19 17 18 20 21 22 21 20 19 20 20 18 17 18 19 17 17 16 16 15 14 13 12 14 14 14 14 12 11
31 32 32 33 30 32 29 32 30 30 27 28 26 21 20 19 19 14 13 12 14 17 19 19 18 18 17 19 18 18 19 17 16 15 15 15 15 15 14 14 15 15 12 10 9 9 8 6 8 10 10 10 10 9
28 25 24 24 25 22 27 25 26 26 26 23 19 17 17 18 16 13 9 11 14 16 16 17 18 16 16 14 12 14 16 15 14 14 14 10 7 7 7 6 7 8 7 6 7 8 7 7 6 6 7 6 6 6
21 19 21 19 22 20 20 19 19 21 20 20 16 16 17 17 12 10 8 11 13 13 15 15 14 15 12 12 12 11 14 12 9 7 8 8 8 7 6 5 5 6 8 9 7 7 6 6 6 5 4 4 2 2
15 17 17 17 18 16 16 15 15 16 16 15 13 14 15 12 7 7 8 12 12 12 13 14 13 11 9 10 8 7 7 7 6 5 5 7 8 9 8 7 5 5 7 8 7 6 4 4 3 2 3 1 -1 1
14 15 16 13 16 14 14 14 13 12 10 10 11 8 8 3 4 7 11 12 11 11 12 14 13 10 7 5 6 7 7 7 6 4 4 4 4 5 7 5 3 4 5 5 5 5 4 3 2 2 1 2 2 1
17 15 11 12 10 10 8 8 7 7 8 8 8 2 1 2 4 10 11 12 13 12 10 9 8 8 7 7 8 7 6 6 5 5 4 3 3 3 3 3 1 1 3 3 5 4 3 2 1 0 -1 -1 -1 -1
15 16 12 3 6 5 4 4 4 6 7 8 6 2 2 5 9 12 12 12 14 13 10 7 7 8 7 6 6 6 8 9 2 -1 -0 1 3 3 3 3 3 3 3 3 1 3 1 1 -1 -2 -4 -2 -2 -1
13 15 9 3 1 3 5 6 6 8 7 8 6 3 3 6 9 12 13 12 10 8 7 6 7 8 7 6 4 3 4 5 5 5 2 1 2 3 3 2 2 2 2 3 1 1 -1 -1 -2 -1 -3 -3 -3 -4
14 15 10 7 5 7 8 9 10 8 8 7 8 5 3 6 8 9 7 8 8 7 7 5 4 5 5 4 5 3 2 3 -1 1 2 3 3 3 2 1 1 2 1 0 -1 -1 -2 -1 -2 -5 -5 -7 -9 -8
13 11 9 5 6 9 10 11 11 9 10 8 7 7 6 7 3 7 7 9 8 7 1 6 6 5 4 3 1 2 -5 2 2 1 -0 2 3 1 1 0 -1 0 -0 -1 -2 -2 -6 -7 -4 -6 -6 -8 -9 -10
11 12 11 9 8 7 10 11 8 7 8 7 6 5 5 5 1 6 4 4 8 9 7 7 7 5 2 1 2 2 -2 2 -5 -3 -2 -2 -4 -3 1 1 0 -2 -5 -3 -3 -5 -8 -10 -7 -8 -8 -10 -10 -10

GFSWCAN_sfc_dewp_069.txt.gz
Dewpoint
45 45 45 45 45 45 45 44 45 45 45 44 45 45 45 45 47 45 44 45 40 35 33 33 32 30 30 29 29 30 34 39 39 37 34 31 35 31 25 28 35 35 35 38 37 37 32 32 30 29 35 35 33 32
44 45 45 45 44 44 44 44 44 45 44 45 45 45 45 45 46 46 43 44 44 41 36 41 35 41 34 31 30 33 35 35 34 34 36 35 41 42 30 28 28 35 36 36 34 34 38 35 33 35 35 37 35 36
45 44 45 45 45 45 46 45 44 44 44 46 45 45 45 46 46 46 44 46 43 41 39 40 39 41 43 42 44 36 38 34 34 36 34 38 37 35 38 33 27 28 29 35 35 33 34 36 36 36 37 37 35 37
45 44 44 45 45 44 44 44 44 44 45 45 45 46 46 46 46 45 43 43 40 37 35 32 36 39 42 45 44 44 40 39 39 37 42 43 41 34 39 30 31 27 28 30 31 30 30 36 39 39 38 39 37 36
44 44 44 45 44 44 45 45 45 45 45 46 46 45 46 45 45 44 43 42 41 32 34 33 39 39 39 45 43 43 44 41 40 42 45 41 32 31 39 39 36 28 32 37 35 34 38 35 41 43 41 40 40 39
44 45 45 45 44 44 44 44 44 44 44 45 46 46 45 45 43 40 38 44 42 42 38 35 39 39 39 41 43 45 44 40 39 39 42 34 30 34 43 35 29 26 30 35 36 39 41 42 39 38 40 41 40 40
44 44 45 45 45 45 45 45 45 45 45 46 46 45 44 43 40 39 36 39 42 40 37 34 35 40 40 38 38 43 44 42 41 43 44 41 37 39 44 37 27 29 32 37 41 40 39 39 39 39 39 39 39 38
44 44 44 44 44 44 45 45 44 44 44 44 43 44 44 44 44 41 42 43 40 36 39 34 34 36 43 38 42 45 43 43 41 41 43 42 44 45 39 34 32 32 35 39 40 40 40 39 38 37 36 36 36 36
43 43 44 44 43 43 44 43 43 43 43 43 43 43 43 43 40 42 43 41 40 36 34 35 33 32 43 43 44 43 43 39 44 43 42 39 40 39 32 32 32 36 37 38 38 37 37 38 36 36 36 36 35 35
42 43 43 43 43 43 43 43 42 42 42 42 41 36 37 42 43 42 39 39 38 38 39 34 38 34 38 39 40 42 44 41 37 41 41 40 39 36 35 40 41 41 40 39 39 38 37 37 37 36 36 37 36 35
42 42 42 42 42 43 43 42 41 41 41 38 37 38 43 43 43 39 35 34 34 33 35 37 36 33 39 37 37 41 38 40 37 39 39 39 37 36 41 41 41 41 40 39 39 39 37 38 37 36 35 35 35 34
42 42 42 42 42 42 42 41 41 40 40 41 41 41 40 38 35 33 32 34 32 29 35 36 35 34 38 45 40 40 37 39 35 38 35 34 34 37 39 39 39 40 39 38 37 36 36 35 35 34 32 30 30 29
43 43 43 42 42 42 41 42 43 42 44 44 35 35 35 34 30 30 28 32 33 38 38 37 34 39 42 41 39 38 36 35 39 34 33 33 35 36 36 34 34 35 35 34 33 32 31 30 30 29 29 30 30 29
42 42 43 43 43 43 42 41 42 42 39 37 36 31 33 32 34 34 34 37 37 39 41 40 39 40 41 38 38 34 36 37 34 32 32 34 34 34 34 34 30 30 30 29 29 30 30 29 30 30 31 31 30 29
43 43 43 43 43 43 43 42 42 42 38 35 34 28 29 32 33 33 35 36 36 41 41 40 40 39 36 36 37 36 33 30 30 30 31 33 34 33 30 30 29 29 29 30 31 30 31 30 28 29 30 29 27 28
43 42 41 43 43 43 43 43 42 40 35 30 28 30 30 32 28 29 31 32 33 36 43 40 36 34 33 35 34 30 32 27 28 30 33 31 30 30 30 30 30 31 30 30 30 29 28 27 26 26 26 26 27 26
42 40 42 42 42 41 41 41 37 32 30 29 28 29 30 30 26 26 28 28 31 36 33 36 32 28 34 29 25 27 25 28 31 31 32 31 30 30 31 31 31 31 30 29 29 27 25 23 22 20 18 18 19 20
40 42 42 42 42 41 39 38 33 29 27 27 24 27 27 26 25 23 25 28 31 30 30 27 28 26 25 24 23 27 28 29 30 31 31 32 32 32 31 29 30 28 28 28 26 24 23 22 19 17 16 16 17 17
42 43 41 41 41 38 35 35 33 24 25 27 27 26 25 25 26 25 27 28 28 27 26 23 19 17 19 21 23 27 30 28 26 27 28 30 30 30 29 29 28 27 26 25 23 22 22 21 21 20 20 20 20 21
41 41 40 40 40 37 34 33 35 28 25 26 27 24 23 23 24 25 25 25 24 21 18 17 16 18 19 22 25 29 29 29 27 24 25 26 28 27 27 26 25 25 23 22 21 21 19 18 18 19 19 19 19 18
40 39 40 40 38 36 35 34 32 31 30 27 28 26 25 25 22 21 20 21 18 18 15 19 20 21 23 25 26 27 27 28 27 24 22 22 25 24 24 24 23 22 21 19 19 18 18 17 17 17 19 19 18 18
36 37 38 39 36 35 34 36 34 34 31 30 29 27 25 21 20 19 18 16 14 17 18 18 19 20 18 20 21 23 23 23 23 22 23 22 20 19 20 20 18 18 17 17 16 15 14 13 14 15 16 16 13 12
33 34 35 35 33 34 30 33 32 31 29 28 27 23 22 22 20 16 16 15 16 19 21 19 19 21 20 20 19 20 21 19 17 17 17 17 17 18 17 16 16 15 12 10 10 11 11 9 11 13 13 13 13 13
30 30 29 28 29 27 32 27 26 25 25 22 19 18 17 19 18 15 12 14 16 18 17 20 21 18 17 16 15 16 17 17 16 16 17 14 11 9 9 10 11 11 10 10 11 11 11 11 9 10 10 9 9 9
23 21 25 21 25 24 23 23 22 21 19 19 17 17 18 19 14 12 11 13 15 15 17 17 17 16 14 14 13 13 16 15 13 11 11 10 10 9 7 7 8 9 11 12 10 10 10 10 9 8 6 5 5 5
17 19 19 20 20 19 19 18 18 18 18 16 16 17 20 16 10 9 10 14 14 15 17 17 15 12 10 12 10 10 9 9 8 7 8 9 11 13 11 9 8 7 10 12 11 9 7 6 5 4 5 4 1 3
16 18 17 15 18 18 19 19 17 16 14 13 15 14 14 8 7 9 12 14 13 15 16 17 15 12 10 8 7 7 7 7 7 5 5 5 6 7 10 8 5 6 7 8 8 8 6 5 4 4 4 5 4 3
17 16 12 15 13 14 12 12 12 11 12 11 13 8 6 7 7 13 13 15 16 14 14 13 12 10 9 9 10 10 9 9 8 8 7 7 7 7 6 6 5 4 6 7 7 6 6 5 4 3 2 2 1 2
18 18 12 6 10 10 9 10 10 9 9 12 12 7 6 7 15 13 14 15 17 16 14 11 11 12 10 10 11 11 12 12 7 3 4 6 7 6 6 7 6 6 8 7 3 4 3 3 1 2 -1 3 3 3
16 19 11 7 6 7 9 10 10 13 11 10 8 6 7 10 12 17 17 16 15 14 13 13 13 13 11 10 8 7 9 9 10 10 7 5 5 6 6 6 6 5 7 6 5 4 -3 3 3 3 1 1 1 0
20 18 12 10 8 11 13 15 14 13 13 12 13 10 8 10 12 12 12 14 13 13 12 9 10 10 9 9 9 7 5 6 4 4 6 6 6 6 5 4 5 6 5 4 3 3 1 2 3 -1 -3 -4 -6 -4
18 15 11 8 10 13 15 16 15 13 13 12 10 11 11 11 8 10 12 15 13 12 8 10 10 8 7 7 7 6 3 5 5 4 3 5 5 4 4 4 4 5 3 2 2 1 -2 -3 -1 -2 -2 -4 -5 -6
17 16 15 13 11 10 14 14 10 10 13 11 10 11 11 11 5 10 10 12 14 12 11 11 11 9 5 5 5 5 4 5 2 3 1 1 -1 1 4 5 4 3 -1 1 1 -0 -4 -4 -3 -4 -4 -5 -6 -6

GFSWCAN_sfc_dewp_075.txt.gz
Dewpoint
43 44 43 44 44 44 45 45 46 46 45 45 45 45 45 45 46 47 45 46 42 38 37 34 35 33 33 32 29 31 31 32 31 28 29 30 27 30 29 31 33 32 31 31 33 31 31 35 33 29 33 36 34 37
43 43 44 44 45 45 45 45 45 46 45 45 45 45 45 45 45 46 42 47 45 42 39 43 41 36 37 36 36 34 30 29 34 33 33 33 29 29 27 25 35 32 37 35 36 33 39 40 35 40 38 38 38 38
43 44 45 45 45 45 45 45 45 45 45 45 45 45 45 45 45 45 42 44 44 41 40 41 38 39 41 39 41 38 37 33 34 38 38 35 29 33 25 28 32 35 39 37 36 36 37 43 40 41 40 39 39 39
44 45 45 45 45 45 44 45 45 45 45 45 46 45 45 45 46 45 41 44 43 38 33 37 42 41 42 42 43 43 42 41 41 38 36 38 34 33 31 33 32 34 36 36 35 33 34 38 37 39 40 42 41 41
45 45 45 45 45 45 45 45 45 45 45 45 46 46 46 45 45 44 43 45 45 41 35 35 40 39 42 42 41 40 41 40 40 37 34 35 37 38 38 35 33 32 32 34 32 34 35 37 40 42 40 43 43 42
45 45 45 45 45 45 44 45 45 45 45 46 45 45 45 45 45 43 38 45 47 47 38 32 39 37 40 40 39 40 40 41 41 38 37 41 42 40 35 31 34 33 32 31 34 39 43 43 40 40 41 41 41 41
45 45 45 45 45 45 45 45 45 45 45 44 45 45 45 44 44 39 36 43 47 47 38 32 32 37 39 38 40 41 41 40 40 39 37 39 39 39 36 29 31 32 31 31 31 41 40 40 40 40 39 38 40 39
45 45 45 45 45 45 44 44 45 45 44 45 45 46 46 45 44 42 44 45 46 41 38 29 28 34 40 36 35 40 38 39 39 37 38 39 40 39 32 31 29 30 32 41 42 41 42 40 38 37 38 38 37 36
44 45 44 44 44 45 45 45 45 46 46 46 46 46 44 43 40 42 45 45 47 40 31 30 26 26 37 36 37 38 38 33 37 31 37 38 37 34 36 35 32 33 31 34 41 40 40 38 37 37 37 37 36 34
44 43 43 43 44 43 43 44 44 44 44 45 44 38 33 40 44 43 42 38 38 37 37 29 33 29 36 34 33 34 35 33 31 33 40 35 34 40 40 41 42 41 41 40 38 38 38 38 37 36 33 32 30 29
43 43 43 43 44 44 44 44 44 45 45 42 37 36 41 44 42 37 32 32 33 29 33 33 33 31 36 32 30 34 32 33 27 34 31 33 33 37 37 37 39 37 37 36 36 39 39 36 34 31 29 29 28 26
43 43 42 42 42 42 42 43 43 42 41 39 39 42 41 38 35 29 28 30 28 27 32 33 33 33 34 36 30 34 33 33 29 38 33 31 32 34 33 33 34 34 33 32 32 32 32 31 30 29 28 27 26 26
43 43 43 42 42 41 41 42 43 43 42 40 38 34 34 31 27 21 21 24 25 29 34 33 31 33 34 36 32 32 30 31 35 33 30 30 32 32 32 31 30 31 31 30 29 29 29 28 28 27 26 26 25 25
42 42 42 43 43 43 43 43 43 43 42 36 33 27 30 25 28 27 30 32 33 34 33 33 33 32 33 30 32 31 33 34 31 28 25 28 29 28 29 29 28 28 28 28 28 28 28 27 27 27 26 26 25 24
42 42 42 42 43 43 43 43 43 41 35 29 27 24 24 29 27 29 29 31 30 31 33 33 33 34 32 31 32 31 31 25 25 23 27 28 29 29 29 29 28 28 28 27 27 26 26 25 25 24 25 25 24 23
42 41 40 42 43 43 42 42 38 37 33 26 24 24 25 24 22 23 24 26 30 29 32 34 34 32 31 31 25 24 24 20 23 27 29 29 28 28 28 28 28 27 26 26 26 25 25 24 23 24 24 24 23 22
42 40 42 43 43 43 41 39 33 28 27 27 22 24 24 22 22 24 25 25 29 28 32 32 27 26 31 24 21 24 21 24 26 27 29 29 28 28 28 28 27 27 26 25 25 24 24 24 24 21 21 21 20 20
40 41 42 42 42 40 37 36 29 26 21 23 21 23 23 23 21 22 24 26 27 29 29 26 28 20 18 19 18 24 25 26 27 27 27 28 28 28 28 26 26 26 25 25 25 25 23 20 18 18 20 19 18 18
40 40 42 41 40 37 31 31 31 22 23 23 22 23 25 24 24 22 23 25 27 24 24 20 14 14 16 20 20 23 25 24 22 24 24 25 26 25 25 25 24 24 24 23 22 22 23 23 21 21 21 19 18 18
42 41 41 41 41 34 31 31 33 26 23 23 25 20 21 20 21 19 18 18 19 18 15 14 14 16 17 20 22 27 26 26 23 21 22 23 24 24 24 24 23 23 22 21 21 20 18 17 17 16 16 15 16 16
40 39 40 41 38 36 33 32 30 29 29 26 27 24 23 21 14 13 14 16 13 15 13 16 16 19 21 21 24 24 24 24 22 21 20 19 22 22 21 21 21 20 18 18 16 16 15 14 13 13 13 13 13 13
36 36 36 38 34 34 33 34 31 32 29 27 27 26 22 19 17 15 14 12 13 14 17 16 17 17 17 17 18 20 21 20 21 20 21 20 17 17 17 17 16 14 14 14 14 13 15 16 14 11 9 9 10 10
36 36 33 32 26 26 26 34 29 29 26 26 27 23 22 20 20 18 13 15 16 20 18 17 17 19 18 18 18 18 19 17 16 16 16 16 16 17 16 16 15 13 11 11 12 12 11 11 11 12 12 10 7 3
32 27 24 24 26 23 24 20 27 25 23 20 18 16 18 21 19 14 10 13 16 18 18 18 17 15 15 14 14 15 16 17 15 15 16 15 13 14 13 12 13 13 12 12 12 11 9 7 6 7 3 1 -1 -1
16 15 18 14 21 22 21 19 18 18 11 15 13 14 17 21 11 9 8 12 14 15 14 15 15 15 12 12 13 13 15 17 15 12 14 14 12 11 9 10 11 13 13 10 8 7 6 4 1 1 -0 -3 -1 -5
13 16 15 20 20 18 18 16 17 16 17 14 16 19 16 8 2 4 10 10 12 14 13 12 11 9 8 10 8 9 12 15 13 8 9 10 13 11 8 7 6 7 11 11 7 3 3 3 3 -2 -5 -4 -7 -8
11 12 17 18 20 21 15 15 15 9 6 9 13 6 7 -2 -0 9 13 15 13 15 16 16 13 11 9 9 9 9 9 8 8 7 7 7 7 8 8 5 4 8 9 7 6 2 -1 -3 -4 -3 -7 -13 -14 -14
14 14 9 12 9 13 5 6 4 4 6 11 11 1 -3 0 3 12 13 15 15 15 15 15 16 16 14 12 11 10 10 10 9 9 8 9 8 7 4 4 5 7 1 1 -2 -2 -3 -7 -10 -12 -12 -14 -14 -15
14 14 9 -0 4 6 8 5 6 10 11 12 6 2 3 12 12 12 14 16 17 15 12 11 12 12 11 10 9 10 9 10 9 5 2 0 -3 2 2 -1 -0 5 -1 -5 4 -3 -7 -11 -12 -13 -12 -11 -10 -7
12 16 5 0 -2 1 6 13 7 5 9 8 9 8 7 8 14 17 18 16 14 13 14 15 15 10 8 5 3 2 4 5 5 3 -0 -4 -3 -2 -5 -4 -7 -7 -7 -8 -6 -6 -1 -6 -1 -8 -13 -13 -16 -18
19 14 6 6 4 5 5 7 10 13 11 9 4 1 1 1 4 9 13 12 12 11 9 9 8 9 6 5 3 -2 -5 -1 -2 0 2 -0 -3 -9 -10 -10 -10 -6 -10 -11 -11 -15 -16 -12 -9 -11 -11 -16 -18 -19
14 7 3 -0 4 8 13 15 11 9 8 2 -1 1 4 6 1 6 8 11 13 8 10 7 6 4 3 1 -2 2 -2 -4 -2 -3 -1 -6 -10 -9 -9 -8 -9 -11 -12 -11 -13 -13 -14 -15 -16 -16 -16 -17 -18 -19
11 10 7 6 4 7 6 11 6 4 8 6 5 4 1 2 -3 2 7 11 13 9 7 4 -2 -4 -4 -5 -6 -3 -7 -11 -8 1 -4 -5 -10 -8 -6 -7 -9 -11 -13 -13 -12 -12 -13 -14 -17 -18 -18 -19 -19 -21

GFSWCAN_sfc_dewp_078.txt.gz
Dewpoint
44 43 43 43 43 44 44 44 44 45 45 45 45 45 45 45 46 45 44 47 42 38 37 33 36 34 33 32 29 31 30 32 31 26 27 25 24 27 30 30 31 33 32 32 33 30 28 38 37 29 32 35 35 36
43 43 43 43 43 44 44 45 45 45 45 45 45 45 45 45 45 45 41 47 46 40 39 39 35 36 35 33 34 33 32 30 33 30 29 29 26 28 29 25 29 29 37 34 33 33 39 39 42 42 40 38 38 40
43 43 43 44 44 45 45 45 45 45 45 45 46 46 45 45 45 45 43 44 44 40 40 40 37 38 39 38 39 35 36 35 35 36 35 32 26 31 26 27 28 36 40 37 36 36 38 38 38 42 38 40 40 40
43 44 44 45 45 45 45 45 45 45 45 45 45 45 45 45 45 45 42 44 43 37 33 36 41 37 39 41 41 41 38 41 42 38 35 32 28 35 29 28 31 31 37 35 34 33 35 36 35 38 40 41 44 43
44 45 45 45 45 45 45 45 45 45 44 45 46 46 45 46 45 44 43 44 44 40 34 34 40 40 38 42 42 43 42 42 40 36 35 32 35 35 35 35 32 32 34 32 30 33 33 34 32 38 40 41 43 41
45 45 45 45 44 44 44 45 45 46 44 45 45 45 46 46 45 42 38 43 45 46 39 32 37 39 40 40 40 40 41 43 42 37 35 39 41 37 31 32 32 32 33 36 33 35 35 39 41 41 41 40 40 40
45 45 45 45 45 45 45 45 45 45 45 45 45 45 45 46 43 39 36 40 44 46 39 33 34 39 42 41 42 41 41 41 41 39 36 37 37 37 33 32 32 33 34 34 33 41 40 40 40 40 39 39 38 35
45 45 45 45 45 45 45 44 45 45 45 45 45 45 45 44 44 41 44 44 45 43 39 32 33 36 40 37 37 40 37 37 38 36 35 34 37 35 33 35 36 37 36 34 40 41 40 39 38 38 37 36 32 30
44 45 45 45 45 45 44 44 44 44 44 44 45 44 43 41 40 42 44 46 47 41 32 26 26 30 38 36 36 36 36 33 35 28 33 34 32 31 35 38 38 41 38 33 40 39 39 38 37 37 35 32 29 27
43 43 44 44 45 45 45 45 45 45 45 44 42 38 33 39 45 45 41 37 38 36 34 26 30 32 34 32 32 32 30 27 29 33 36 29 29 36 39 37 38 37 36 40 38 37 38 37 33 31 30 29 28 26
43 43 42 44 44 44 44 43 44 45 44 40 36 33 42 45 41 37 32 31 33 30 32 31 31 30 34 29 29 30 32 33 27 29 30 30 30 35 37 36 36 36 34 35 37 37 35 33 30 29 27 26 25 24
43 43 43 43 44 44 44 44 45 42 39 38 38 41 40 37 33 27 26 29 27 26 30 29 33 33 33 34 27 29 32 32 25 33 30 27 31 34 33 32 33 33 33 33 33 33 32 31 29 27 26 25 25 24
42 43 43 43 43 43 44 44 44 43 43 41 36 33 32 30 22 17 19 26 27 30 33 32 31 31 33 34 30 30 30 28 35 31 29 27 30 31 31 31 30 31 30 29 28 28 28 27 27 26 25 25 24 23
42 42 42 43 43 43 43 43 44 42 39 34 27 19 20 20 24 24 27 30 30 32 31 29 31 31 32 30 30 29 33 33 30 26 23 26 27 28 29 30 29 28 28 27 26 26 25 24 24 24 25 25 24 22
42 42 42 42 43 43 43 42 41 37 32 26 26 19 22 25 25 26 27 28 28 30 32 29 33 33 31 30 31 31 29 23 22 19 25 27 28 28 27 27 26 26 25 25 24 24 24 23 23 23 24 24 23 22
42 40 40 42 43 43 42 40 36 36 31 25 22 20 22 23 21 23 23 23 27 28 31 32 33 31 30 27 24 22 22 17 19 24 26 27 26 26 25 25 25 25 24 24 24 24 23 22 22 22 22 22 21 21
41 37 42 42 42 41 40 35 31 26 26 23 19 22 19 21 20 22 22 23 27 28 30 31 23 22 27 21 19 22 19 22 25 26 27 26 25 25 25 25 24 24 24 24 23 23 23 24 23 21 19 21 20 20
38 39 42 42 41 38 35 32 26 24 20 22 18 20 19 17 18 20 21 24 25 27 26 23 23 16 13 15 14 22 22 23 25 25 26 26 25 25 25 24 24 24 23 24 24 24 23 22 20 19 19 19 18 17
39 39 41 41 38 33 29 28 26 20 20 21 20 20 20 18 19 20 20 23 24 23 23 18 12 11 13 17 17 21 22 22 20 22 22 24 24 23 23 23 22 22 22 22 21 20 21 22 21 20 18 16 15 15
41 38 40 40 39 31 28 27 29 23 20 21 21 16 17 15 15 15 17 17 17 17 12 10 11 14 15 17 19 23 24 24 21 19 19 20 22 22 22 21 20 21 20 20 19 19 18 16 17 17 16 15 13 12
36 36 40 40 36 35 32 30 26 26 27 23 24 23 19 18 13 13 13 15 12 12 10 14 14 16 18 19 23 22 22 22 20 19 18 16 19 19 18 19 19 18 17 16 14 14 13 12 13 13 13 12 11 10
34 38 35 36 32 33 32 33 29 31 27 26 25 23 17 14 9 12 14 11 11 12 15 15 15 16 15 15 17 19 20 20 20 18 19 18 15 15 14 15 15 13 13 14 14 12 11 11 12 11 10 9 8 7
34 33 29 28 24 25 26 33 28 29 24 25 25 21 18 16 17 15 11 14 15 17 17 16 16 17 16 17 17 17 18 17 15 15 15 15 15 15 15 15 14 12 11 12 12 12 12 11 10 8 8 6 5 2
27 23 19 18 23 18 21 20 25 22 20 20 18 15 18 16 16 11 8 12 14 15 15 15 15 14 14 13 12 14 15 16 14 14 16 14 12 13 14 13 13 13 12 11 9 8 7 6 6 5 3 0 -1 -3
13 12 13 9 15 16 11 9 11 13 7 11 11 13 19 18 9 7 5 9 12 11 12 12 12 12 10 10 11 11 14 14 12 11 13 13 12 11 10 10 11 11 11 8 6 4 2 1 1 -0 -0 -2 -3 -8
9 13 11 12 12 11 13 9 9 7 8 9 9 17 8 1 -3 1 7 9 10 12 11 10 9 8 7 9 8 9 10 14 12 8 8 13 11 9 8 6 6 7 10 8 5 2 -0 -2 -2 -3 -7 -8 -9 -10
5 3 13 15 17 15 6 5 9 2 -1 1 4 -3 -4 -9 -5 6 12 13 12 13 14 14 12 10 8 8 9 10 10 10 8 7 7 7 7 8 7 4 3 5 6 4 2 1 -0 -4 -9 -10 -15 -21 -21 -16
9 9 -1 2 3 8 -5 -4 -3 -3 -1 9 3 -8 -10 -8 -2 8 10 13 13 14 14 14 14 13 12 11 11 9 9 9 8 8 7 7 7 5 3 2 3 6 -1 -2 -5 -7 -8 -8 -10 -16 -18 -17 -18 -24
6 8 5 -5 -3 -1 5 -4 -2 4 8 7 -7 -7 -1 10 6 7 12 13 14 13 10 9 10 11 9 7 6 6 7 8 6 -2 -2 -3 -5 -1 -4 1 -0 -4 -9 -6 2 -6 -8 -11 -12 -14 -16 -14 -14 -15
3 6 -3 -9 -7 -3 -0 2 0 -4 6 4 8 6 6 6 11 17 15 13 9 7 9 9 9 5 2 -1 -1 1 3 1 1 -1 -5 -7 -5 -4 -7 -9 -9 -10 -14 -16 -14 -12 -0 -10 -7 -16 -18 -21 -22 -24
10 2 -2 -3 -3 0 3 -5 1 2 -3 -5 -9 -8 -4 0 6 9 10 10 10 10 8 6 4 5 3 -2 -5 -5 -3 -1 -3 -1 -1 -5 -11 -15 -16 -14 -16 -18 -19 -18 -20 -21 -20 -18 -17 -16 -20 -22 -23 -23
-1 -9 -5 -7 -1 1 6 5 1 -5 -9 -10 -8 -12 -4 -5 -6 1 7 7 9 7 5 3 1 -0 -1 -3 -3 -4 -4 -7 -7 -9 -10 -11 -15 -17 -16 -15 -19 -20 -18 -18 -21 -20 -21 -22 -24 -24 -24 -23 -25 -26
-2 -5 -10 -6 -3 -3 -1 3 -3 0 -2 -4 -4 -5 -7 -4 -8 -1 4 8 4 4 3 -2 -2 -6 -8 -9 -10 -15 -14 -17 -14 -2 -9 -10 -13 -10 -18 -19 -21 -21 -18 -20 -19 -21 -19 -19 -23 -23 -25 -25 -26 -28

GFSWCAN_sfc_dewp_081.txt.gz
Dewpoint
44 44 44 44 43 43 43 44 43 44 44 45 44 45 45 45 47 46 43 45 42 37 38 34 34 33 33 31 29 31 31 30 31 27 27 27 22 25 25 28 30 30 30 30 32 30 26 38 39 32 35 35 35 34
43 43 43 43 43 44 43 43 43 44 44 44 45 45 45 45 45 47 42 45 45 40 39 40 36 35 34 33 33 33 31 31 32 29 28 27 24 24 25 22 30 29 32 32 34 34 38 40 39 43 42 40 39 40
44 44 43 43 43 43 43 44 44 44 45 45 45 45 45 45 45 44 43 44 44 39 39 39 37 37 36 35 37 34 35 34 35 35 32 31 24 29 23 27 27 31 37 35 35 35 36 38 40 40 42 40 39 41
43 43 43 44 44 45 45 45 45 45 45 45 45 46 45 45 45 45 42 44 42 39 33 36 38 36 37 37 39 40 37 42 41 40 36 31 28 32 27 27 29 30 38 36 35 34 35 35 37 38 38 42 41 42
44 44 44 44 45 45 45 45 45 45 45 45 45 46 46 46 46 45 43 44 43 39 33 34 38 37 37 39 40 41 40 40 38 35 33 32 34 34 33 33 31 34 33 33 31 34 33 32 32 37 37 40 42 42
45 45 45 45 45 45 44 45 45 45 45 45 45 45 46 46 45 44 38 43 44 43 39 32 38 37 38 39 39 41 42 42 40 37 33 38 40 36 26 28 28 30 32 34 34 35 35 35 39 41 40 40 40 40
45 45 45 45 45 45 45 45 45 45 45 45 45 45 45 45 45 38 35 40 44 45 38 33 31 38 38 38 38 40 41 41 40 38 34 35 38 39 29 28 32 33 33 36 37 36 38 40 38 41 39 35 34 35
45 45 45 45 45 45 45 45 45 45 45 45 45 45 45 45 43 41 42 44 43 41 38 31 33 35 40 38 36 40 38 39 39 38 36 34 37 35 29 32 33 36 40 39 39 38 37 40 39 38 35 33 29 26
45 45 44 44 44 43 43 45 45 45 45 45 45 45 43 42 40 42 44 43 46 40 33 29 30 30 39 37 38 38 38 33 36 32 33 34 31 30 33 34 37 39 38 38 37 38 39 38 37 34 32 30 27 24
44 45 45 44 45 44 44 44 45 45 44 44 41 37 32 41 44 44 40 37 38 38 36 31 32 32 36 34 33 34 32 31 30 32 35 27 28 31 35 39 38 37 35 36 37 36 36 35 34 31 29 27 25 23
44 44 45 44 44 44 43 42 43 43 43 40 35 34 42 44 40 37 31 32 33 30 32 30 31 32 33 30 32 31 31 31 26 27 29 28 28 34 36 36 36 35 34 34 34 35 33 32 28 26 25 25 24 23
44 44 45 44 44 44 44 44 43 40 39 39 39 42 41 36 33 30 29 30 26 26 29 29 27 29 33 33 31 32 31 31 27 29 27 26 31 32 32 31 32 32 33 32 31 30 29 28 27 26 25 24 23 23
43 43 44 44 43 43 44 44 44 43 43 41 38 33 33 27 20 20 21 27 27 31 32 31 29 32 33 33 31 32 30 28 32 31 29 26 29 29 30 30 29 29 29 29 28 27 27 26 26 25 23 23 23 22
42 42 43 43 43 43 42 41 42 40 37 31 26 18 16 12 20 22 24 28 28 31 30 31 31 31 32 29 30 28 29 32 28 26 21 24 26 28 28 29 27 27 27 26 25 25 25 24 23 23 23 22 22 21
42 42 42 42 43 42 42 40 39 33 29 24 23 17 19 24 24 25 26 27 27 30 32 32 32 32 30 28 30 30 27 18 20 17 20 26 27 27 26 26 25 25 24 24 24 23 23 22 22 22 23 23 21 20
41 40 40 42 42 40 40 35 33 33 28 23 19 18 20 20 18 20 21 22 26 27 31 33 31 31 27 24 22 18 18 14 19 22 25 25 24 24 23 24 24 24 24 23 23 22 22 20 20 20 21 20 20 20
40 37 41 43 42 38 38 31 27 25 24 21 18 20 19 19 17 18 20 21 25 27 28 29 22 20 27 20 18 21 14 20 23 23 25 24 23 23 23 24 24 23 22 22 22 22 22 22 21 19 17 18 18 17
37 38 41 41 40 34 33 29 25 22 19 21 17 18 17 18 16 17 19 22 24 27 25 20 21 14 13 13 13 19 21 22 23 23 23 24 24 24 24 23 23 23 23 23 22 22 21 20 18 17 17 18 16 16
38 38 41 40 36 31 27 27 25 18 18 20 20 19 18 15 17 18 19 22 22 22 21 16 11 9 10 15 16 20 21 22 19 20 21 22 22 22 22 22 22 21 21 21 21 20 20 20 19 18 17 16 13 13
39 38 41 40 36 29 26 26 27 21 16 18 19 15 15 14 15 15 15 17 17 15 11 9 9 11 12 15 18 18 23 23 19 17 16 18 20 20 20 20 19 20 19 19 18 18 17 16 16 16 15 13 11 10
35 36 39 38 34 33 30 25 24 24 23 20 21 21 17 17 12 11 12 14 10 11 9 12 13 15 18 18 21 21 20 20 19 17 16 14 17 17 17 18 18 17 15 15 13 13 13 12 13 12 11 9 9 9
33 37 33 33 30 31 30 31 27 29 24 22 23 21 14 8 6 11 13 9 10 11 13 13 14 15 14 14 16 18 19 18 18 17 18 17 14 13 13 15 14 13 14 13 13 11 11 11 11 9 8 7 7 6
32 31 28 27 23 23 25 33 26 27 23 20 22 17 14 12 14 14 8 12 13 16 16 16 15 15 15 16 16 16 17 16 14 14 14 14 14 14 14 14 14 12 11 12 13 11 10 9 8 7 5 3 2 -1
25 19 16 16 20 14 20 18 23 20 19 19 19 16 15 15 13 10 6 9 12 13 12 13 14 13 13 12 10 11 14 15 13 13 14 13 11 11 12 12 12 12 11 10 9 8 8 6 5 3 0 -3 -4 -5
12 11 11 9 14 12 9 7 9 12 7 11 9 12 13 15 7 5 3 7 10 9 10 11 10 10 9 9 10 11 13 13 12 10 13 13 11 11 10 9 10 10 10 8 5 4 2 2 1 -0 -1 -4 -5 -10
5 7 6 5 8 7 9 1 2 2 4 3 5 10 3 -1 -5 -3 5 5 5 9 5 7 8 7 6 8 7 7 9 13 12 7 8 12 12 10 8 7 6 7 9 7 4 2 1 1 -0 -2 -6 -6 -7 -11
1 -1 11 10 13 10 0 1 4 -2 -6 -4 -2 -5 -8 -12 -11 2 8 8 9 9 12 12 10 8 7 7 8 9 9 9 8 7 8 7 7 7 7 5 4 5 7 5 3 1 -2 -4 -6 -7 -12 -19 -19 -16
6 6 -4 -3 -1 4 -10 -8 -8 -8 -4 7 -3 -12 -15 -13 -4 5 6 10 10 12 12 11 11 10 9 10 10 9 8 7 7 6 5 5 5 4 4 3 4 5 -3 -5 -5 -5 -7 -10 -13 -18 -17 -18 -22 -28
-0 1 0 -10 -7 -1 1 -9 -6 1 7 3 -13 -11 -1 7 5 5 10 12 12 11 8 7 7 7 7 6 5 5 4 4 -0 -3 -4 -6 -6 -2 -2 -2 -4 -6 -6 -3 2 -6 -10 -13 -15 -15 -19 -20 -23 -28
-1 3 -5 -12 -7 -2 -4 -2 -3 -7 4 2 7 6 5 4 10 12 11 10 7 3 4 5 2 0 -2 -2 -3 0 1 -4 -2 -3 -6 -8 -5 -5 -10 -11 -11 -16 -19 -14 -16 -11 -1 -13 -12 -20 -21 -23 -26 -25
5 -2 -6 -5 -3 0 -3 -11 -5 -2 -8 -8 -13 -10 -4 -0 4 7 7 5 7 6 4 -0 -0 -2 -4 -7 -8 -9 -7 -3 -5 -4 -3 -5 -9 -14 -16 -18 -22 -24 -22 -22 -21 -23 -24 -24 -25 -24 -23 -23 -26 -27
-8 -14 -7 -7 -2 0 0 -3 -13 -11 -16 -12 -11 -16 -11 -11 -12 -5 5 2 4 0 0 -2 -2 -3 -8 -9 -8 -9 -5 -10 -13 -11 -13 -16 -20 -21 -19 -20 -25 -23 -20 -22 -25 -25 -25 -23 -25 -24 -24 -25 -27 -28
-10 -12 -13 -9 -7 -6 -3 0 -2 -4 -5 -9 -5 -9 -9 -9 -11 -6 1 5 1 0 -1 -3 -6 -9 -10 -11 -15 -20 -20 -22 -19 -6 -12 -12 -15 -14 -23 -26 -26 -24 -19 -23 -24 -24 -23 -23 -26 -27 -29 -29 -29 -30

GFSWCAN_sfc_dewp_084.txt.gz
Dewpoint
43 43 44 44 43 44 44 44 43 43 44 44 44 44 44 45 46 45 42 44 40 36 36 34 33 31 31 32 31 33 34 33 32 29 28 28 25 26 24 24 27 27 29 29 32 29 26 38 39 37 38 41 40 40
43 44 44 43 44 44 44 44 44 44 44 44 44 45 45 45 45 47 40 45 44 39 38 39 36 34 33 32 34 37 33 32 33 29 27 27 24 24 25 22 25 25 30 28 32 32 37 38 38 37 41 44 40 41
43 43 43 43 43 43 43 44 44 44 44 43 44 44 45 45 45 44 43 44 42 38 37 38 38 38 37 36 37 33 34 34 36 34 35 31 24 27 22 24 24 27 34 32 34 30 34 34 34 37 39 41 44 39
43 44 43 42 43 43 43 43 43 44 44 44 44 44 44 45 45 44 42 44 42 37 32 36 38 39 38 37 37 36 35 40 39 40 36 35 29 31 25 26 27 28 30 29 31 34 35 35 37 37 38 40 41 42
43 43 44 44 45 45 44 44 44 45 45 45 45 45 45 45 45 45 43 44 45 39 33 35 38 38 37 37 37 38 37 38 38 37 35 34 35 36 31 31 28 30 27 29 27 30 34 32 34 37 38 38 40 43
44 44 44 45 45 45 45 45 45 45 45 46 45 45 45 45 45 43 38 43 44 44 37 31 37 37 37 37 37 38 38 39 39 36 36 36 37 34 31 27 30 32 33 34 32 34 35 35 36 39 39 36 38 37
45 45 45 45 45 45 45 45 45 45 45 45 45 45 45 45 45 38 35 40 43 43 37 32 33 37 37 37 37 38 40 40 39 39 37 35 35 38 32 30 31 32 32 33 35 38 36 33 37 38 35 36 35 30
45 45 45 44 44 44 44 45 45 45 45 44 44 45 45 46 44 40 43 43 42 39 39 30 32 34 37 36 35 38 38 39 40 38 38 33 34 34 32 31 32 32 32 36 39 39 38 38 38 34 33 30 27 25
45 45 44 43 44 44 44 45 45 45 45 45 44 45 45 40 36 41 44 43 44 39 33 30 31 30 39 37 38 37 38 32 38 34 35 34 30 30 33 32 32 33 37 35 36 37 38 38 35 32 30 28 26 24
45 44 43 43 43 43 44 45 45 45 45 45 42 35 31 40 45 43 41 38 37 38 35 28 33 32 36 35 34 34 34 32 30 33 34 29 28 31 34 35 36 37 36 35 34 35 35 35 32 29 26 25 24 23
44 44 44 44 44 44 44 44 43 43 43 39 36 35 42 43 40 37 31 31 32 30 32 32 33 33 35 32 32 32 32 31 25 26 29 28 27 32 33 34 34 34 34 34 33 33 34 34 27 25 24 24 24 22
44 44 43 43 44 44 43 43 42 40 40 40 40 42 40 37 33 30 29 30 30 27 32 29 31 30 33 36 33 33 28 29 23 29 29 25 30 30 31 30 31 31 32 31 29 28 28 27 26 25 24 23 22 22
43 43 43 42 42 42 44 44 44 43 43 39 34 29 29 25 25 24 19 26 27 31 32 31 30 32 32 33 31 31 29 26 32 29 26 26 26 28 29 30 29 29 29 28 27 26 26 25 25 24 22 22 22 21
42 42 42 42 42 41 40 42 43 41 36 29 23 15 17 10 18 20 22 26 28 30 28 30 30 29 30 29 30 26 26 32 28 25 19 22 26 26 26 27 26 25 25 25 25 25 24 23 23 23 22 21 20 18
41 42 42 42 40 41 39 39 35 31 27 22 20 14 17 22 22 23 25 27 26 29 32 31 32 30 30 29 29 29 27 20 17 14 19 23 25 24 24 24 24 24 23 23 23 22 22 22 21 20 21 20 18 18
41 40 40 42 39 39 36 33 32 31 26 20 16 16 18 18 16 18 19 21 25 25 31 33 31 28 24 23 20 18 15 11 16 21 23 24 23 23 23 23 23 23 22 22 22 22 21 20 19 19 20 19 18 17
40 36 41 42 39 35 34 30 28 24 22 18 16 18 18 16 14 16 18 19 24 26 25 26 20 19 24 19 15 18 10 18 21 22 23 23 22 22 23 23 22 22 21 21 21 20 20 20 19 17 15 16 16 15
36 37 41 40 38 33 31 28 24 21 17 19 15 16 16 16 15 16 18 21 23 25 22 18 20 14 11 12 12 18 20 20 20 20 21 22 23 23 24 22 22 22 21 21 21 20 19 18 16 15 15 16 14 14
37 38 41 39 34 30 27 26 24 16 17 18 18 19 18 17 18 19 19 21 22 23 20 16 10 8 9 14 14 18 20 20 18 18 19 20 21 20 20 20 20 20 20 20 19 18 18 18 17 16 15 14 11 11
38 38 40 39 34 27 25 25 26 20 16 17 18 13 14 14 16 16 16 18 17 15 10 8 8 10 11 14 17 18 22 22 19 16 15 17 19 18 18 18 18 19 18 18 17 16 15 14 15 15 14 12 10 8
34 34 37 35 32 30 29 24 23 21 21 18 19 20 13 15 11 11 11 13 10 10 8 11 12 14 16 17 19 20 19 19 18 18 15 13 16 17 17 17 17 16 15 14 13 12 12 10 11 11 9 9 8 8
31 35 30 30 28 30 29 29 25 26 22 21 21 19 11 4 5 9 12 8 9 11 13 12 12 14 13 13 15 16 17 17 17 16 16 16 13 13 13 15 14 12 12 12 12 10 10 10 9 8 7 6 6 5
29 29 26 24 20 20 23 28 20 25 17 18 19 13 10 9 11 13 5 9 10 13 14 15 15 15 13 14 15 15 16 15 13 13 13 13 13 13 13 13 14 12 10 11 11 9 8 7 6 5 4 4 2 1
23 18 14 15 17 10 20 18 22 19 18 17 16 12 12 12 12 8 4 7 11 12 11 11 14 12 11 11 9 10 13 14 12 12 13 12 10 10 11 11 11 11 11 10 9 8 6 4 3 2 0 -2 -3 -4
10 7 9 5 11 9 5 3 6 11 9 12 10 8 6 12 3 1 0 5 7 6 7 9 9 9 7 8 8 10 13 12 10 9 12 13 11 11 9 9 9 10 10 7 5 4 3 2 0 -1 -2 -3 -4 -7
2 3 4 4 4 3 5 -5 -3 -2 -1 -0 2 4 1 -3 -6 -3 3 6 4 7 5 6 7 6 5 7 6 6 7 12 11 7 7 10 11 10 8 7 6 6 8 7 5 3 2 1 -1 -3 -5 -7 -9 -12
-2 -5 8 7 10 6 -3 -2 2 -5 -9 -9 -8 -12 -12 -16 -13 1 8 9 8 9 11 11 10 8 6 6 7 8 8 8 7 6 7 7 7 7 7 6 4 5 7 6 5 3 0 -2 -5 -7 -12 -15 -17 -16
2 3 -6 -6 -3 1 -13 -10 -10 -10 -7 5 -5 -14 -18 -16 -5 3 7 10 9 11 10 10 9 8 8 8 8 7 6 7 6 6 5 4 3 2 2 2 2 5 -1 -2 -2 -3 -5 -7 -9 -12 -15 -17 -23 -31
-3 -2 -1 -10 -6 -3 -2 -10 -7 2 5 -2 -15 -12 -3 5 2 6 9 10 11 9 6 5 4 5 6 5 3 2 0 -1 -2 -4 -3 -4 -5 -2 -2 -3 -5 -6 -5 -1 4 -3 -7 -10 -12 -14 -21 -21 -27 -34
-4 0 -7 -13 -8 -6 -8 -5 -7 -8 1 2 6 5 3 2 6 9 8 7 2 -2 -4 -6 -7 -7 -9 -8 -7 -3 -2 -5 -7 -7 -9 -9 -9 -7 -11 -11 -11 -14 -12 -7 -6 -5 -3 -14 -13 -23 -24 -25 -27 -27
2 -4 -7 -5 -5 -6 -8 -14 -14 -8 -10 -9 -13 -11 -6 -5 1 4 4 2 2 -3 -7 -8 -5 -8 -10 -11 -13 -14 -10 -6 -9 -5 -4 -6 -9 -14 -17 -16 -21 -21 -19 -16 -20 -24 -26 -26 -28 -26 -24 -24 -28 -29
-11 -17 -9 -7 -4 -3 -4 -14 -17 -16 -20 -14 -14 -20 -13 -13 -14 -5 1 -1 -2 -2 -3 -8 -9 -10 -14 -15 -16 -17 -12 -17 -18 -18 -16 -18 -20 -20 -20 -23 -28 -26 -22 -24 -26 -27 -26 -26 -27 -26 -25 -26 -29 -30
-14 -16 -15 -11 -9 -9 -7 -4 -5 -9 -11 -12 -11 -16 -18 -15 -13 -6 -1 -0 -3 -4 -7 -10 -13 -15 -15 -17 -18 -22 -22 -25 -18 -7 -12 -13 -17 -17 -26 -29 -28 -25 -20 -26 -28 -27 -26 -24 -28 -28 -30 -31 -31 -32

GFSWCAN_sfc_dewp_087.txt.gz
Dewpoint
41 41 42 42 42 43 44 44 44 44 43 44 43 43 44 45 45 44 41 43 37 32 32 35 33 30 31 33 32 36 35 35 33 30 29 27 26 26 23 23 30 27 29 28 27 25 24 37 38 33 39 40 40 40
41 42 42 43 43 44 44 43 44 44 43 43 42 41 43 44 45 45 40 44 44 37 36 38 37 35 33 35 35 37 34 35 34 33 30 30 28 28 26 21 25 25 31 30 31 31 39 37 38 42 42 41 40 40
42 42 42 43 43 43 44 44 44 44 44 43 43 44 43 43 44 44 42 43 41 37 36 38 36 39 39 36 38 34 37 38 38 37 34 31 27 28 27 25 25 26 32 32 32 31 33 36 36 37 38 39 38 39
42 42 43 43 43 43 43 43 43 43 44 44 44 44 44 44 43 44 41 43 41 36 31 35 38 38 40 39 38 37 36 40 41 40 36 35 32 32 28 27 27 25 30 29 29 31 33 33 37 36 34 36 40 40
42 42 42 42 42 43 43 44 43 43 44 44 44 44 44 44 44 44 43 44 43 37 33 33 39 37 38 38 38 38 37 37 38 37 36 34 36 36 36 33 31 29 28 29 28 30 31 29 34 37 36 40 39 42
44 44 44 44 44 45 45 45 45 44 43 44 45 44 44 44 44 43 37 42 45 44 37 32 39 37 38 38 37 38 38 38 39 37 36 38 38 37 33 30 32 32 32 32 30 34 36 36 37 38 40 37 36 37
45 45 45 45 45 45 45 45 45 45 45 45 45 45 45 44 43 38 36 41 42 43 35 31 33 38 38 38 38 37 39 39 38 37 36 36 36 39 34 31 31 33 33 33 34 35 35 34 34 39 37 33 31 30
44 44 44 44 44 44 45 45 45 45 45 45 45 45 45 45 44 40 43 43 42 39 38 31 31 35 38 36 35 39 37 38 38 37 37 36 36 36 32 33 32 31 31 32 32 37 36 38 38 36 33 31 29 26
44 44 44 44 44 45 44 44 45 44 44 45 45 46 44 40 35 40 44 43 45 38 32 32 28 29 38 36 38 38 39 32 38 34 35 36 34 30 33 34 32 34 34 35 37 37 37 37 39 34 31 30 28 26
43 44 44 44 43 43 44 45 45 45 45 44 43 35 32 37 45 43 41 37 37 38 36 31 35 32 37 35 34 34 35 33 31 32 36 34 31 33 35 36 35 34 35 35 36 36 37 37 34 30 28 27 26 25
44 44 43 43 43 44 43 45 45 45 43 39 33 34 42 43 40 36 31 32 32 28 31 31 33 32 36 33 32 34 32 33 28 29 32 30 28 31 32 32 32 32 33 34 33 32 32 33 33 27 25 25 25 24
43 42 41 42 44 44 43 43 43 41 41 41 40 41 40 36 33 31 28 31 28 27 32 31 33 35 34 37 34 32 31 31 24 31 30 24 28 28 28 30 30 30 31 31 29 28 27 27 27 26 25 24 24 22
42 42 42 42 41 42 43 43 42 42 40 37 33 30 30 26 24 20 22 27 28 31 32 33 31 34 33 36 33 32 29 27 32 30 26 24 25 26 27 27 28 27 28 28 27 26 26 25 25 24 23 23 22 20
43 42 42 41 41 41 44 40 37 37 33 27 24 16 16 11 18 18 21 26 28 31 31 32 31 30 32 31 32 28 30 32 27 26 21 22 24 25 25 25 24 24 25 25 25 25 24 23 22 23 22 21 19 17
42 42 40 40 40 40 39 37 33 30 25 21 20 13 15 21 20 21 23 26 25 28 33 32 33 32 30 29 29 29 27 21 19 16 20 22 23 23 23 23 23 23 23 23 23 22 21 20 20 19 20 20 18 17
40 40 40 39 38 37 34 32 32 29 25 18 14 14 15 17 15 17 18 20 24 24 30 33 32 25 24 24 20 17 18 13 17 20 22 22 21 22 22 22 22 22 22 21 21 20 20 19 18 17 17 17 16 15
39 36 40 41 34 33 32 29 27 24 21 16 14 17 15 14 13 15 18 18 24 26 25 24 18 18 22 18 14 17 13 16 20 20 21 22 22 22 23 22 22 22 20 20 19 19 18 18 18 15 13 14 14 14
36 37 41 39 36 32 30 28 24 20 15 17 13 16 16 17 15 16 18 21 23 23 20 17 18 12 11 10 10 16 19 19 19 19 19 20 21 22 22 21 22 21 20 20 19 19 18 17 15 13 14 14 13 13
37 39 40 37 33 30 26 25 23 15 16 18 18 18 17 17 18 18 19 21 22 20 18 15 9 7 8 13 13 16 19 20 17 17 18 19 21 20 20 20 20 19 19 19 18 17 17 17 16 15 14 13 10 10
38 38 39 36 32 27 24 24 25 18 15 16 17 15 15 16 17 17 16 18 16 13 9 7 7 10 11 14 16 18 21 22 19 16 15 17 19 18 18 18 18 18 17 17 16 16 14 13 14 14 13 11 9 8
33 34 35 34 30 29 27 24 21 20 20 18 18 17 14 14 13 13 13 15 11 10 7 10 11 14 16 16 17 18 18 19 18 18 15 14 17 17 16 17 17 16 14 14 12 11 11 10 10 11 10 9 9 8
30 33 28 29 28 29 27 27 24 24 21 20 19 16 11 9 9 10 10 8 7 9 12 12 12 12 12 12 14 16 17 16 16 15 15 16 14 14 14 15 14 12 12 12 11 10 10 10 9 9 8 7 6 5
27 27 24 23 18 18 22 28 19 23 14 19 17 12 10 9 12 9 6 7 9 12 13 13 15 14 12 13 14 14 15 14 13 13 13 13 13 14 13 14 14 12 10 10 10 9 7 7 7 7 6 5 4 3
22 16 12 13 15 10 16 12 20 17 15 17 14 10 11 11 10 7 3 6 9 10 9 11 11 11 10 9 9 10 13 14 12 12 13 12 10 10 11 11 11 11 11 10 8 7 6 6 5 4 3 2 1 0
9 5 6 2 8 5 0 1 6 11 8 9 6 4 5 10 3 2 1 5 7 7 7 9 8 8 7 7 8 9 12 12 10 8 11 13 12 11 10 9 9 10 10 9 6 5 4 4 3 3 2 1 -1 -2
-2 -0 1 1 0 1 2 -5 -5 -4 -3 -3 1 0 1 -1 -4 -2 2 5 6 7 7 7 8 6 5 6 5 5 7 11 10 6 6 9 11 11 9 8 7 7 9 9 6 4 3 2 1 -0 -1 -3 -4 -4
-6 -8 6 5 7 3 -5 -3 -0 -4 -8 -9 -7 -10 -9 -14 -11 2 8 8 7 9 10 10 9 7 6 6 6 7 8 7 7 5 6 6 6 6 8 7 5 6 8 8 7 6 3 1 0 -1 -3 -3 -3 -2
1 2 -7 -7 -4 -1 -13 -10 -10 -9 -5 3 -5 -14 -16 -13 -4 5 7 10 10 10 9 9 8 7 6 6 6 7 7 7 7 6 4 4 3 3 3 3 4 5 3 4 4 4 3 1 -1 -2 -2 -2 -6 -10
-5 -3 -2 -12 -8 -5 -4 -10 -5 1 3 -3 -12 -8 -2 4 4 7 10 11 12 9 6 6 5 7 5 3 2 1 1 2 0 -2 -2 -1 0 0 -0 1 1 2 4 4 5 1 -1 -2 -3 -3 -4 -4 -9 -13
-5 -0 -7 -13 -11 -7 -7 -5 -3 -5 0 2 6 4 3 3 6 9 10 9 7 4 1 1 -0 2 -1 0 -2 -1 -1 -3 -3 -1 -2 -2 -1 -1 -3 -2 -2 -2 1 2 0 -1 0 -4 -4 -8 -7 -8 -6 -6
-1 -4 -7 -6 -5 -2 -6 -13 -13 -10 -9 -7 -10 -8 -4 -2 4 4 4 3 3 0 2 0 -1 -4 -2 -3 -3 -2 -2 -3 -5 -3 -2 -3 -3 -4 -5 -7 -9 -6 -4 -4 -5 -5 -7 -7 -7 -7 -6 -8 -12 -11
-11 -16 -9 -9 -5 -3 -4 -14 -15 -12 -14 -7 -10 -15 -12 -9 -10 -2 2 0 2 0 -3 -3 -1 -2 -7 -9 -9 -7 -9 -9 -8 -9 -7 -6 -7 -11 -11 -11 -12 -9 -8 -8 -8 -9 -9 -7 -8 -8 -7 -9 -11 -12
-15 -17 -15 -10 -9 -9 -7 -8 -8 -10 -12 -13 -13 -17 -17 -12 -11 -3 1 -0 0 -2 -3 -4 -6 -8 -9 -9 -9 -12 -16 -13 -11 -5 -12 -12 -15 -12 -12 -12 -11 -9 -8 -9 -10 -10 -10 -10 -10 -11 -12 -13 -13 -15

GFSWCAN_sfc_dewp_090.txt.gz
Dewpoint
39 39 40 40 40 41 42 42 43 44 45 45 45 45 45 45 45 43 41 42 38 33 29 30 30 32 29 29 28 30 34 35 35 31 28 27 25 20 18 20 28 27 28 28 27 27 22 29 34 33 35 36 35 36
40 40 41 41 42 42 43 43 43 45 44 44 43 44 45 45 45 45 39 43 40 36 32 34 31 33 36 32 32 35 34 36 32 33 29 27 27 29 22 20 20 24 27 27 27 26 29 35 32 33 35 36 35 36
41 41 41 42 42 42 43 43 44 43 44 44 44 44 44 44 45 45 41 42 41 36 36 36 34 35 35 37 39 33 35 35 38 39 38 32 29 25 27 23 23 22 23 27 27 25 23 26 30 34 35 35 31 37
41 41 41 42 42 42 43 43 43 44 44 44 44 43 43 43 43 45 41 44 40 38 32 34 38 38 39 38 39 40 36 38 39 40 36 36 33 30 27 25 25 24 24 24 24 24 25 26 26 28 32 34 34 38
42 42 42 43 43 42 42 43 43 43 43 44 44 44 43 43 43 44 43 44 44 37 33 31 33 36 37 39 37 40 40 39 39 36 35 35 35 36 35 34 29 26 25 26 26 27 27 27 28 35 34 35 38 38
43 44 44 45 45 45 43 43 43 43 43 43 44 44 44 43 42 42 36 42 44 43 37 33 39 37 37 38 37 38 39 40 39 37 36 38 38 37 34 31 28 29 29 30 29 29 31 32 34 34 37 37 35 36
44 45 45 45 45 45 45 44 44 45 45 44 44 44 44 43 43 37 37 41 44 43 37 32 33 39 38 37 38 39 39 40 39 37 36 37 35 38 35 29 27 29 30 29 29 30 31 30 29 35 37 34 34 33
44 45 44 44 45 44 45 45 45 46 45 44 44 44 43 43 42 40 44 44 42 39 37 33 33 37 39 36 36 40 38 39 38 36 38 35 35 37 33 29 29 29 28 29 30 33 33 33 36 36 36 34 32 32
44 44 44 44 44 44 44 44 45 45 45 45 44 44 43 41 35 40 44 43 45 40 35 34 31 30 38 36 38 37 39 33 39 35 36 36 32 31 32 30 29 32 35 35 36 36 36 35 36 36 35 33 32 30
43 44 44 44 44 43 44 44 45 45 45 45 42 34 32 37 44 43 41 37 38 39 37 34 36 32 37 36 36 36 37 35 32 34 36 36 32 31 34 35 36 35 34 35 34 34 35 35 36 35 33 32 32 30
43 43 43 44 44 45 45 44 44 45 43 38 34 35 41 44 41 37 32 34 34 31 32 32 34 33 38 35 35 37 34 35 29 32 32 32 29 31 30 31 32 32 32 33 34 34 33 33 35 35 32 30 29 28
42 42 42 44 44 45 45 45 43 43 42 40 41 41 41 37 35 32 30 32 29 26 30 31 34 37 36 39 36 35 33 34 28 34 32 27 27 28 27 27 29 30 30 30 30 30 30 28 30 31 29 29 29 27
43 42 42 43 42 44 43 43 43 42 41 38 35 32 33 28 30 29 24 28 29 34 33 35 34 37 34 36 36 34 32 31 34 31 28 25 25 26 26 27 27 27 27 28 27 27 27 27 27 27 25 24 23 23
41 40 41 44 39 38 37 36 38 37 36 27 27 20 24 20 23 24 27 29 30 34 34 36 34 35 35 35 35 31 33 32 29 27 25 24 25 25 25 26 26 25 25 25 25 25 24 23 22 23 23 22 20 18
41 40 39 39 40 38 36 34 30 27 24 23 22 18 19 22 23 24 26 27 27 29 35 35 35 33 33 32 33 32 30 27 23 21 23 23 23 23 23 24 24 24 23 23 23 22 21 21 20 19 20 20 18 17
42 40 36 38 37 35 33 31 29 26 22 18 17 18 21 23 21 21 21 22 24 27 33 36 34 31 28 30 25 22 21 19 20 22 22 22 22 22 22 23 23 23 24 23 22 21 20 19 18 17 18 17 17 17
40 38 39 36 34 31 32 27 24 20 19 16 17 20 20 19 18 20 22 21 25 28 30 30 26 23 27 21 16 18 18 20 21 21 22 22 21 22 23 22 22 22 22 21 20 20 19 19 18 16 14 15 15 14
38 38 40 36 33 30 27 25 21 18 16 18 16 18 19 19 19 20 22 24 27 27 23 20 20 15 15 12 14 18 21 22 21 21 21 22 22 23 23 21 21 21 21 20 20 19 19 18 16 15 15 15 14 13
39 38 39 39 34 30 24 24 20 16 18 19 19 20 20 20 21 21 23 23 23 21 20 18 13 11 12 15 15 18 20 21 20 20 20 21 22 21 21 21 21 20 20 20 20 18 18 18 16 15 14 13 11 10
37 38 37 35 34 27 23 24 23 18 17 18 18 17 17 18 19 20 19 19 16 16 12 10 10 12 13 15 17 19 22 24 22 19 18 19 21 21 20 20 18 19 18 18 17 16 15 14 15 15 14 13 11 10
36 34 36 35 31 29 26 24 22 21 20 18 18 15 16 16 16 15 14 15 12 11 9 12 13 15 17 17 18 20 20 20 20 20 18 17 19 19 19 20 20 19 17 16 14 14 14 13 13 13 13 12 12 10
31 32 34 33 31 29 27 28 24 25 21 21 19 16 15 14 13 13 10 9 8 10 12 13 14 14 14 14 16 18 19 19 19 18 18 18 18 17 17 18 17 16 15 16 14 13 13 12 13 12 11 10 9 8
27 28 28 27 25 25 24 29 23 23 19 20 18 14 13 13 12 8 9 8 10 14 14 14 16 16 14 15 15 16 17 17 16 16 17 16 17 17 17 17 17 15 13 12 13 12 11 10 10 11 10 9 8 7
20 19 18 19 21 19 21 19 19 18 19 16 13 11 10 12 11 9 5 8 11 12 12 13 14 13 13 12 12 12 15 17 15 15 17 15 13 14 14 14 14 14 14 13 12 12 11 10 9 9 8 7 6 6
16 10 14 12 15 14 13 12 13 14 12 13 9 9 9 11 7 5 3 7 10 11 11 12 11 11 11 12 12 12 14 14 13 11 14 16 15 14 12 12 12 13 15 13 11 11 10 10 9 8 7 6 4 3
6 8 9 10 10 10 10 9 8 9 9 8 7 7 11 8 3 3 4 9 10 11 12 12 12 11 9 9 9 9 10 14 13 10 10 12 14 15 13 12 11 10 13 12 11 9 8 8 7 6 5 3 1 2
5 6 7 5 8 7 8 8 7 7 4 4 6 4 5 0 1 5 9 9 9 12 12 12 11 10 9 9 9 10 11 11 10 9 10 9 10 10 12 11 9 10 13 11 10 9 7 6 5 4 4 4 3 3
7 7 2 4 4 4 2 2 2 3 4 5 4 -0 -1 -0 2 8 9 12 13 12 11 11 9 8 7 8 9 10 9 9 9 9 9 8 8 8 9 9 9 8 10 11 11 10 8 7 6 5 4 4 2 4
7 7 4 -3 2 3 2 3 3 4 5 6 4 2 3 5 10 11 12 13 14 13 11 10 11 11 10 9 9 8 8 9 1 2 2 4 5 6 7 9 9 10 10 9 8 8 7 7 7 6 5 5 3 2
6 8 3 0 -1 2 5 6 6 7 6 8 6 4 5 8 11 13 14 13 12 10 9 10 10 11 7 7 5 5 6 6 6 7 5 4 4 5 6 7 7 8 9 8 7 6 5 4 4 2 2 2 3 3
8 9 5 4 3 7 7 8 8 8 9 8 9 7 5 8 10 10 9 10 11 11 11 9 7 6 7 6 7 5 3 5 3 4 5 6 5 6 5 4 6 7 7 6 5 5 4 4 4 3 2 -0 -3 -0
7 5 4 2 5 9 10 10 10 9 10 9 8 8 6 8 4 8 8 9 11 9 4 5 5 3 3 3 3 3 1 3 2 2 3 4 4 2 3 3 4 5 5 4 4 4 -0 -1 3 1 2 -5 -4 -4
6 7 7 7 6 7 8 9 6 6 7 7 5 4 4 5 2 6 8 7 9 7 6 5 5 4 2 1 2 0 -0 0 -3 -1 -4 -5 -6 -2 3 3 4 3 1 2 2 1 -3 -9 -2 -4 -5 -6 -6 -7

GFSWCAN_sfc_dewp_093.txt.gz
Dewpoint
38 39 39 40 40 40 41 41 41 42 42 43 43 43 44 44 44 44 42 44 39 32 28 27 26 24 21 20 25 28 34 34 36 32 27 25 26 24 19 20 26 28 29 28 27 26 23 24 30 28 33 33 33 35
38 39 39 39 40 41 41 41 42 42 43 43 44 45 45 45 45 44 39 43 44 37 30 32 30 28 30 30 31 35 35 35 33 31 28 28 30 29 22 19 27 28 25 27 26 26 29 31 32 32 31 32 33 35
39 39 40 40 41 41 42 42 42 42 43 43 44 45 45 45 45 44 41 43 41 37 36 34 31 34 31 32 37 36 35 34 37 39 38 37 31 27 26 23 23 21 25 26 26 25 25 27 25 26 25 30 31 32
40 41 41 41 41 42 42 42 42 43 43 44 43 43 44 44 45 45 42 43 40 38 31 30 33 32 32 33 32 33 35 34 38 40 38 36 34 29 28 26 27 23 24 25 24 24 24 25 25 26 26 32 32 36
41 41 42 42 42 43 42 42 43 43 43 44 44 43 44 44 44 45 44 43 43 35 32 28 30 33 35 34 33 36 35 35 38 36 34 35 34 33 34 33 30 25 25 25 26 26 29 27 28 31 31 32 35 35
42 43 43 44 44 44 44 44 43 43 43 44 44 44 44 44 44 41 34 42 43 42 37 32 39 36 35 36 36 36 38 39 39 36 36 37 38 36 34 29 27 26 27 28 27 27 28 31 31 31 31 35 35 35
44 44 45 45 45 45 45 45 44 43 43 44 44 44 44 43 43 37 38 40 44 43 36 33 29 38 37 37 37 39 39 40 38 37 36 37 38 38 36 29 26 26 27 27 28 28 28 28 30 31 32 36 35 35
44 44 44 45 45 45 45 45 44 43 43 44 44 44 43 43 42 39 43 43 44 39 37 34 32 35 40 37 36 40 38 38 37 35 38 35 33 35 32 27 27 27 26 27 29 35 35 34 34 33 35 35 34 33
43 44 44 44 44 44 45 45 44 44 45 45 44 43 43 41 37 39 44 44 44 40 35 34 30 30 39 37 38 38 39 33 38 35 35 36 33 30 28 27 27 36 35 35 35 34 34 34 35 35 35 34 34 33
43 44 43 44 44 44 44 44 45 45 45 44 41 33 32 37 44 44 41 37 37 39 38 34 36 35 37 37 35 37 37 35 32 34 35 33 29 30 31 35 35 34 34 34 34 33 34 33 34 34 35 35 34 33
42 43 44 44 45 44 44 44 45 45 42 38 34 35 40 43 40 36 33 33 35 33 34 32 34 35 40 35 35 37 34 34 29 32 33 30 26 29 30 31 31 32 31 31 32 32 32 33 33 33 34 36 33 32
44 43 44 45 44 44 44 45 43 42 40 40 41 42 41 38 35 32 32 34 29 26 32 32 34 35 39 40 36 36 32 35 28 35 32 27 29 28 27 28 28 28 28 28 29 29 30 29 30 32 32 31 30 28
43 42 43 44 44 45 45 43 43 43 42 40 37 35 36 33 30 30 25 27 29 34 34 37 34 37 38 38 36 36 30 31 36 33 29 27 26 26 26 26 27 27 27 27 26 26 27 26 27 28 26 26 26 24
42 41 41 40 42 44 44 43 43 40 35 31 31 25 30 27 26 27 30 32 32 35 34 35 36 36 37 34 35 32 35 33 30 28 26 25 25 23 24 24 25 24 25 24 25 24 24 23 23 23 23 23 21 20
41 41 38 37 37 38 37 37 34 29 26 26 25 23 23 24 26 27 29 30 28 30 35 35 35 35 35 33 35 34 31 28 26 23 24 24 24 23 23 23 23 24 24 24 23 22 21 21 20 19 20 20 18 17
41 39 35 37 37 36 35 33 29 26 23 21 21 21 26 27 25 26 25 26 27 29 34 36 35 33 30 30 28 25 24 22 22 23 24 22 22 23 23 23 22 22 23 23 23 22 21 19 19 19 19 18 18 18
41 37 36 35 35 34 34 28 25 21 21 19 20 23 24 24 24 24 25 25 29 30 32 34 29 26 28 24 20 21 20 22 24 24 24 23 23 23 24 24 23 22 21 21 21 20 20 20 20 17 16 16 16 16
37 36 37 38 34 32 26 25 22 19 18 21 19 22 22 23 24 24 26 27 31 29 26 22 23 21 20 16 18 21 23 25 22 21 21 22 23 22 23 22 21 22 21 21 20 20 20 19 17 16 16 16 14 14
39 35 39 37 33 29 25 25 23 18 21 22 23 23 23 24 24 24 26 28 27 25 23 20 17 15 15 17 18 20 22 23 21 22 23 23 23 23 22 22 22 21 21 22 21 20 19 20 18 17 17 15 13 13
38 38 37 35 34 28 24 24 25 20 20 21 22 20 21 22 24 25 23 23 21 19 15 14 13 15 15 17 19 21 23 25 25 23 21 21 21 21 21 21 20 21 19 19 18 18 17 16 17 17 16 15 13 12
35 34 37 34 30 28 26 24 23 21 22 20 20 19 21 21 20 20 19 18 14 14 12 15 16 17 19 20 20 22 21 21 21 22 21 20 21 20 20 22 22 20 18 17 16 16 16 14 15 15 15 14 14 13
31 34 36 33 29 26 26 28 24 26 23 23 21 19 20 18 17 16 13 13 12 14 15 16 16 17 17 17 18 20 20 22 22 21 21 20 21 20 20 21 19 19 19 19 17 16 15 15 16 15 14 13 11 10
30 31 31 30 29 26 25 31 25 25 22 21 20 16 16 16 14 12 13 12 14 17 17 16 18 17 17 19 19 19 19 20 18 19 20 20 21 21 21 20 20 18 16 16 17 16 15 15 14 14 13 12 10 10
23 24 23 24 24 22 24 21 20 19 20 18 15 13 13 15 14 11 9 11 14 14 15 16 17 19 17 15 14 14 18 18 17 18 20 18 16 17 17 17 17 17 16 16 16 16 15 14 12 12 12 11 10 9
19 14 20 17 20 19 18 17 17 16 14 14 11 12 13 16 12 8 8 10 12 14 14 16 13 13 13 14 14 14 16 17 16 14 17 20 18 17 15 14 14 16 18 17 15 14 14 13 12 11 9 9 7 6
10 12 13 15 15 15 15 14 14 14 13 11 11 12 17 14 7 6 7 12 13 13 15 15 16 13 11 11 11 11 13 16 15 12 13 14 16 18 16 15 13 13 16 17 15 12 11 10 9 8 7 5 4 5
9 10 10 9 12 12 14 14 12 12 10 9 12 10 11 5 5 7 10 11 12 14 14 15 13 12 11 11 11 12 13 12 12 11 12 12 13 13 15 14 11 14 16 16 15 13 10 9 8 7 7 7 6 6
10 10 7 10 10 10 8 8 8 7 9 8 10 5 4 5 6 12 12 14 15 13 13 12 12 11 11 11 12 13 13 13 13 14 14 12 12 13 13 13 12 11 13 14 13 12 11 10 8 8 7 7 7 7
12 12 7 3 7 8 8 9 9 8 8 12 11 7 7 8 15 14 14 15 16 16 14 13 14 15 13 12 13 12 12 12 9 3 3 8 9 9 11 12 12 12 13 12 9 10 10 10 9 8 7 7 7 7
11 14 8 6 5 6 9 11 11 12 10 11 9 7 8 10 13 18 16 16 14 13 14 14 14 13 11 11 9 8 10 10 10 11 9 7 7 9 9 10 10 11 12 11 9 8 7 8 7 7 5 5 6 6
14 15 10 9 8 11 13 13 15 14 15 13 15 12 9 10 12 13 12 14 14 15 15 12 9 10 9 8 9 8 6 8 6 6 8 8 8 8 8 8 9 10 10 9 8 8 7 7 7 5 3 0 1 2
14 10 9 6 8 12 15 16 14 13 13 12 11 12 12 12 8 11 12 14 15 12 8 9 8 7 7 7 7 7 3 5 5 5 5 6 7 6 7 7 8 8 7 7 7 7 1 -0 6 4 4 -3 -2 -2
13 13 12 10 9 10 12 13 10 10 12 11 10 11 11 11 5 10 12 13 13 11 10 9 8 7 5 4 5 5 2 3 -0 1 -1 -1 -2 1 5 7 7 6 1 5 5 4 -4 -9 -0 -2 -2 -3 -3 -3

GFSWCAN_sfc_dewp_096.txt.gz
Dewpoint
34 36 37 38 38 38 38 38 39 40 41 42 42 42 43 43 43 43 39 41 40 32 29 28 27 24 23 23 23 26 31 32 35 30 26 24 25 25 24 29 24 25 28 28 28 25 23 24 23 27 32 32 30 32
36 36 38 38 39 39 40 40 41 41 42 42 42 43 43 44 44 44 39 42 43 37 30 33 30 30 27 24 29 33 33 33 32 28 27 28 28 33 24 20 28 29 26 26 25 25 30 30 34 35 31 28 29 34
36 37 38 39 39 40 40 41 41 41 42 42 43 43 43 43 44 44 41 42 40 36 35 33 30 31 32 32 34 36 36 39 38 39 37 35 31 33 28 24 23 30 29 31 34 31 30 34 34 35 26 26 29 32
37 38 39 40 40 40 41 41 42 42 42 43 43 43 43 44 45 45 42 43 41 37 31 28 31 32 31 32 32 34 35 39 39 39 35 35 32 31 33 31 31 28 32 30 33 26 27 27 31 33 32 31 30 36
39 39 40 41 41 41 41 42 42 42 43 43 43 44 44 44 44 45 44 43 42 35 31 28 30 27 31 32 31 32 33 34 36 36 34 32 33 33 33 32 29 28 29 30 30 31 31 31 30 31 30 31 36 35
40 40 40 41 41 42 43 43 43 43 43 43 43 44 43 44 44 40 34 42 43 40 36 33 35 34 33 32 33 34 34 37 39 36 34 35 33 35 32 30 28 33 30 31 32 28 29 30 28 31 32 34 35 35
41 42 42 43 44 44 44 44 44 44 43 43 44 44 43 44 42 37 37 39 43 42 34 33 29 37 35 33 35 37 37 40 37 37 35 34 34 36 34 28 29 35 35 30 28 31 31 34 32 32 34 36 36 35
42 43 44 44 44 44 44 45 45 45 44 43 44 44 44 44 43 39 43 43 43 39 37 32 31 34 39 36 36 40 37 39 37 37 37 34 34 36 31 28 27 27 30 31 35 35 34 33 34 34 35 34 34 34
44 44 44 44 45 45 45 45 45 45 44 44 44 44 43 40 36 38 44 44 44 39 33 33 29 28 39 36 38 38 38 32 37 33 36 37 34 29 29 31 34 35 34 34 34 34 33 34 33 33 33 34 35 34
44 44 44 44 44 44 45 45 45 44 44 43 42 34 32 38 44 44 41 37 37 38 38 32 35 34 37 36 35 34 36 34 31 33 34 33 29 30 36 33 32 32 32 32 31 31 32 32 32 33 32 33 35 34
43 44 44 44 44 44 44 44 44 44 44 39 35 35 41 42 39 35 32 32 34 31 33 32 34 35 40 34 33 36 33 35 29 32 31 30 29 30 29 29 29 30 29 29 30 30 30 30 30 31 32 32 32 31
43 45 45 45 44 44 45 44 44 41 40 39 40 42 41 37 34 32 31 32 30 25 31 33 34 37 39 40 36 35 32 34 27 35 33 27 28 28 26 27 27 27 27 26 27 27 27 27 28 30 29 28 28 26
42 44 45 45 44 45 44 41 41 43 42 41 37 36 35 34 30 28 23 26 29 34 34 37 35 37 38 37 36 36 31 28 37 33 29 25 25 25 25 25 25 25 25 25 24 24 25 24 24 26 26 26 25 23
40 43 44 43 43 42 43 43 43 43 41 35 32 28 30 28 29 27 29 31 33 37 36 37 36 34 37 34 35 30 32 33 27 26 22 23 24 23 23 23 23 23 25 24 25 23 23 22 22 22 23 23 22 20
39 40 42 44 43 39 38 39 35 33 28 27 28 24 24 26 27 28 31 31 30 33 35 36 34 34 34 32 32 32 30 28 24 21 23 24 23 23 23 23 23 23 25 24 23 22 20 20 19 19 19 19 18 17
41 37 37 40 40 39 37 35 31 27 25 21 23 24 28 27 27 27 29 29 29 30 33 37 34 33 31 32 30 25 25 20 21 23 23 22 23 23 23 24 23 23 23 23 23 22 20 19 18 18 18 18 18 18
42 32 36 37 38 37 34 28 25 22 22 20 21 25 28 26 25 26 28 27 31 30 32 33 30 26 30 25 20 21 20 22 24 23 23 23 23 23 24 22 23 22 22 21 20 20 20 19 19 16 14 15 16 16
32 33 38 37 34 32 27 26 23 21 19 23 21 24 24 25 25 26 28 28 30 30 27 25 27 22 20 20 18 22 23 26 23 23 21 22 23 22 23 21 21 20 19 19 19 19 19 18 15 14 15 15 14 13
34 35 37 37 34 30 26 26 23 18 22 25 25 26 25 25 26 26 27 29 28 25 24 23 18 16 16 17 18 20 22 23 23 22 22 22 21 22 21 21 20 20 21 21 20 18 19 19 18 18 17 15 13 12
38 37 37 37 34 28 24 25 25 21 22 22 23 22 23 23 26 25 24 23 22 20 16 14 14 15 16 17 19 21 22 24 24 26 23 21 23 22 21 20 19 20 18 18 18 18 17 17 18 17 16 15 13 12
34 34 36 33 29 29 28 24 23 22 23 22 23 21 23 22 21 20 19 18 15 15 13 16 18 18 20 21 21 23 22 21 20 20 20 19 21 21 22 23 21 19 17 17 16 16 15 14 15 15 15 14 14 13
32 34 35 33 28 27 26 29 25 26 23 23 22 21 22 19 18 18 15 13 13 15 17 18 17 20 17 18 19 21 22 23 22 20 20 20 19 20 21 22 19 19 19 18 17 16 16 15 15 14 13 13 13 13
30 32 32 30 28 25 26 33 25 27 22 21 22 19 20 19 18 15 14 14 16 19 19 19 19 20 20 20 18 20 22 19 19 21 21 20 20 20 20 20 20 18 16 17 18 16 16 16 16 16 14 12 11 11
27 26 25 25 24 22 25 23 21 20 20 18 16 14 14 16 15 12 10 13 16 17 17 16 18 21 17 16 14 15 18 20 18 19 20 17 16 16 17 17 17 17 17 17 17 17 16 16 15 13 14 12 12 11
19 15 21 19 22 20 18 18 19 16 16 14 13 14 15 18 12 10 9 12 14 15 16 19 13 13 15 14 14 14 17 18 15 13 15 20 18 16 15 15 16 18 20 17 16 15 15 15 14 12 10 11 8 8
11 13 15 17 17 17 17 16 15 15 14 13 13 14 19 14 8 8 9 14 14 14 16 17 17 14 11 12 11 11 13 16 14 12 13 14 14 18 17 15 13 14 18 19 17 15 14 13 11 9 8 7 7 7
11 12 12 12 15 16 16 16 14 14 12 11 13 13 12 7 6 9 10 14 13 15 15 16 14 13 12 12 13 14 14 13 13 12 14 14 14 14 15 13 11 15 17 17 16 15 13 11 9 8 7 8 8 7
11 12 10 13 13 13 11 11 10 10 10 10 11 7 6 7 8 14 13 14 16 14 13 13 13 12 11 12 13 13 14 16 14 15 13 12 13 15 16 15 13 13 13 15 14 14 12 11 9 8 8 8 8 9
13 12 10 8 10 10 11 11 10 9 11 15 12 8 8 13 15 15 15 15 17 19 16 15 15 16 14 12 12 11 13 12 12 7 8 10 8 10 12 13 15 15 13 11 12 14 12 12 11 10 8 8 8 8
14 16 10 9 7 6 12 14 14 15 11 11 10 9 9 12 18 19 18 17 15 14 15 14 14 13 11 12 9 8 9 9 10 10 8 7 7 10 10 11 11 12 12 11 9 8 10 8 9 8 7 7 7 6
16 16 11 10 9 12 15 17 19 18 18 16 17 11 8 10 13 14 14 16 15 17 17 12 9 10 8 7 9 9 6 7 7 6 8 9 9 8 8 8 9 11 10 9 8 8 7 7 8 6 5 5 2 3
17 12 10 6 9 14 19 18 15 15 15 13 12 13 14 14 9 12 13 15 17 12 10 12 8 7 8 8 7 6 5 6 5 4 3 6 8 7 7 7 9 8 7 7 7 6 5 5 6 5 5 3 4 3
16 15 12 11 10 11 14 15 11 11 12 11 11 12 12 12 8 11 12 15 15 13 11 10 8 7 5 5 6 6 4 3 0 3 2 1 -1 1 5 7 8 6 5 5 5 4 3 1 3 3 3 1 0 1

GFSWCAN_sfc_dewp_099.txt.gz
Dewpoint
39 37 36 37 37 37 36 38 39 39 39 40 40 40 41 41 42 41 37 39 37 32 30 30 29 27 27 27 26 29 28 31 33 29 26 24 23 26 30 34 28 23 25 24 27 23 21 29 28 30 34 34 31 35
40 38 37 37 37 37 36 37 38 38 40 40 41 42 41 41 41 42 37 40 40 35 33 35 35 34 32 30 30 32 32 33 34 31 27 29 26 30 28 27 34 27 28 29 27 26 31 34 37 39 35 33 33 35
38 37 36 36 37 38 36 38 39 39 41 41 42 41 41 41 42 42 40 40 39 35 33 31 28 29 31 32 34 32 36 37 34 34 35 33 29 32 28 29 33 35 36 31 31 31 31 33 36 36 33 33 36 36
37 35 35 37 37 38 38 39 40 41 41 41 42 42 42 42 42 42 41 42 39 36 26 26 31 33 33 32 33 35 35 39 38 38 34 32 30 34 33 31 30 34 36 34 35 36 37 39 37 35 34 37 37 36
33 35 37 37 38 39 40 40 41 41 42 42 43 42 42 42 43 44 44 43 42 35 28 31 36 34 32 34 32 32 34 34 35 33 32 29 33 35 35 33 31 32 36 35 33 38 38 38 39 40 37 37 37 38
35 36 38 39 39 40 41 41 41 42 42 43 43 42 42 43 43 41 34 42 43 41 34 28 35 33 34 33 34 32 32 34 34 34 33 33 35 33 28 28 35 37 37 39 37 38 40 35 34 36 36 36 37 37
38 39 39 40 40 41 41 42 42 42 43 43 43 43 43 44 43 37 36 39 42 42 32 30 27 35 36 35 34 35 35 35 35 35 33 31 31 35 31 27 29 31 35 37 38 37 36 35 34 35 36 36 37 35
40 40 40 41 42 42 43 44 44 44 44 44 43 43 44 44 43 39 43 44 43 36 35 28 25 30 40 33 30 36 34 36 37 35 34 31 33 32 28 31 32 35 36 34 34 34 34 34 34 33 34 34 35 34
40 40 41 42 43 44 44 44 45 45 45 44 43 44 43 39 35 38 44 44 44 38 31 30 25 25 37 34 36 37 38 31 36 32 33 32 30 27 33 33 32 32 31 31 32 32 31 32 32 32 32 33 34 34
41 42 44 44 44 44 44 45 45 45 45 44 40 34 30 35 44 42 40 36 36 36 37 30 33 28 36 34 33 33 34 31 28 30 35 32 30 33 30 30 30 29 29 29 29 29 30 29 30 31 30 31 31 31
44 44 44 44 44 44 45 45 45 45 43 39 33 34 39 43 39 35 30 31 32 30 32 32 33 33 37 32 32 33 31 32 26 29 30 29 28 29 29 27 27 26 26 26 27 28 27 28 27 29 30 29 28 27
43 44 44 44 44 44 45 45 45 41 39 39 40 41 40 36 33 30 28 31 30 25 30 28 30 34 36 39 33 33 31 31 27 34 30 26 25 27 26 26 25 25 25 24 24 24 25 24 24 27 27 26 25 24
44 45 45 45 44 45 45 44 42 42 41 39 37 35 34 31 26 26 23 24 22 28 30 30 31 33 33 37 32 31 28 26 34 31 22 22 24 25 24 24 23 23 24 24 23 23 23 23 22 22 23 24 22 21
44 45 45 44 44 45 44 42 43 42 40 35 31 27 28 23 28 26 28 29 31 32 30 31 30 32 33 32 32 26 28 31 25 21 17 21 23 23 23 23 22 23 25 24 23 21 21 20 19 19 19 19 19 18
42 43 44 44 44 43 43 42 37 35 31 28 28 22 23 27 28 29 31 31 30 32 32 30 31 31 31 28 30 28 26 23 20 15 20 22 23 22 24 23 19 22 23 23 19 14 14 15 15 13 15 16 15 14
40 40 40 41 40 40 39 37 35 31 27 23 23 25 28 26 25 26 28 27 29 29 32 34 29 31 28 26 27 21 23 16 17 21 22 22 22 23 22 18 18 15 16 15 17 14 14 13 13 13 14 14 14 14
38 37 41 39 37 37 37 32 28 24 24 21 21 24 26 24 23 24 26 26 30 29 31 31 27 25 31 22 18 21 12 19 22 22 22 18 15 13 19 17 20 17 15 14 11 13 14 13 12 12 10 12 13 13
35 38 39 37 35 33 32 30 26 22 21 24 19 21 18 20 20 23 26 27 28 28 27 24 26 18 12 15 13 19 22 22 22 18 14 15 16 13 18 20 19 17 13 12 15 13 14 12 12 11 11 12 11 10
35 36 37 37 36 32 27 27 25 20 23 23 25 25 23 22 23 24 23 27 28 24 24 21 15 13 12 14 15 17 19 20 21 21 13 10 12 15 17 15 16 16 17 17 17 16 17 16 16 15 14 12 9 10
38 38 38 37 36 30 26 26 28 23 20 21 23 21 22 23 24 21 20 21 19 19 15 11 10 13 15 17 19 20 21 23 22 21 18 14 20 14 15 14 13 13 17 18 18 17 14 14 16 15 14 12 10 9
37 36 38 35 32 32 29 26 24 24 26 23 25 23 21 19 17 16 15 16 13 14 12 14 15 17 20 20 21 21 21 22 20 20 20 16 16 19 21 22 18 17 16 15 13 13 13 12 13 13 12 11 11 11
34 36 35 34 29 28 27 29 26 26 24 23 23 23 19 14 13 15 15 12 12 14 16 15 17 18 17 17 19 20 21 21 21 20 20 20 18 17 18 16 16 16 16 15 15 13 13 13 12 12 11 11 12 12
35 34 32 30 23 22 25 33 26 27 21 21 23 18 18 17 20 17 12 14 15 19 19 20 19 21 18 18 18 17 21 20 19 20 19 18 18 17 16 17 17 14 13 15 15 15 14 15 14 12 12 11 10 10
28 25 21 20 21 19 23 20 24 22 21 20 16 12 12 16 17 12 9 12 16 19 19 17 20 18 17 16 14 14 16 19 15 14 17 17 15 15 17 16 16 17 17 17 16 15 14 13 14 13 12 10 9 9
12 10 15 12 21 14 12 12 14 15 13 12 11 12 14 20 10 8 8 12 12 13 15 17 13 13 13 12 12 12 13 17 13 11 14 15 16 15 14 14 15 17 18 15 13 13 12 13 12 11 11 10 9 8
5 8 10 14 13 14 15 10 8 8 8 7 7 13 16 6 1 3 10 10 6 9 8 13 14 10 9 9 8 10 11 15 13 10 12 13 13 15 14 12 11 12 17 15 12 10 11 10 10 8 7 7 7 6
3 5 15 17 19 18 12 12 14 8 4 4 6 9 3 -5 -3 8 11 14 11 12 13 12 13 13 12 13 15 14 12 12 11 13 14 14 14 13 12 8 7 12 16 15 13 11 10 8 7 6 5 5 6 5
11 12 2 9 10 14 3 4 2 1 4 12 8 -3 -3 0 4 11 10 13 13 13 12 12 11 11 10 10 10 10 10 14 11 10 11 11 11 13 14 12 12 14 11 13 12 10 9 8 6 4 4 3 2 3
9 12 9 -1 4 7 8 4 4 8 12 14 -0 -1 3 12 10 12 11 15 20 18 14 13 15 14 9 6 4 5 6 6 3 4 2 0 -1 7 9 10 11 13 8 8 12 13 11 10 9 5 3 3 3 3
8 16 5 -0 -2 2 11 9 7 6 10 9 10 10 10 11 15 18 17 13 8 4 3 2 4 3 6 3 -4 -4 -2 -3 2 2 -4 -5 -2 -1 1 6 8 7 4 2 1 2 8 3 4 -1 -2 -3 -4 -6
18 13 5 5 4 12 14 15 14 13 12 8 6 3 3 4 4 6 10 14 13 16 7 -2 -2 -4 -5 -6 -3 -5 -8 -4 -5 -3 2 -1 -5 -6 -6 -5 -3 3 3 5 3 -5 -3 2 -0 -7 -2 -8 -10 -10
12 5 2 1 8 15 18 12 7 6 5 1 -1 2 4 4 1 4 4 10 9 3 6 -1 -5 -4 -5 -5 -7 -6 -6 -10 -9 -10 -11 -11 -12 -9 -0 2 -0 -7 -7 -7 -7 -9 -10 -7 -3 -1 -3 -7 -10 -14
10 8 6 5 3 4 10 6 5 3 4 2 2 3 1 1 -3 2 4 11 9 1 1 -4 -6 -7 -7 -6 -6 -8 -8 -12 -10 -1 -5 -6 -11 -10 -13 -13 -9 -5 -6 -5 -7 -7 -9 -9 -11 -14 -15 -16 -17 -17

GFSWCAN_sfc_dewp_102.txt.gz
Dewpoint
39 40 41 39 38 37 36 36 36 37 39 39 39 39 39 40 41 39 35 38 36 30 29 29 28 26 26 27 27 29 27 30 30 28 27 24 23 25 26 30 31 21 20 19 23 20 19 29 31 28 33 34 33 34
37 38 40 40 39 37 36 35 36 37 39 40 39 39 40 40 40 42 37 39 38 34 29 34 34 34 33 32 29 31 29 31 34 29 29 29 26 29 29 26 34 27 25 26 25 24 30 32 35 40 36 32 34 33
37 37 38 40 38 37 36 35 36 37 38 38 39 39 39 40 41 40 40 40 39 34 31 31 29 29 31 31 32 29 32 36 33 36 33 32 28 32 26 28 30 35 36 31 29 31 36 38 37 37 35 36 35 37
36 37 38 38 38 37 36 37 38 37 38 38 39 40 40 41 41 41 39 41 39 36 28 26 31 31 32 31 32 33 33 37 37 36 33 32 28 33 30 31 31 34 36 35 35 37 37 38 38 38 37 38 41 40
37 39 38 38 37 35 36 38 38 38 38 39 40 40 41 41 42 42 41 41 40 34 27 30 35 35 34 33 32 32 36 36 35 33 31 29 32 33 33 34 33 38 35 33 33 39 38 39 42 39 37 38 40 38
37 36 36 35 34 36 37 38 39 40 41 41 42 41 41 42 42 41 34 42 42 40 34 27 32 34 34 33 34 33 32 34 35 33 31 33 35 35 31 29 33 35 36 38 38 41 40 37 36 37 37 37 37 36
36 34 33 33 34 37 39 39 40 41 41 42 43 43 43 43 42 36 35 38 43 42 32 29 25 30 36 33 33 33 33 33 33 32 32 32 30 33 30 28 31 37 38 38 38 40 37 35 33 34 36 35 35 33
33 33 34 37 38 39 40 40 41 41 41 42 43 43 43 43 42 38 42 44 43 35 34 28 24 27 36 31 29 33 31 34 35 31 32 33 31 32 29 31 31 32 32 33 33 33 33 33 32 32 33 34 34 31
34 37 38 39 40 40 41 41 42 43 43 43 44 43 42 39 34 38 44 44 42 38 31 30 21 20 36 33 36 36 36 31 36 31 30 31 28 28 33 31 29 28 28 29 30 29 29 30 30 30 31 30 31 29
38 39 40 40 40 40 41 42 43 45 45 44 42 34 30 35 43 43 40 36 35 36 36 28 29 27 35 33 32 32 34 29 27 30 32 29 30 31 30 29 27 26 26 27 28 27 27 27 27 28 29 29 30 28
40 40 40 40 41 42 42 44 44 45 44 38 33 33 38 43 39 35 30 30 31 29 31 30 30 31 37 31 31 33 30 31 25 27 28 27 27 26 28 27 25 25 25 24 25 25 24 24 24 27 27 27 27 26
41 41 42 43 44 45 44 45 45 40 39 38 39 42 41 37 33 28 28 30 27 24 28 28 30 33 35 38 32 32 30 31 25 32 26 23 22 25 24 25 25 26 24 23 23 23 22 21 21 24 24 24 24 23
43 43 44 44 44 45 45 44 42 42 41 39 37 34 31 31 24 20 21 24 20 24 28 26 26 31 34 35 32 31 28 26 33 29 18 19 23 23 23 22 21 22 24 22 20 20 21 20 19 20 20 22 22 21
43 43 44 44 44 44 44 42 42 41 39 35 31 27 27 23 23 23 27 29 30 32 28 27 27 31 32 29 27 27 27 30 20 20 15 20 22 23 22 21 21 21 23 21 18 18 18 17 16 16 16 17 17 17
44 44 45 44 44 43 43 43 38 34 30 28 25 20 23 25 26 28 31 29 29 31 31 32 30 29 29 26 30 27 25 19 17 14 18 21 22 22 22 21 19 19 17 17 13 12 11 12 12 12 14 14 14 13
44 43 43 43 43 41 39 36 35 31 27 23 21 24 26 23 22 25 26 26 29 29 32 31 28 28 23 28 24 19 19 10 13 17 20 21 18 20 17 17 15 11 11 10 11 12 10 8 8 8 9 10 10 10
39 39 42 41 39 37 36 32 29 27 25 21 18 23 22 22 20 23 25 25 29 28 31 27 25 22 29 18 15 19 9 15 20 21 21 17 15 14 16 15 14 14 11 9 10 11 11 12 11 9 6 9 10 11
38 38 40 41 38 35 33 29 26 23 21 22 18 19 17 17 14 15 21 26 26 28 27 22 22 14 7 11 6 13 18 20 19 19 17 11 10 10 15 12 13 13 10 9 11 8 8 8 8 9 10 10 9 9
37 37 38 38 36 33 29 27 25 21 22 22 22 20 18 16 20 20 20 22 24 22 21 17 11 9 8 12 11 12 14 18 18 17 15 12 12 15 15 12 13 14 15 15 16 15 12 10 13 11 11 10 8 9
38 37 38 38 35 28 25 24 27 21 18 19 20 18 17 17 17 15 16 19 18 17 13 10 8 10 11 15 18 19 20 22 21 17 17 15 14 10 8 11 9 8 14 14 13 11 11 12 13 13 11 10 8 8
36 35 37 33 31 29 26 24 23 22 24 19 21 20 14 16 14 12 13 15 13 11 9 12 11 15 16 18 19 20 21 21 19 18 17 15 16 17 18 14 14 14 12 10 8 10 9 10 11 11 10 9 10 10
32 37 32 31 28 27 26 26 23 23 21 23 23 22 13 9 7 11 15 10 10 13 12 13 15 15 15 15 16 18 20 21 20 18 18 17 14 14 15 16 15 13 12 10 12 10 11 11 11 11 10 10 11 11
33 32 29 26 22 19 23 32 24 24 17 19 22 17 15 14 18 16 9 14 15 18 19 19 18 18 16 17 16 15 18 15 14 17 16 16 16 16 15 16 15 13 12 13 15 13 12 13 12 11 11 11 10 9
26 22 19 17 19 16 21 18 24 22 20 18 15 12 13 14 15 10 8 11 14 17 17 17 18 16 14 13 11 12 13 16 13 13 14 15 13 12 15 15 15 15 16 16 15 13 13 11 11 10 7 6 6 6
12 8 10 5 14 9 5 5 8 12 6 8 7 8 14 17 5 1 3 6 4 8 9 8 10 10 7 1 4 9 12 13 11 9 11 13 12 12 13 14 14 16 17 13 11 11 11 11 10 9 8 6 7 5
1 2 6 6 7 9 9 3 1 2 2 0 2 12 9 -0 -5 -2 7 5 1 2 -1 4 -1 4 5 4 3 6 8 8 10 8 10 12 12 10 8 7 8 11 16 13 11 10 10 9 9 8 7 8 7 4
-2 -0 12 17 18 14 6 7 10 4 -1 -1 2 -0 -5 -12 -11 3 11 8 7 3 6 7 10 9 8 10 11 11 11 10 9 11 13 13 13 12 9 4 5 9 13 13 11 10 8 7 6 5 4 2 3 5
7 8 1 2 5 8 -4 -5 -7 -6 -3 8 2 -8 -10 -8 -1 6 6 7 7 10 10 9 10 9 7 6 4 3 1 7 7 8 10 9 11 11 11 11 11 14 12 10 9 9 9 7 5 2 2 1 -1 -1
1 6 4 -6 -3 1 0 -4 -3 5 10 6 -8 -8 1 8 2 4 6 11 12 12 9 9 5 1 1 1 -2 -1 -1 0 5 -1 -7 -10 -8 1 4 8 8 4 3 6 13 10 6 5 4 4 2 1 -4 -4
3 7 -3 -10 -7 -2 1 -3 -5 -7 7 5 10 9 7 8 11 12 9 7 6 -0 -10 -6 -6 -1 -8 -8 -14 -7 -5 -7 -6 -10 -12 -13 -8 -7 -13 -6 1 4 -5 -5 -5 -2 7 4 4 -3 -6 -6 -7 -9
11 2 -2 -3 1 4 5 5 5 2 -4 -5 -7 -5 -2 3 4 3 3 0 6 -4 -3 -7 -10 -18 -8 -11 -15 -18 -16 -13 -16 -8 -6 -10 -16 -15 -9 -5 -10 -10 -8 -8 -12 -12 -8 -7 -11 -12 -12 -11 -11 -14
-2 -8 -5 -1 4 7 4 -4 -6 -4 -11 -10 -10 -13 -7 -8 -8 -0 3 -3 -1 -6 -12 -9 -6 -9 -15 -18 -20 -19 -14 -19 -19 -19 -18 -20 -21 -20 -16 -14 -16 -17 -14 -16 -18 -18 -14 -9 -7 -8 -16 -18 -20 -19
-1 1 -4 1 -1 -2 2 -2 -2 -3 -5 -6 -3 -4 -7 -8 -9 -2 3 2 -3 -4 -7 -11 -14 -17 -14 -11 -13 -17 -17 -19 -17 -5 -10 -10 -15 -14 -22 -24 -22 -18 -13 -13 -17 -18 -17 -17 -19 -20 -23 -23 -25 -25

GFSWCAN_sfc_dewp_105.txt.gz
Dewpoint
40 40 41 41 40 39 39 37 37 38 37 38 39 40 40 40 41 38 34 37 35 30 28 29 29 27 25 25 23 27 25 27 28 24 27 26 22 24 24 28 28 26 19 16 21 19 17 28 32 26 32 34 35 34
39 40 40 40 40 39 39 38 38 38 37 38 40 40 40 39 41 40 35 37 38 34 28 33 33 33 30 29 29 29 27 27 32 28 28 27 23 29 28 23 33 27 28 23 23 22 27 35 35 39 36 32 34 33
39 38 40 40 40 41 39 38 38 38 37 38 39 40 40 39 40 39 37 39 38 34 32 30 28 30 33 33 34 29 29 33 34 35 31 29 27 29 26 27 30 34 36 31 25 26 34 37 38 39 38 36 41 42
39 38 39 39 40 40 40 39 38 38 38 38 40 39 39 39 39 40 38 38 37 35 28 25 30 30 32 32 32 31 28 35 34 34 31 29 27 31 28 31 31 33 33 35 33 37 37 39 40 39 40 39 38 37
37 37 37 38 39 38 41 39 38 38 37 38 38 39 39 39 40 40 38 40 39 35 27 28 32 30 34 32 30 30 31 33 33 32 31 28 30 31 32 33 33 35 34 32 31 36 38 39 39 41 39 39 37 35
37 37 37 38 38 39 40 39 38 38 38 37 38 39 39 40 41 40 34 40 41 40 34 24 32 33 35 34 32 32 34 34 35 31 30 32 34 34 28 29 33 35 39 37 34 39 38 36 37 37 36 35 35 34
36 36 38 39 38 38 38 37 38 38 37 38 39 40 41 42 41 36 34 38 42 41 32 28 25 28 33 32 32 32 32 32 32 31 29 30 31 31 30 26 31 37 38 38 38 37 35 35 33 35 35 32 32 30
35 35 37 38 37 37 37 37 38 37 38 39 40 41 42 41 41 38 40 44 43 35 34 29 24 26 34 30 30 32 30 32 31 30 34 30 31 30 28 30 29 32 31 33 31 31 33 31 30 31 31 32 31 29
35 35 37 37 36 36 37 38 38 39 39 39 41 42 42 39 35 37 42 43 43 37 30 30 21 19 34 33 35 35 32 29 33 31 30 30 28 28 31 29 27 29 27 27 30 30 28 27 27 29 29 29 30 28
34 35 35 35 36 38 38 40 41 40 41 42 41 34 31 35 41 43 40 34 33 34 35 28 26 24 32 33 32 32 33 28 27 30 32 29 28 28 28 28 27 27 25 25 26 25 24 24 24 25 27 28 28 27
32 33 36 36 37 39 40 41 40 41 42 38 32 33 38 42 39 35 29 30 31 27 30 29 28 28 35 30 30 32 30 28 22 25 26 27 25 25 27 25 26 26 24 23 24 23 22 21 21 23 24 24 25 25
33 35 38 39 39 39 40 41 41 40 37 37 38 41 41 37 32 28 27 29 28 23 26 28 29 31 35 37 32 32 28 30 23 31 27 22 20 24 24 23 23 24 23 22 20 21 20 19 19 21 21 21 22 23
38 39 39 40 40 41 41 41 43 41 41 39 37 34 31 30 24 19 19 25 24 24 25 27 32 30 34 36 32 31 28 27 33 25 18 19 21 22 21 19 20 22 22 19 17 18 18 17 16 17 17 18 19 18
40 40 41 41 42 43 44 42 42 41 39 34 31 26 23 21 23 21 25 26 28 31 31 25 31 31 32 31 30 23 28 30 25 18 13 18 21 23 21 20 20 19 20 18 17 16 15 15 14 14 13 15 13 14
43 43 44 44 45 44 42 42 41 34 31 28 25 20 17 21 27 28 31 29 29 31 32 32 30 30 27 25 27 27 25 15 14 12 15 20 21 21 21 20 18 18 15 12 10 10 8 9 10 9 11 12 13 11
43 43 43 44 44 42 42 40 35 31 27 23 20 21 24 22 21 24 25 25 29 28 31 33 30 27 22 27 23 15 17 11 14 16 20 19 19 19 19 19 14 11 11 10 9 10 7 6 6 5 8 8 8 7
43 41 43 43 41 40 36 31 30 27 24 20 17 21 18 21 18 21 23 23 28 27 29 28 25 21 27 18 14 16 7 11 16 19 19 18 17 13 10 15 15 12 9 6 6 7 6 7 7 6 4 6 8 8
39 41 41 40 37 36 34 30 25 23 20 20 16 16 17 18 16 18 20 22 25 28 27 21 19 11 5 9 5 8 14 17 17 13 11 12 13 12 16 13 14 13 9 7 8 5 4 5 6 6 6 6 7 7
38 38 39 38 36 32 28 25 25 19 19 20 20 19 18 17 18 18 18 20 22 21 19 14 5 4 3 9 6 8 12 14 13 11 14 12 15 14 10 10 13 13 14 13 14 10 6 6 7 6 7 6 5 5
38 38 38 37 35 27 24 23 25 20 15 18 18 14 14 11 14 10 15 18 18 16 10 8 5 7 8 11 14 14 15 18 19 16 14 14 11 11 9 8 8 7 10 9 10 10 10 10 11 9 6 4 2 5
36 36 36 34 31 28 25 23 22 21 21 16 19 18 10 16 12 10 11 15 12 9 8 9 9 13 16 16 17 19 19 19 16 16 15 13 14 16 13 11 13 10 7 3 5 3 6 8 9 9 5 6 8 9
34 36 30 31 28 26 24 24 22 23 21 20 21 19 8 6 5 8 15 10 9 10 10 10 11 13 13 13 15 17 17 18 17 17 16 16 13 13 13 12 12 9 9 9 11 9 10 11 11 10 9 9 10 10
32 30 27 26 22 19 19 31 21 21 15 18 20 13 12 13 15 14 7 13 13 17 18 17 16 16 14 15 16 15 16 15 13 14 14 14 14 14 14 14 14 11 11 12 13 12 11 11 11 9 9 9 9 8
24 20 17 16 18 15 20 17 23 20 19 15 14 11 11 11 13 8 6 8 13 16 16 16 16 13 12 11 9 10 11 13 10 10 11 9 9 11 12 14 15 15 14 14 13 12 10 7 9 9 7 6 5 4
14 11 12 5 11 7 4 2 5 10 3 7 5 7 12 12 2 -1 -1 4 5 2 2 7 9 7 1 -1 2 5 6 9 4 5 8 9 6 8 11 13 13 14 15 11 8 8 7 7 7 7 7 4 5 3
2 2 5 6 4 7 5 1 -1 0 0 -1 3 9 3 -4 -9 -7 3 -2 -1 1 -8 -4 0 2 4 3 2 4 5 5 7 5 8 10 10 5 3 4 7 8 12 9 7 5 6 7 7 7 7 7 6 4
-2 0 12 14 16 11 3 4 8 3 -4 -2 2 -8 -9 -16 -16 0 9 4 5 3 3 4 7 6 5 6 8 8 7 7 7 9 10 10 10 10 5 2 2 7 12 10 8 7 4 3 4 5 5 4 4 3
5 7 1 -2 2 6 -7 -9 -10 -8 -4 6 -0 -12 -13 -10 -3 3 4 2 4 8 8 8 7 5 4 2 0 -1 3 -0 2 4 4 4 5 5 6 7 8 12 9 9 6 6 5 5 3 2 1 -1 -2 -2
0 3 3 -8 -4 -1 -2 -7 -5 5 9 -0 -10 -10 -1 6 2 2 3 6 7 7 2 -1 -8 -9 -5 -4 -6 -5 -7 -2 -5 -11 -15 -16 -15 -5 0 3 -2 -2 -4 3 11 8 4 1 1 -1 -3 -4 -6 -7
2 5 -5 -11 -6 -4 -4 -3 -4 -4 5 3 8 8 5 4 7 6 7 6 1 -7 -12 -11 -11 -13 -17 -16 -17 -12 -10 -12 -10 -7 -13 -17 -13 -9 -16 -11 -8 -8 -11 -7 -7 1 8 3 3 -3 -5 -6 -6 -9
6 -2 -4 -2 -2 -0 -0 -8 -4 -4 -9 -8 -12 -7 -4 1 3 5 0 -8 -6 -13 -9 -15 -17 -21 -17 -20 -21 -20 -16 -15 -17 -14 -15 -18 -20 -21 -20 -18 -19 -20 -18 -15 -15 -14 -13 -14 -17 -17 -15 -15 -17 -17
-6 -11 -4 -4 -2 -4 -4 -12 -11 -9 -17 -11 -12 -18 -11 -11 -12 -4 -1 -4 -13 -12 -17 -18 -11 -14 -20 -23 -26 -25 -18 -22 -22 -22 -21 -22 -23 -25 -23 -22 -25 -21 -18 -19 -22 -21 -19 -17 -17 -13 -19 -20 -21 -22
-7 -8 -7 -0 1 -4 -2 -4 -5 -5 -11 -11 -9 -11 -11 -12 -11 -6 -2 -5 -4 -7 -9 -15 -18 -18 -18 -18 -18 -22 -21 -23 -21 -9 -12 -13 -18 -17 -26 -28 -26 -20 -17 -22 -24 -23 -20 -18 -19 -20 -22 -24 -26 -27

GFSWCAN_sfc_dewp_108.txt.gz
Dewpoint
41 41 41 41 42 42 41 40 39 39 39 39 38 38 39 40 41 38 35 37 35 29 26 29 29 27 26 25 22 24 23 25 27 21 23 24 24 24 24 25 25 26 23 18 20 18 16 26 30 28 33 37 39 36
39 41 41 41 41 41 41 40 39 39 39 39 37 39 39 40 40 39 32 37 38 34 28 31 31 30 28 26 25 28 25 25 29 25 25 26 23 28 24 22 32 23 30 25 24 21 25 32 35 37 38 33 37 35
37 41 41 41 41 41 41 40 39 39 38 38 37 38 40 39 40 39 37 39 38 34 31 31 28 30 34 32 32 29 28 30 30 34 25 27 24 27 23 24 30 33 34 30 29 29 34 38 39 39 41 41 41 40
37 40 40 40 40 41 41 40 39 39 38 37 37 39 39 40 40 39 37 39 37 34 27 25 30 29 32 32 32 32 30 34 34 33 30 27 25 29 26 26 28 32 33 33 31 35 37 38 38 41 39 37 36 36
39 40 40 40 40 40 40 41 40 39 37 36 37 39 39 39 40 38 37 38 38 34 26 27 31 29 31 32 32 32 31 30 29 28 31 28 30 30 31 33 31 36 33 31 31 37 37 36 37 40 37 36 35 33
40 40 40 40 40 40 41 41 40 39 38 37 37 38 39 40 40 38 33 39 40 39 33 24 29 30 33 34 30 30 30 30 30 28 28 31 33 32 26 26 34 34 34 36 33 36 35 36 35 35 34 33 33 32
38 39 38 38 39 39 40 38 40 39 37 36 37 37 38 40 39 35 32 37 41 40 32 24 25 28 31 32 31 30 32 34 33 28 27 28 29 29 26 25 30 34 36 35 34 35 33 32 31 34 35 32 30 28
38 38 37 37 37 38 39 39 39 38 36 36 37 38 39 40 39 37 39 41 42 36 34 24 24 25 32 27 26 31 30 32 34 29 32 29 30 28 26 29 28 29 31 32 34 33 32 32 31 30 30 32 29 27
38 38 37 38 38 39 39 39 38 36 36 36 37 39 40 38 34 37 41 42 41 36 30 29 21 16 34 33 35 34 31 28 30 30 28 29 27 25 28 27 26 26 26 25 28 25 25 24 24 26 27 28 28 27
37 37 37 38 38 38 38 38 37 36 36 37 39 34 30 34 40 42 38 34 32 32 34 26 25 21 30 31 30 31 32 24 23 27 32 29 27 27 26 26 26 25 24 24 24 23 22 20 21 22 24 25 26 27
35 36 36 37 37 36 37 37 36 37 38 36 32 32 37 41 39 35 30 29 30 27 31 28 27 24 32 28 30 32 30 28 23 24 26 26 23 23 25 25 25 24 23 21 21 21 21 19 18 20 20 21 22 22
34 34 34 34 34 35 36 37 38 39 35 36 37 40 40 36 32 28 26 29 26 22 25 27 28 29 32 37 31 32 28 27 21 29 27 21 19 23 22 21 20 23 21 17 17 18 18 16 16 18 18 18 19 21
34 34 33 33 35 35 37 39 39 39 38 40 37 33 31 30 25 18 17 24 23 23 23 28 30 28 33 35 32 30 27 25 32 24 17 18 22 22 21 20 19 20 19 17 16 15 15 15 14 14 14 15 16 15
33 35 36 37 38 39 40 40 41 40 39 34 30 24 23 21 23 21 25 26 26 31 31 28 32 32 32 31 30 26 28 29 24 14 13 17 21 21 21 19 18 18 17 16 13 13 12 13 11 11 10 13 13 12
37 37 37 38 39 39 41 41 41 39 34 29 25 18 24 21 22 24 30 29 28 30 31 31 30 30 29 28 29 27 23 14 13 12 14 20 22 20 20 19 17 15 10 9 7 6 4 5 7 5 8 9 9 8
39 39 39 41 41 41 42 41 36 33 27 23 19 21 24 19 17 21 24 25 28 27 30 32 30 26 24 26 23 16 16 12 11 16 19 19 19 19 18 18 14 11 11 7 8 9 7 4 3 4 6 6 6 6
41 41 43 43 43 40 37 32 30 26 23 19 14 19 13 13 12 18 21 21 25 25 28 28 24 19 22 17 14 13 7 12 16 17 17 16 17 18 17 17 15 14 10 8 5 7 3 5 6 5 3 4 5 6
41 43 43 42 37 34 33 30 26 22 19 19 14 13 11 11 14 14 17 19 22 26 24 19 19 12 4 11 7 10 14 16 15 14 14 11 9 7 15 14 13 14 11 9 6 3 3 3 5 3 3 3 3 2
38 38 39 38 35 31 28 25 25 18 19 19 19 19 16 15 18 17 17 20 22 21 20 16 8 2 2 9 6 7 10 14 12 12 13 7 9 9 9 10 14 12 12 9 10 6 4 5 5 5 5 4 2 1
39 38 38 37 35 28 23 23 24 19 14 16 16 14 14 12 13 10 15 17 18 15 10 7 4 7 7 11 12 14 17 19 18 15 12 11 8 6 2 6 4 4 7 8 7 9 7 6 7 5 3 1 0 3
35 35 36 32 30 27 24 22 21 20 19 14 17 16 10 13 9 10 11 15 11 9 7 7 7 12 14 15 17 19 18 18 16 17 16 11 13 13 8 8 9 8 6 2 3 2 2 2 4 5 -1 -2 4 7
33 34 29 30 27 25 23 23 22 22 19 18 17 16 5 1 1 7 14 9 8 9 9 9 12 13 13 12 13 15 17 17 16 16 15 16 13 12 10 10 10 7 7 6 9 7 9 10 9 8 3 4 7 6
31 29 27 26 20 15 17 28 19 20 12 16 16 10 7 5 10 13 6 11 9 15 14 14 14 15 14 15 15 14 15 15 12 12 13 12 13 13 13 13 12 9 9 10 12 10 10 10 9 8 9 8 6 5
24 19 16 14 17 14 20 16 22 19 16 13 10 9 9 10 12 8 5 7 11 15 15 15 15 12 10 9 7 7 7 9 6 7 7 9 10 10 12 13 13 14 14 14 12 10 8 4 7 7 4 3 2 1
16 11 12 4 9 6 2 -1 4 9 2 6 8 7 8 9 -1 -4 -5 -0 3 2 2 5 7 6 2 0 3 4 6 6 3 4 7 9 7 8 10 11 11 11 14 8 5 5 4 5 6 3 4 -1 2 -1
4 3 4 5 3 6 5 1 -2 -0 -0 -1 3 4 -0 -6 -11 -11 0 -4 -6 -5 -11 -6 -2 1 2 1 -0 1 2 3 5 3 6 9 8 -2 -2 0 3 6 11 8 8 5 6 4 5 6 4 5 4 0
-1 0 11 11 14 10 1 2 7 2 -4 -3 -3 -10 -11 -16 -16 -4 7 2 3 -1 0 1 4 4 3 3 6 6 4 5 4 6 8 7 7 7 2 -3 -1 5 10 8 4 3 4 4 4 5 4 3 2 2
5 6 1 -3 0 4 -7 -8 -9 -7 -5 5 -2 -13 -13 -11 -6 0 2 0 4 8 6 5 4 3 2 -0 -1 3 3 0 -0 0 1 1 0 0 -1 -2 -2 7 2 6 3 1 1 1 2 2 1 -0 -3 -2
-2 1 3 -8 -4 -3 -5 -8 -6 4 7 -3 -11 -13 -4 3 -1 -0 2 3 5 4 -1 -4 -10 -13 -8 -7 -10 -9 -6 -5 -6 -9 -14 -16 -16 -9 -7 -7 -10 -9 -12 -5 6 2 -2 -4 -5 -7 -8 -8 -8 -7
0 4 -4 -12 -10 -7 -7 -2 -4 -5 3 1 6 7 3 0 1 1 3 1 -1 -7 -14 -15 -18 -18 -17 -17 -18 -13 -13 -16 -12 -6 -12 -17 -15 -14 -19 -20 -17 -15 -19 -16 -13 -2 6 0 0 -9 -11 -12 -14 -14
4 -1 -5 -4 -5 -3 -4 -9 -11 -10 -13 -11 -14 -11 -5 -4 2 3 1 -6 -10 -12 -10 -16 -18 -23 -18 -21 -22 -21 -17 -17 -23 -20 -19 -21 -21 -22 -23 -25 -26 -27 -24 -20 -20 -19 -17 -20 -22 -20 -18 -18 -20 -20
-6 -9 -4 -6 -4 -6 -6 -14 -15 -14 -17 -11 -14 -19 -14 -13 -13 -4 -5 -11 -15 -13 -18 -22 -16 -14 -20 -25 -29 -28 -21 -23 -23 -24 -23 -24 -25 -27 -27 -26 -29 -24 -22 -22 -24 -24 -21 -12 -18 -20 -24 -25 -26 -25
-8 -9 -9 -4 -5 -4 -3 -5 -5 -7 -12 -13 -13 -17 -16 -12 -11 -6 -6 -9 -8 -7 -12 -17 -21 -20 -20 -20 -20 -24 -24 -26 -24 -11 -14 -14 -20 -19 -28 -30 -28 -23 -21 -23 -26 -26 -23 -23 -24 -24 -25 -26 -28 -29

GFSWCAN_sfc_dewp_111.txt.gz
Dewpoint
35 39 40 41 42 42 43 43 42 41 41 40 40 40 40 40 40 39 36 37 36 30 27 29 29 25 26 25 23 24 23 27 27 24 23 23 23 23 24 23 25 26 24 22 22 20 14 27 30 30 35 39 38 39
36 37 38 41 42 42 43 43 41 41 41 40 40 40 40 40 40 39 34 37 39 34 27 31 32 30 29 29 26 27 24 28 29 27 25 25 23 26 21 22 31 26 30 27 23 21 28 38 38 40 39 37 39 41
33 36 37 39 41 41 42 42 41 40 40 40 39 38 37 39 40 39 35 37 38 34 31 29 28 31 34 32 32 28 30 30 32 34 30 26 24 28 21 20 26 30 34 32 30 31 34 38 40 39 39 39 41 41
32 33 36 37 41 41 40 42 40 40 40 39 39 38 38 40 40 40 36 39 37 33 28 25 31 30 33 34 33 32 30 36 34 33 28 28 25 28 26 26 27 31 33 32 31 32 36 35 38 37 36 36 35 35
33 33 36 37 41 41 42 41 41 40 39 37 38 38 39 39 40 39 37 38 39 33 26 27 31 31 31 33 32 32 32 30 30 27 27 24 29 30 31 30 31 35 31 28 28 33 35 32 34 37 36 36 34 32
33 34 36 37 41 41 41 41 40 40 39 38 37 37 39 40 40 39 33 38 39 38 31 25 31 30 34 32 32 32 32 31 32 29 28 30 32 31 27 24 33 35 34 33 31 35 33 35 34 35 34 34 32 32
33 34 36 38 40 40 40 41 41 40 39 38 37 38 39 40 39 33 29 36 40 39 32 27 26 29 32 32 31 31 32 32 31 30 29 30 29 30 27 21 29 30 35 34 33 33 30 30 30 32 35 32 32 27
34 36 38 39 40 40 39 40 41 40 38 37 37 38 39 39 39 36 38 41 41 36 35 27 25 27 33 30 29 32 30 32 34 33 32 30 30 31 26 28 27 26 28 28 30 30 30 30 30 31 32 34 28 26
37 39 40 39 39 39 39 40 39 40 37 37 36 37 38 37 34 36 40 41 40 36 29 28 24 21 34 34 34 33 33 28 32 30 29 30 27 24 27 27 25 25 24 23 26 23 21 21 22 24 26 27 27 27
40 39 39 39 39 39 39 40 40 40 38 37 37 33 30 34 41 41 38 34 32 33 33 28 27 24 32 31 31 32 32 29 25 28 32 29 26 26 25 25 24 24 21 21 21 20 20 18 18 20 21 22 23 24
40 37 39 39 39 40 39 40 40 39 37 36 32 32 37 41 39 34 30 29 29 28 30 29 27 26 32 29 30 33 30 28 24 25 26 25 23 22 24 23 24 23 20 17 18 18 17 16 17 18 18 18 20 21
38 37 37 38 39 39 39 39 39 37 36 35 36 39 38 36 32 28 26 29 27 23 27 26 28 29 31 36 31 32 29 28 21 29 27 22 19 22 21 20 21 20 18 16 15 14 15 13 14 16 16 16 18 19
37 37 37 38 39 37 38 38 38 39 39 38 36 32 32 30 25 19 20 25 25 26 27 30 29 30 32 36 32 31 27 24 32 27 20 18 21 21 21 19 18 17 16 14 13 12 13 13 12 13 13 15 16 15
37 37 37 37 37 37 38 38 38 39 37 32 30 23 23 21 23 23 25 27 28 30 29 30 31 29 32 32 30 27 28 29 23 17 14 18 21 20 20 21 18 17 15 14 12 12 11 11 10 10 10 12 12 12
36 36 36 35 37 37 38 39 40 38 33 30 27 19 23 23 26 28 30 28 28 30 32 32 32 32 30 29 30 27 25 16 15 14 16 20 21 19 19 19 17 16 14 12 10 9 7 8 8 7 8 9 10 9
34 34 33 37 37 37 39 38 35 34 29 24 19 22 25 23 22 22 24 25 26 26 30 31 30 27 26 27 23 18 18 14 14 17 19 19 19 19 18 18 16 14 13 11 11 10 8 6 6 7 6 7 7 8
36 37 37 38 39 40 39 34 33 28 23 18 15 18 16 16 16 19 20 20 23 25 29 29 26 22 23 18 14 13 12 15 18 18 18 19 18 17 17 18 16 15 12 11 9 9 8 8 8 7 6 7 8 8
37 39 40 41 40 36 34 32 28 23 18 18 14 15 14 13 13 16 18 20 22 25 25 21 19 15 12 14 10 13 16 17 18 18 17 16 15 14 16 15 15 16 14 12 10 8 8 8 7 7 7 8 7 7
41 40 41 39 35 32 29 26 24 18 19 19 19 18 16 16 18 17 18 20 22 21 19 16 10 6 7 11 12 14 16 18 17 18 17 14 15 14 12 13 14 13 12 12 12 10 9 9 9 8 8 7 6 7
39 38 37 37 33 27 22 22 25 19 15 16 16 14 13 11 14 14 16 18 17 15 11 8 7 9 12 14 15 16 18 20 19 17 17 16 15 13 12 13 12 12 11 11 11 10 9 8 9 9 8 7 7 7
37 36 35 32 29 26 24 22 21 19 18 13 16 15 12 12 11 12 13 14 11 10 8 10 11 14 16 16 17 19 17 18 16 18 17 15 15 15 13 13 12 12 10 9 9 8 8 9 9 9 9 9 9 9
33 34 31 30 26 24 23 24 21 21 19 18 17 15 8 6 5 8 14 10 10 11 12 12 12 14 13 12 14 16 17 17 16 16 16 16 14 14 14 13 12 11 11 11 10 10 10 10 10 10 9 10 10 10
30 28 26 25 20 16 17 27 19 19 12 15 15 11 9 8 12 12 7 11 12 16 15 14 14 16 14 15 14 13 13 14 12 12 13 13 14 14 14 14 14 12 11 11 12 11 10 10 10 10 10 10 10 9
23 19 15 14 17 13 19 14 21 18 15 13 11 8 7 9 11 8 5 8 11 15 14 15 13 10 9 8 7 7 8 10 9 9 10 11 10 11 13 13 13 14 14 13 12 11 11 11 10 10 9 8 8 8
17 10 11 4 9 7 3 1 5 10 4 6 8 9 7 9 2 -1 -0 4 7 6 4 6 7 7 5 5 6 7 7 8 8 8 9 10 10 11 11 11 11 11 13 13 11 11 10 10 10 9 8 8 7 6
6 4 5 4 3 7 5 1 -2 1 2 -0 5 5 1 -2 -6 -6 3 3 3 4 1 3 5 6 5 5 5 6 7 8 7 6 7 9 8 7 7 7 8 9 11 12 12 11 10 10 9 8 8 7 5 5
1 1 10 9 13 9 2 3 7 3 -2 0 1 -6 -7 -12 -10 -2 6 5 7 5 4 5 7 7 6 6 6 6 6 7 7 7 7 6 6 6 6 5 5 7 9 10 10 10 10 9 9 9 8 8 8 7
4 5 1 -2 -0 3 -5 -6 -6 -4 -1 5 -0 -11 -10 -8 -4 3 7 4 5 7 5 4 4 5 4 3 3 6 6 4 4 4 4 3 1 1 0 1 0 3 1 6 10 9 9 8 8 8 8 7 6 6
-2 1 3 -9 -6 -4 -5 -7 -3 5 6 -2 -8 -9 -3 3 3 4 5 7 7 6 2 -0 -4 -5 -4 -4 -6 -4 -0 3 3 -2 -2 -1 -3 1 -2 -3 -2 -2 -1 4 8 9 6 5 4 4 3 4 2 4
-1 4 -3 -10 -11 -8 -5 -2 -1 -1 3 2 5 5 3 1 2 3 5 4 3 -0 -4 -4 -6 -4 -4 -3 -5 -5 -9 -9 -4 2 1 -2 -2 -3 -6 -6 -5 -4 -6 -0 3 5 6 4 4 1 1 0 1 1
3 -2 -6 -6 -7 -2 -2 -6 -11 -8 -9 -8 -10 -6 -2 0 4 3 -0 -4 -7 -9 -5 -7 -10 -13 -8 -9 -6 -6 -6 -7 -15 -11 -8 -8 -8 -7 -7 -10 -11 -11 -7 -4 -2 -1 -2 -3 -2 -1 -1 -2 -7 -5
-8 -11 -8 -9 -6 -3 -2 -9 -11 -8 -8 -3 -7 -13 -9 -5 -4 1 -4 -4 -4 -5 -9 -8 -5 -4 -10 -13 -17 -15 -17 -10 -11 -12 -12 -10 -9 -11 -12 -12 -13 -9 -6 -6 -6 -7 -5 -4 -4 -4 -6 -7 -9 -9
-11 -13 -11 -4 -5 -3 -3 -2 -3 -4 -6 -6 -9 -14 -11 -6 -5 -1 -4 -5 -3 -3 -6 -8 -10 -11 -13 -13 -10 -13 -16 -13 -17 -7 -13 -13 -18 -14 -13 -13 -10 -9 -8 -8 -9 -8 -8 -8 -9 -9 -11 -12 -13 -14

GFSWCAN_sfc_dewp_114.txt.gz
Dewpoint
36 36 38 40 42 43 44 44 43 42 42 42 42 42 42 41 42 41 36 39 35 30 24 27 25 22 21 20 19 22 23 28 27 25 24 21 21 19 23 23 25 26 24 26 23 20 15 28 29 30 34 39 42 41
34 35 37 38 40 42 42 44 43 42 42 42 41 41 41 41 41 41 35 37 39 36 28 32 32 29 26 25 24 26 24 26 27 25 23 23 22 24 21 21 33 27 31 29 24 21 29 33 36 40 40 39 42 40
32 34 36 38 39 41 42 42 42 42 42 41 41 41 40 41 41 40 38 39 39 34 31 29 27 30 33 32 31 27 27 27 33 35 33 27 24 25 22 20 29 28 29 31 32 35 35 35 37 38 38 40 42 41
32 32 35 37 38 39 42 43 43 42 41 41 41 40 41 40 41 40 37 40 36 35 29 23 29 30 31 33 33 32 29 32 34 34 30 27 23 24 24 23 26 31 33 31 31 31 33 32 34 37 37 36 34 34
33 32 33 35 38 37 41 42 42 41 41 41 41 40 39 39 40 43 41 41 37 31 28 25 29 28 30 31 32 33 32 30 27 31 28 25 23 26 26 29 30 35 30 28 28 33 33 31 34 35 33 34 36 32
33 33 33 33 37 36 40 42 42 40 40 40 40 39 39 40 41 40 35 39 40 37 32 26 29 29 32 32 32 32 32 31 31 29 26 27 27 28 28 23 33 35 35 33 30 35 33 34 33 36 33 33 33 32
33 33 33 33 36 36 42 41 40 40 40 40 40 39 39 41 41 35 32 37 39 40 33 26 26 31 33 33 32 32 33 35 32 29 29 28 27 32 27 20 23 30 33 34 33 33 32 31 30 33 35 35 34 29
33 33 34 34 37 38 41 41 41 40 39 39 39 39 40 40 39 37 40 41 41 36 34 27 26 29 34 32 31 33 31 33 32 31 32 29 28 30 23 26 27 26 31 28 27 27 29 31 32 31 31 33 30 27
33 34 35 36 38 40 41 41 42 41 39 39 39 39 40 38 36 33 40 40 41 36 30 28 26 27 34 33 33 33 32 28 31 31 28 29 25 24 26 26 25 24 23 22 26 22 21 20 22 23 25 26 26 26
34 36 37 37 39 40 41 41 41 40 39 39 39 35 31 36 38 41 38 35 35 34 34 27 28 29 32 33 34 35 33 29 27 28 29 29 23 26 25 25 24 23 20 20 20 19 18 17 18 19 20 22 24 24
35 37 38 39 41 40 40 40 40 40 38 36 33 32 37 40 37 35 31 31 31 29 31 28 27 27 33 30 30 35 32 32 26 26 26 25 24 23 23 22 23 20 19 17 17 17 16 16 16 17 18 19 20 21
37 38 40 40 40 40 40 40 40 38 36 35 36 39 38 36 33 30 28 29 27 21 29 27 28 30 32 35 33 34 29 31 24 29 28 24 21 21 20 20 20 19 16 15 14 14 14 13 14 16 17 18 19 20
40 40 40 40 40 40 40 40 38 37 38 38 37 33 32 33 27 24 21 25 26 29 30 30 29 31 33 35 34 33 29 28 31 29 26 21 22 23 21 20 19 16 15 13 12 12 13 13 13 15 15 16 18 18
39 40 40 40 40 40 40 40 38 39 37 32 29 27 28 25 26 26 25 28 32 33 32 32 30 30 32 33 33 28 31 31 26 23 19 22 22 21 20 20 19 18 16 15 14 13 13 13 13 13 13 15 15 15
38 39 39 39 39 39 39 39 39 39 35 31 31 25 26 29 29 30 32 31 31 33 33 32 32 31 33 31 33 30 28 21 20 19 20 23 22 20 20 19 18 17 15 15 14 13 11 11 12 11 12 13 13 13
38 38 36 38 39 39 39 38 37 37 32 27 23 25 28 28 28 29 31 29 28 31 34 34 31 29 29 30 27 21 22 19 20 21 21 20 20 20 19 19 18 17 16 15 15 14 12 11 11 11 11 12 12 12
35 31 37 38 38 38 38 36 35 29 25 20 23 23 25 27 27 26 27 26 26 30 31 32 28 26 29 25 19 20 22 21 21 22 21 21 20 19 19 19 18 17 16 15 14 13 12 12 12 12 12 12 13 13
32 37 38 38 38 36 36 35 27 23 19 22 21 22 21 22 23 24 24 25 27 29 29 24 24 21 22 20 19 19 21 22 21 21 20 20 19 19 19 18 18 17 16 14 13 13 12 12 11 11 11 12 11 12
37 38 38 39 36 34 30 27 24 19 20 21 21 21 21 22 22 22 25 26 25 25 25 23 19 17 17 17 18 20 21 22 20 21 20 20 20 17 17 17 17 16 15 15 15 13 13 13 12 11 11 12 11 13
39 39 39 38 34 29 24 22 26 19 20 20 21 20 20 20 21 22 23 22 21 20 17 15 14 15 17 19 21 22 23 24 22 20 19 20 20 18 18 17 17 16 15 15 14 11 13 12 12 12 12 12 14 12
40 39 38 35 31 26 23 21 20 20 19 18 18 18 18 18 19 19 19 16 18 15 14 16 17 18 20 20 21 21 21 22 21 21 20 18 20 19 18 18 17 16 14 15 15 13 13 13 12 12 15 14 14 14
37 37 34 32 26 24 24 25 21 21 20 21 20 18 19 19 19 18 15 15 14 15 16 17 17 17 17 17 18 20 20 20 20 19 20 19 18 17 17 17 16 16 15 16 15 15 14 13 14 14 15 14 13 13
34 31 29 26 23 23 22 28 22 21 18 19 18 15 16 17 16 12 14 13 15 18 18 17 17 18 16 17 16 15 17 17 17 17 17 17 17 17 16 16 17 16 15 14 14 14 14 11 12 15 13 14 13 13
25 24 23 23 23 21 25 22 20 18 18 16 15 12 11 13 11 13 10 13 15 17 16 16 16 15 14 13 13 13 15 15 15 15 17 15 14 15 15 14 15 15 14 14 15 15 15 15 12 13 13 13 13 12
25 17 20 17 19 19 17 17 16 15 14 14 13 13 14 13 10 7 8 11 14 15 15 15 14 13 13 13 13 13 13 15 14 13 14 15 15 15 14 13 13 14 15 17 16 16 15 15 14 14 12 13 9 7
16 14 16 15 18 16 16 14 14 14 14 13 11 12 14 11 6 6 8 13 15 15 15 15 14 12 11 12 11 11 12 14 14 12 12 13 13 15 14 13 13 12 14 15 15 15 14 14 13 8 11 7 6 6
13 13 14 11 15 14 15 15 14 15 12 12 13 10 9 6 6 8 11 13 13 14 13 14 13 12 11 10 10 11 12 13 12 11 11 10 10 10 13 12 9 11 12 14 14 14 13 13 13 12 12 13 11 11
13 13 11 10 10 10 10 11 11 11 12 11 10 7 6 6 6 11 13 14 14 13 12 12 12 11 11 11 12 12 12 11 11 10 10 9 9 10 9 11 9 8 10 13 14 14 13 13 13 12 11 11 11 12
11 11 9 2 5 6 6 8 9 9 9 10 9 5 6 8 11 12 12 13 14 13 11 10 9 10 9 8 9 10 13 13 8 2 -0 8 9 9 8 9 10 10 11 12 11 12 11 12 11 11 9 11 11 12
8 11 6 2 1 2 7 8 9 9 8 9 8 6 6 9 10 12 13 14 14 14 13 11 9 11 9 10 8 6 6 7 8 9 8 7 8 7 7 7 7 8 9 10 11 11 8 11 10 10 9 9 10 9
9 10 6 5 4 7 8 7 7 8 9 8 9 8 7 10 11 11 12 13 10 8 9 8 6 8 7 6 8 6 5 5 -1 2 4 6 6 7 6 4 6 7 8 8 8 9 9 9 9 6 5 4 2 4
10 5 4 3 4 8 9 10 10 9 9 9 7 7 7 9 7 9 9 9 9 10 8 10 10 8 7 5 2 3 1 3 1 -0 -4 2 4 1 4 4 4 7 6 6 6 6 4 3 6 4 4 -0 -1 -1
6 7 6 6 6 6 8 8 6 6 8 7 7 7 8 8 6 9 6 9 12 13 10 10 9 5 0 0 2 0 -1 0 -2 -0 -4 -6 -9 -3 4 5 6 5 2 4 4 3 1 -0 1 -1 -3 -4 -5 -6

GFSWCAN_sfc_dewp_117.txt.gz
Dewpoint
38 39 40 41 42 44 44 44 44 45 44 43 43 43 43 42 42 40 39 39 32 29 25 24 23 22 20 20 16 22 22 27 26 25 22 22 20 19 19 22 24 22 25 28 23 19 18 33 30 32 37 39 39 40
36 37 37 38 40 40 44 44 44 44 43 43 43 43 42 42 43 42 39 38 35 36 30 35 31 28 25 23 24 27 24 23 26 25 27 23 24 25 22 21 32 27 29 28 26 26 35 35 36 38 37 38 38 42
35 35 35 36 38 40 42 43 44 44 43 42 43 43 42 41 42 41 40 38 39 36 30 26 25 28 31 30 29 24 24 24 29 34 32 28 25 22 23 22 28 26 31 29 27 30 32 33 34 36 37 37 38 37
34 34 35 35 37 39 41 41 40 44 43 42 42 42 42 42 42 42 40 39 34 34 31 26 26 27 28 30 31 30 28 32 31 33 31 28 25 22 24 22 24 31 35 31 27 28 30 30 34 35 34 35 37 36
33 34 34 35 36 39 39 41 40 41 42 41 42 42 42 41 42 43 44 40 35 30 30 26 28 26 27 30 30 31 31 29 27 29 30 26 22 23 23 24 28 34 31 28 28 33 32 31 34 35 33 33 34 35
34 33 34 34 36 38 39 40 42 42 42 41 41 41 41 41 42 41 35 40 39 36 32 27 28 27 29 30 30 30 30 29 31 30 28 26 26 26 26 23 33 34 35 34 31 34 35 34 36 34 35 34 35 34
35 34 34 34 35 37 38 37 43 43 42 41 41 41 41 41 41 36 35 39 38 38 36 27 26 29 29 31 31 31 32 35 32 32 29 26 25 31 28 23 29 31 31 34 33 34 33 32 30 34 35 37 36 33
36 35 35 34 34 37 36 34 41 42 41 41 41 41 41 41 39 36 41 41 40 36 34 27 26 30 33 31 30 33 33 35 34 31 29 28 27 29 23 26 26 27 30 28 27 26 27 29 28 30 30 30 30 27
37 36 35 35 35 36 35 40 41 39 40 41 40 40 40 38 37 34 40 40 41 37 30 29 27 28 33 33 37 33 32 30 30 31 28 28 26 23 28 28 25 25 24 22 24 25 22 21 21 21 24 26 27 25
37 36 36 36 36 37 37 41 40 40 40 40 39 35 32 36 41 39 38 34 35 36 33 28 27 29 31 33 33 33 34 30 29 28 26 29 25 28 26 25 25 23 21 20 21 21 19 18 18 19 19 21 23 25
36 35 36 36 37 37 40 41 40 39 39 37 35 34 37 41 36 34 31 29 30 27 28 26 25 28 30 30 30 35 32 33 26 27 27 26 26 25 24 24 23 21 20 18 17 17 15 15 16 18 19 20 20 21
34 35 36 37 38 41 42 42 41 38 37 33 36 38 37 32 32 29 27 27 26 19 28 27 28 29 30 31 33 33 29 29 23 28 27 25 23 22 22 21 20 19 17 15 14 14 15 13 14 17 18 18 20 20
36 37 36 38 41 41 42 41 39 39 38 37 33 34 33 31 25 24 22 23 25 28 32 32 30 32 33 33 34 33 28 27 31 30 28 23 22 23 22 21 19 17 16 15 13 13 14 15 15 15 16 18 18 19
37 38 39 41 41 41 41 40 39 39 33 29 29 26 29 27 28 25 24 27 34 34 32 31 30 31 32 33 32 30 31 32 28 26 23 24 25 23 21 20 20 18 17 16 16 14 14 14 15 15 15 17 16 16
39 40 40 40 40 40 40 40 39 37 36 31 30 27 28 32 32 33 35 34 33 35 34 33 32 30 30 31 32 30 29 26 24 23 23 25 24 21 22 21 19 18 17 17 17 14 13 13 14 14 15 15 15 15
40 40 38 40 40 40 39 38 38 38 33 30 27 28 30 30 29 32 33 31 33 34 36 35 30 29 29 29 27 26 23 22 24 24 23 21 21 22 21 20 19 19 18 17 17 16 15 13 13 14 14 15 14 15
38 38 39 40 40 39 38 37 34 29 28 25 25 27 29 30 30 29 31 30 31 33 32 31 28 26 31 25 23 25 24 24 23 24 23 24 21 20 20 20 19 19 17 17 15 15 15 15 14 14 15 15 16 15
37 39 40 39 38 37 36 35 29 25 19 24 25 25 25 26 27 27 27 29 31 30 29 29 28 25 27 21 23 23 24 25 25 24 22 21 21 20 21 19 18 18 17 16 15 16 16 16 16 14 15 14 17 17
36 38 39 37 34 34 32 29 26 22 24 24 24 25 25 25 26 26 27 28 28 28 30 28 25 25 23 22 23 24 25 24 22 23 22 22 21 19 19 18 18 18 16 17 17 15 15 15 14 14 14 14 14 14
38 38 38 35 35 30 24 26 28 22 23 23 23 23 23 25 25 26 26 26 26 27 24 22 21 21 22 22 25 25 26 26 23 22 21 21 21 20 19 19 18 18 17 17 16 14 15 15 14 14 13 14 16 15
37 37 36 35 31 26 25 24 24 24 22 22 22 22 23 24 25 26 24 22 25 21 19 20 20 20 23 24 25 25 24 26 24 25 24 20 22 20 19 19 19 18 17 17 17 16 15 15 14 14 17 17 17 17
38 38 37 33 28 24 25 25 24 23 22 23 22 22 23 23 24 23 19 21 19 19 22 21 20 20 19 19 20 22 23 22 22 21 20 20 20 20 19 20 19 18 17 18 16 17 16 14 15 15 17 17 14 16
35 34 32 29 27 24 22 28 23 23 21 21 21 19 21 21 21 15 19 17 18 21 21 19 20 21 19 19 18 19 19 20 19 19 20 19 19 20 19 18 19 20 19 16 16 17 16 12 14 17 17 17 17 16
32 31 30 29 29 23 28 25 21 20 20 20 19 16 17 19 15 18 16 17 19 19 18 18 18 18 17 16 16 16 18 17 16 17 19 18 16 17 17 16 17 17 16 16 16 17 17 17 12 16 16 16 15 15
28 22 26 22 25 23 22 21 21 19 18 19 17 17 17 16 16 15 16 15 17 18 18 17 17 16 17 17 16 16 17 17 16 14 16 17 17 17 15 14 14 15 16 19 19 18 17 17 16 16 14 15 11 9
22 19 21 21 23 21 21 18 19 18 18 17 17 18 19 18 14 12 13 18 19 19 20 20 18 16 15 15 14 14 15 17 16 14 14 14 14 17 16 16 16 16 15 17 17 16 17 15 15 9 14 8 8 11
18 18 18 15 19 19 22 21 19 20 17 16 18 17 15 11 12 13 16 18 17 19 19 18 17 16 15 14 14 14 15 15 16 14 13 12 12 13 15 15 12 13 13 14 16 16 15 15 15 15 15 16 14 13
18 18 16 18 17 18 16 17 18 17 19 17 17 14 11 9 11 16 16 19 20 17 17 17 16 15 14 14 15 16 15 14 14 13 12 12 12 13 12 13 12 8 12 13 14 16 15 15 15 14 14 15 14 14
17 18 15 8 12 14 14 16 17 15 14 17 18 12 11 12 16 16 17 17 18 17 15 15 16 17 15 15 15 16 16 16 12 3 -2 11 13 14 11 12 12 12 13 13 12 12 12 13 13 13 11 13 12 12
14 18 13 7 6 9 14 14 16 15 12 14 11 8 9 12 14 19 18 18 17 18 18 17 16 15 14 14 12 12 14 15 14 13 12 10 12 11 11 10 10 11 11 11 11 12 7 12 12 12 11 10 12 11
15 17 12 12 10 14 14 13 14 14 14 13 16 15 12 12 14 18 18 20 20 18 16 14 14 15 13 12 12 10 10 11 7 7 8 10 10 11 9 9 10 11 11 10 9 9 10 10 10 6 3 4 2 5
17 11 10 7 9 11 13 14 15 14 13 13 11 12 12 14 11 13 15 16 16 15 14 15 13 13 14 14 12 11 9 9 7 5 2 7 9 5 8 8 9 10 8 8 8 8 4 2 8 7 6 -1 1 2
13 14 12 10 10 9 11 12 10 10 12 11 12 13 14 13 10 15 15 17 17 17 16 16 17 13 8 7 8 7 6 6 3 2 -0 -1 -2 3 9 10 9 8 4 6 7 6 0 -6 2 0 -0 -1 -2 -1

GFSWCAN_sfc_dewp_120.txt.gz
Dewpoint
38 39 40 40 41 44 45 45 45 44 45 44 44 43 43 43 42 40 37 40 34 30 26 27 23 23 22 20 18 24 21 23 25 23 22 21 22 21 19 20 23 23 23 23 24 20 21 34 32 28 34 36 37 35
36 38 39 41 41 41 41 44 44 44 45 45 43 43 43 43 43 42 39 40 37 37 31 34 33 32 27 24 24 27 23 25 23 22 27 25 23 24 19 18 30 26 31 29 30 28 34 31 32 34 35 35 36 35
35 37 38 38 40 41 41 41 44 44 45 44 43 43 43 43 42 41 41 43 38 34 31 27 25 27 27 27 30 25 23 23 28 31 31 28 24 21 21 22 27 23 30 29 25 31 29 31 31 33 34 34 36 36
35 36 37 37 37 39 40 41 44 44 45 43 43 43 43 42 42 41 41 42 37 33 30 26 25 26 25 28 27 28 27 30 32 33 31 28 24 21 23 21 24 32 31 29 27 27 29 29 32 33 33 34 34 37
34 35 35 36 36 38 38 40 42 42 44 43 43 43 43 42 42 41 44 43 37 32 31 28 29 29 25 27 27 28 28 28 27 29 29 25 22 23 23 24 29 33 32 27 25 33 31 31 35 33 35 33 34 34
35 34 35 35 35 36 39 41 41 42 44 44 42 42 42 42 42 42 35 40 40 38 33 27 29 29 27 27 27 27 29 29 29 30 28 25 25 25 24 20 33 33 34 34 33 33 34 33 35 32 34 35 35 34
36 34 34 34 35 36 39 40 41 40 42 42 42 41 42 42 43 36 34 40 39 40 35 27 23 24 28 28 28 29 32 34 30 31 28 26 24 29 28 23 34 31 32 33 34 34 32 30 29 33 32 31 36 31
37 35 35 35 35 35 38 39 41 41 41 42 41 41 41 41 40 36 42 39 41 36 33 28 25 33 29 32 31 34 32 34 33 30 29 26 26 29 25 27 28 29 29 27 25 26 28 31 27 27 26 28 29 28
38 37 37 36 36 36 38 37 40 42 41 41 41 41 40 38 36 38 41 42 41 37 29 29 24 27 32 32 35 32 32 30 29 31 27 27 25 24 31 28 25 25 25 23 23 25 22 21 20 20 21 23 24 25
38 37 37 37 36 37 37 35 38 43 41 40 39 35 32 35 41 40 38 34 35 34 32 27 27 30 31 32 32 32 32 28 27 27 26 28 24 30 26 26 25 23 22 20 20 19 18 18 17 18 19 20 22 22
38 38 37 36 35 37 36 39 41 41 40 37 35 34 37 40 36 34 31 29 29 27 27 25 25 29 35 30 31 34 31 31 26 26 27 26 26 26 26 24 23 21 20 17 17 17 15 15 16 18 19 19 19 20
36 36 37 36 36 37 36 41 41 38 36 34 36 38 38 31 32 29 26 26 25 17 26 28 28 29 31 32 32 33 28 28 22 30 28 23 24 24 22 21 20 19 17 15 14 15 15 14 14 17 17 17 19 20
37 37 36 36 37 38 39 41 39 38 38 36 31 32 30 29 23 21 19 21 23 28 32 32 31 32 32 32 34 33 27 25 33 30 25 24 23 24 23 22 19 18 18 17 14 14 14 15 15 15 17 18 19 19
37 37 37 38 38 38 41 40 39 38 30 27 28 24 26 23 23 23 25 26 34 35 34 33 32 31 33 32 31 27 30 32 27 23 22 24 25 24 23 22 20 18 17 16 16 14 14 15 15 16 17 18 17 16
38 37 38 38 40 41 40 39 39 37 35 31 28 23 26 31 33 34 37 35 35 37 35 33 32 30 31 31 30 29 28 25 24 21 24 25 26 24 23 22 20 19 19 19 17 16 14 14 16 15 16 16 16 17
38 37 40 41 41 41 39 39 38 36 31 29 29 27 32 31 30 33 33 33 34 37 36 35 30 28 28 29 27 25 23 23 23 24 24 23 23 22 22 21 20 20 20 19 18 17 16 15 15 15 16 16 16 16
39 38 40 41 40 38 37 34 31 27 27 26 29 29 29 31 29 29 31 31 32 33 32 31 25 25 33 26 24 24 23 24 25 25 25 24 22 21 22 21 20 20 19 18 16 16 15 16 18 16 16 15 17 16
37 40 40 40 38 36 34 32 29 25 23 27 27 27 27 29 29 29 29 31 31 32 30 30 29 23 25 25 23 24 25 27 25 23 22 22 22 22 22 19 19 20 18 16 16 18 18 18 20 18 19 17 18 20
39 38 38 37 34 32 30 29 27 23 26 25 25 26 26 26 28 28 29 29 30 29 29 28 26 26 24 25 25 25 26 24 23 23 22 22 21 20 20 20 20 18 17 17 17 16 17 16 16 16 16 17 16 14
39 38 37 36 36 29 25 27 29 28 26 25 25 25 25 26 26 28 28 27 27 28 26 24 23 23 24 24 28 27 28 26 23 22 21 21 22 22 20 20 18 18 19 19 18 16 19 19 16 15 14 15 17 17
36 36 37 35 31 27 26 26 25 24 23 25 23 24 24 25 27 27 25 24 26 24 21 22 22 22 24 26 27 25 25 27 24 26 22 21 23 21 20 19 18 18 18 18 19 19 18 17 16 16 18 18 19 16
36 37 36 33 28 25 25 27 25 25 25 24 23 24 24 25 25 24 22 23 21 22 24 22 21 21 20 20 22 24 24 24 23 22 22 22 21 21 20 21 20 19 18 19 18 18 18 16 16 18 19 19 18 15
36 34 33 30 27 25 24 28 24 24 21 23 22 21 22 23 22 18 21 19 20 22 24 22 22 22 20 20 20 20 23 22 20 21 20 20 20 20 20 19 20 20 20 16 16 17 16 13 16 17 18 18 18 17
33 32 31 29 28 24 26 26 23 20 22 21 21 18 19 22 17 18 19 21 20 20 19 20 19 19 18 19 17 18 20 18 18 19 20 18 17 17 17 17 17 17 16 16 16 17 16 18 14 18 16 16 15 15
29 27 28 23 27 24 23 22 22 20 19 20 18 19 20 18 18 18 18 19 18 20 19 20 19 18 19 20 18 16 18 20 17 15 17 18 17 16 16 14 14 14 16 18 18 18 17 16 16 15 13 16 12 13
25 24 22 24 24 23 22 20 20 20 20 19 20 21 20 20 17 16 16 20 21 20 22 22 20 18 16 17 15 14 15 17 17 15 15 15 15 18 17 17 18 14 15 17 17 16 16 18 15 12 14 12 7 10
22 21 21 18 22 21 23 24 22 21 19 18 20 19 18 15 15 16 20 20 20 22 22 21 19 17 16 18 16 16 15 17 19 15 14 13 13 13 15 15 13 12 13 14 14 16 14 14 15 16 16 16 14 13
21 20 18 20 20 20 20 21 20 20 20 20 20 17 16 14 15 18 20 24 24 21 20 19 18 17 16 16 17 17 16 16 15 15 13 13 13 13 12 13 12 11 12 14 13 16 14 14 14 16 15 15 14 14
20 20 19 14 17 18 19 20 20 19 17 19 21 17 15 16 20 21 22 21 22 21 18 17 18 20 19 18 19 17 17 17 14 9 7 13 14 12 12 11 12 12 13 14 13 11 11 12 12 12 12 13 12 13
17 20 17 12 12 14 18 18 20 18 14 17 13 10 10 13 16 23 21 20 19 20 20 19 18 17 15 14 14 14 16 16 15 15 12 12 12 12 11 10 10 11 11 11 11 12 9 11 13 13 11 12 12 11
17 19 16 15 14 18 17 16 16 16 16 15 17 17 13 12 16 21 20 21 23 22 19 17 17 17 16 16 14 11 11 12 10 10 11 12 11 11 10 9 10 10 10 9 9 10 9 10 9 8 8 6 5 5
18 16 13 11 13 14 15 16 15 16 15 14 14 14 13 14 11 13 17 23 20 17 17 17 17 15 17 16 14 13 11 11 8 7 7 9 10 8 8 8 9 10 8 8 8 8 7 7 8 7 7 5 4 3
15 16 15 13 11 10 13 14 13 13 14 14 14 13 14 15 12 16 18 20 20 19 18 19 19 17 13 12 11 10 9 8 5 5 2 2 0 5 8 9 9 7 6 7 6 6 5 4 5 4 4 2 2 1

GFSWCAN_sfc_dewp_123.txt.gz
Dewpoint
37 38 39 41 42 44 45 45 45 45 44 44 43 43 44 44 43 40 36 39 35 30 29 32 32 28 26 23 21 26 25 28 25 20 22 20 21 23 22 24 25 24 23 20 25 22 16 30 27 25 31 35 35 33
36 37 39 41 40 41 43 45 45 45 44 44 43 43 43 44 43 42 36 40 39 33 32 34 33 33 32 30 27 26 26 26 26 23 28 25 23 22 20 17 28 25 27 25 26 26 33 31 30 33 34 34 34 35
35 36 39 39 40 40 40 41 44 45 44 44 44 44 43 44 42 41 37 39 37 32 31 30 29 30 32 30 30 26 27 30 29 31 25 25 20 23 18 20 22 26 30 26 27 30 30 30 30 31 35 33 35 36
35 35 37 39 41 40 40 40 40 44 45 44 44 43 43 44 42 41 37 40 37 33 22 26 31 30 30 29 28 30 29 30 31 32 26 24 23 24 21 22 19 27 27 24 26 28 28 31 30 30 33 34 33 35
34 35 36 38 38 40 41 40 39 41 44 44 44 43 44 44 42 40 39 40 40 33 28 28 30 29 30 30 29 28 28 28 27 26 24 22 24 24 26 25 20 30 23 19 17 29 29 29 33 31 30 34 33 33
35 35 37 37 37 39 40 41 40 41 44 44 43 42 43 43 42 38 30 38 41 39 29 22 30 29 30 29 28 29 29 28 28 28 25 27 26 24 20 21 30 33 33 31 27 31 32 32 31 31 32 32 35 34
37 35 35 36 36 37 39 39 42 42 42 44 43 43 43 42 40 34 32 37 41 39 27 22 24 29 30 30 30 30 30 32 30 28 26 26 25 27 24 22 30 32 32 33 34 33 28 28 23 30 30 32 33 30
37 36 35 35 36 36 39 40 41 42 43 43 42 41 42 42 40 37 38 41 41 35 32 20 23 29 33 28 28 33 30 31 30 28 28 26 27 27 23 28 30 30 30 29 26 28 29 28 26 27 25 26 26 26
38 37 37 36 36 37 38 39 41 42 43 42 42 41 39 37 35 38 42 41 40 34 23 23 20 19 32 29 32 30 30 27 30 26 26 27 25 23 27 27 25 25 25 22 23 21 20 20 19 20 23 23 23 23
38 38 37 37 37 37 38 40 41 42 42 42 37 34 30 34 41 40 37 32 32 29 30 24 26 25 35 29 24 27 28 25 19 27 29 26 25 29 26 25 25 23 20 20 19 17 17 16 17 19 20 20 20 20
37 38 37 36 36 36 38 38 41 43 41 37 32 32 35 41 36 34 26 24 22 23 27 27 25 26 37 26 25 28 24 26 23 26 26 27 25 27 25 24 22 21 18 17 17 16 15 15 16 18 18 18 19 18
36 37 36 36 36 37 37 37 41 37 35 35 36 38 36 32 28 23 21 22 24 20 24 24 25 26 34 36 27 28 26 26 20 30 28 22 25 26 22 20 19 19 17 15 15 16 15 14 14 16 16 16 20 18
37 38 37 36 37 37 37 40 39 38 39 36 34 32 29 24 12 15 13 20 17 25 26 27 25 30 30 32 27 25 23 19 30 22 20 21 25 24 22 21 19 18 17 15 14 14 16 15 15 15 17 18 18 18
38 38 37 37 36 36 40 40 39 39 34 31 24 20 19 15 19 21 21 22 26 28 31 30 28 28 28 25 27 24 23 25 23 23 18 23 24 24 24 23 20 17 18 16 15 14 15 17 16 16 15 17 17 16
38 37 37 37 37 37 40 39 40 38 33 25 25 12 19 25 28 29 29 30 33 32 33 29 28 29 25 22 27 25 18 20 23 19 21 23 25 24 23 22 19 19 17 14 10 7 6 8 13 10 11 12 14 12
37 37 36 38 38 39 39 40 39 36 30 26 26 20 28 28 27 32 30 31 32 33 32 31 27 25 21 23 24 22 21 19 21 21 22 23 22 22 20 19 16 13 15 10 9 13 8 5 4 7 6 7 5 6
37 36 37 38 39 40 41 36 32 28 27 26 23 26 28 29 27 28 30 29 30 29 26 29 24 22 27 23 23 23 20 21 22 22 23 20 18 17 14 16 14 17 12 10 8 9 8 11 8 10 6 5 6 6
37 39 41 41 39 37 34 33 28 26 25 27 26 26 27 27 28 28 29 30 30 31 29 28 29 24 21 20 21 22 24 23 22 20 19 20 19 19 20 16 17 17 11 10 13 12 11 13 17 18 16 17 12 14
39 39 39 39 35 34 30 29 29 24 26 26 24 23 26 24 26 25 27 27 29 28 27 27 25 23 19 24 23 23 22 20 19 19 18 18 18 16 15 15 16 12 11 10 14 13 11 10 12 12 14 16 11 9
39 38 37 35 37 30 26 27 31 27 25 25 26 26 26 25 26 28 28 28 29 28 24 21 17 22 22 23 25 25 25 23 20 18 17 17 18 19 16 18 14 16 17 15 13 13 21 17 12 13 11 10 11 7
36 36 37 36 31 30 28 28 26 27 27 26 25 25 22 25 26 26 25 26 23 19 17 18 18 19 21 22 24 24 24 24 21 22 19 19 22 18 15 16 19 19 17 16 18 14 12 9 10 15 10 5 11 5
35 36 35 34 29 28 28 29 27 28 27 25 25 26 24 22 23 23 25 20 16 15 20 16 15 16 16 17 21 22 18 20 20 21 19 19 15 19 13 14 17 13 12 13 16 14 10 9 10 15 9 10 11 3
35 35 32 30 26 24 23 30 23 25 20 22 25 22 22 23 22 21 17 18 14 20 22 19 20 18 17 12 14 14 14 17 16 15 16 13 13 12 13 14 13 17 13 10 16 15 9 11 9 6 12 12 15 12
34 29 28 28 26 22 25 25 27 24 23 20 22 20 21 22 19 16 18 16 13 20 17 15 17 15 14 16 13 13 13 15 15 18 16 14 12 10 13 11 11 9 11 13 12 11 8 6 6 15 8 10 3 8
23 22 24 20 25 20 23 22 22 21 20 21 18 19 15 19 12 14 15 14 16 17 16 18 17 17 16 17 9 10 12 19 14 11 13 13 10 10 10 11 10 9 11 8 5 7 12 1 4 1 2 0 2 4
21 18 17 21 21 23 23 21 21 21 21 19 20 19 16 14 14 13 17 14 16 17 17 18 17 21 15 16 13 11 11 17 16 11 9 13 11 10 13 14 10 7 9 4 2 3 3 11 9 4 0 3 -2 -4
16 17 21 20 23 24 21 22 25 21 19 19 17 12 15 9 7 14 18 17 18 18 18 21 19 18 17 16 16 15 15 14 16 13 13 13 12 12 7 5 3 2 6 3 0 1 0 0 1 4 7 13 1 -2
21 19 10 14 18 22 15 20 13 13 18 22 21 14 12 7 10 17 17 20 21 21 21 19 19 18 16 16 16 14 10 9 11 11 12 11 8 4 4 3 3 9 1 -1 -2 1 -1 -1 2 9 5 3 3 -2
15 20 17 8 11 14 14 14 17 17 17 17 18 12 8 14 17 20 20 19 20 19 16 15 16 17 16 14 13 11 8 6 5 1 1 4 1 2 1 -1 0 -1 -2 7 8 2 -1 -3 -3 -3 -4 -3 -3 -6
17 22 15 7 4 8 12 15 15 15 15 14 13 12 11 10 13 19 19 19 17 16 15 14 13 13 11 12 13 9 9 7 7 1 -2 0 2 -0 -3 -4 -3 -4 -3 -4 -4 1 9 -1 7 4 2 -6 -6 -4
19 18 17 13 8 13 14 13 10 11 10 9 10 14 9 8 12 18 17 16 17 17 16 13 12 11 9 7 5 1 -3 -2 -3 -2 4 3 1 -0 -6 -5 -5 -3 -2 -5 -6 -6 -8 -5 -2 0 -7 -11 -11 -11
17 17 10 8 9 10 10 9 8 8 7 6 10 9 8 5 4 7 13 17 21 17 14 14 14 13 12 10 7 4 6 3 -2 -5 -3 0 1 -5 -5 -4 -4 -5 -6 -7 -7 -8 -9 -6 -7 -6 -3 -9 -13 -14
14 13 14 10 4 4 7 9 10 9 10 9 11 7 8 8 8 10 12 16 18 16 15 16 15 12 10 9 7 6 2 1 -1 4 1 -1 -6 -3 -6 -4 -6 -7 -7 -7 -9 -9 -8 -10 -12 -14 -15 -16 -17 -18

GFSWCAN_sfc_dewp_126.txt.gz
Dewpoint
37 39 42 43 44 45 46 45 44 44 44 44 45 45 45 44 43 37 35 39 34 30 30 33 32 29 27 24 22 24 23 25 24 19 21 19 21 22 21 24 25 23 21 18 21 18 13 29 25 22 28 31 34 34
37 37 39 42 42 43 45 45 45 44 44 44 44 44 45 44 43 39 35 39 39 33 30 34 32 32 31 29 25 26 25 25 26 23 25 24 23 21 20 16 25 16 21 19 21 22 31 29 28 30 33 32 33 34
35 37 39 41 42 43 44 45 45 45 44 44 44 44 44 44 43 39 36 38 36 30 27 28 24 28 32 31 29 24 26 30 29 30 25 23 19 22 16 18 19 22 29 24 26 30 29 30 29 29 31 30 33 35
35 35 38 39 41 41 42 43 45 45 45 44 44 43 43 44 43 40 36 38 35 30 20 25 31 28 30 30 28 29 28 29 31 31 24 22 22 25 20 21 18 21 24 22 25 28 30 30 29 30 29 33 31 34
35 35 37 39 41 41 41 41 42 45 45 45 44 44 44 44 43 39 37 38 40 30 25 27 30 29 29 30 27 27 27 27 26 25 22 22 25 24 24 24 18 27 21 19 18 28 27 29 31 30 30 31 34 31
34 35 37 38 41 40 41 40 40 42 44 45 44 44 44 43 41 36 28 34 38 37 27 20 29 27 29 30 29 27 28 28 27 26 23 26 27 23 19 20 26 32 33 29 26 31 31 30 30 30 30 33 34 31
36 35 37 37 39 40 41 39 40 42 44 44 44 44 43 42 37 32 28 33 40 37 25 21 24 28 31 28 29 29 30 30 28 27 25 25 24 27 22 21 26 32 31 31 32 32 29 25 22 29 29 31 30 27
37 36 36 36 37 39 40 41 41 41 42 44 43 43 43 40 39 34 36 41 39 33 29 19 22 26 31 27 28 32 30 30 31 28 26 26 26 26 23 26 29 32 32 28 26 32 28 25 27 26 26 26 24 23
38 37 37 37 37 37 39 40 41 41 44 43 43 42 39 34 34 35 42 39 37 30 21 20 18 16 34 31 30 28 29 24 28 24 25 26 24 23 26 27 24 27 24 22 20 19 19 19 21 21 21 21 20 20
38 38 37 37 38 39 39 40 41 43 41 41 37 33 29 34 39 39 33 27 25 26 27 21 25 19 34 27 22 26 24 22 20 25 29 26 25 28 25 23 21 19 19 20 19 16 16 16 18 19 18 19 19 19
37 38 38 37 37 37 39 41 42 42 39 36 32 31 33 41 36 32 26 18 19 24 25 26 25 25 34 29 21 24 23 24 22 24 26 26 24 26 27 20 19 17 17 16 16 15 15 15 17 17 16 17 17 16
37 37 37 37 37 36 38 41 41 36 36 34 36 38 37 32 26 17 19 20 24 20 23 23 23 25 30 35 27 26 25 25 20 29 27 20 22 23 19 19 18 16 15 15 16 15 14 13 15 16 15 16 16 16
38 38 37 37 37 37 39 41 38 38 37 35 33 29 25 21 18 18 14 19 15 23 23 24 21 25 30 34 30 22 16 19 26 23 16 18 23 20 20 19 18 17 16 14 14 15 15 14 14 16 16 16 17 16
38 38 38 37 38 37 39 39 40 39 36 28 24 21 13 16 17 19 20 21 24 23 26 27 24 26 27 26 26 19 21 20 13 20 18 19 23 23 22 22 19 19 17 14 14 14 15 15 13 13 11 13 14 14
38 38 37 37 37 37 39 39 41 41 32 25 21 8 18 18 21 27 28 23 29 27 30 30 28 29 26 23 26 23 23 19 20 18 14 21 23 22 21 20 19 18 14 13 11 9 7 8 9 7 8 9 11 6
38 37 34 37 37 38 40 40 39 36 29 24 23 18 18 23 26 30 26 29 31 33 32 32 26 25 21 21 23 20 20 19 19 18 21 22 21 20 19 19 17 14 13 9 7 6 5 3 3 5 4 4 2 2
36 33 37 38 37 39 40 36 33 28 26 25 22 18 21 25 26 23 28 28 26 32 29 28 24 18 24 20 22 22 14 16 20 21 17 18 17 14 13 15 13 15 9 7 5 6 6 7 4 8 6 3 2 3
35 37 38 38 39 37 37 34 26 25 23 22 20 17 18 20 20 18 27 29 30 29 28 28 28 22 14 19 19 20 20 19 18 18 15 13 16 16 19 19 18 14 11 9 10 7 8 11 14 14 11 10 9 10
37 38 39 39 39 32 27 28 28 23 20 21 19 18 19 16 15 17 24 29 29 29 26 25 20 15 15 17 17 18 18 14 17 13 10 11 15 16 16 16 16 12 10 9 14 12 8 7 8 8 9 13 6 10
39 39 39 40 38 28 26 26 30 25 23 25 23 21 21 15 20 26 24 25 29 28 19 15 11 14 14 19 16 20 18 20 18 16 12 13 15 14 13 14 10 8 12 11 8 15 15 12 8 9 7 7 4 1
37 36 37 33 30 29 27 26 26 27 26 25 24 24 17 22 19 20 24 26 20 14 12 10 8 18 12 16 17 23 21 21 19 16 14 12 8 12 7 7 12 16 13 14 12 6 4 4 5 7 1 0 -2 -0
33 37 31 31 27 27 27 28 26 28 26 25 24 25 17 16 17 16 23 17 9 11 12 10 10 12 15 14 16 18 17 18 17 19 15 17 13 11 12 13 13 4 5 6 10 6 4 5 10 7 1 1 4 -0
35 34 30 29 24 22 24 28 23 24 17 17 24 20 17 18 21 22 10 15 10 13 9 14 8 9 14 8 16 16 15 18 17 16 16 16 14 11 9 7 13 10 5 6 10 8 5 6 4 1 1 4 7 7
33 28 26 26 24 19 25 21 26 25 22 20 21 20 21 20 18 13 12 5 10 15 13 12 16 13 15 17 15 11 9 14 13 11 12 14 12 5 10 8 8 6 9 10 8 5 4 -2 -0 7 -3 2 -4 -3
19 19 19 17 22 18 21 20 21 21 18 20 20 18 15 17 7 6 11 8 16 10 13 15 15 15 13 7 4 7 8 16 14 14 10 9 5 8 8 8 7 5 6 9 1 3 6 -3 -4 -4 -3 -8 -1 -4
13 14 16 16 16 18 21 18 19 18 18 18 17 17 12 7 12 8 13 10 8 10 12 14 15 13 14 13 9 9 11 14 14 9 7 9 11 11 7 4 -1 2 3 -3 -3 -5 -4 1 4 2 -6 -3 -4 -8
10 10 19 21 22 23 15 19 22 16 13 16 13 7 6 7 3 10 14 12 12 10 16 17 18 17 14 11 12 10 13 13 11 10 10 10 9 8 10 7 0 1 1 -3 -6 -5 -6 -9 -8 -7 -7 5 -1 -6
15 16 10 8 12 17 9 15 9 9 13 19 15 8 6 6 7 12 14 12 14 18 18 19 20 17 16 14 12 12 11 11 10 10 10 8 5 -1 -1 -2 -1 6 -4 -8 -8 -10 -8 -9 -5 -1 -5 0 -1 -8
9 13 13 5 6 8 7 9 9 13 14 13 9 5 4 9 9 13 15 15 18 17 16 14 14 15 12 9 4 10 11 10 5 -4 -9 -9 -6 -2 -6 -7 -8 -8 -9 -2 5 -2 -6 -8 -6 -5 -6 -5 -7 -13
11 16 5 -2 1 4 3 7 7 5 11 10 10 10 9 7 8 14 18 18 15 14 13 14 14 13 10 8 6 2 -2 -3 2 2 -2 -1 -1 -5 -11 -9 -9 -11 -13 -11 -10 -6 3 -7 -1 -5 -11 -12 -13 -13
15 13 11 4 -1 1 3 1 -1 2 -0 3 -1 2 3 3 7 12 14 12 14 14 12 10 4 9 9 9 7 4 3 0 -5 0 0 1 -1 -4 -8 -11 -13 -13 -13 -13 -13 -13 -13 -12 -11 -12 -14 -16 -19 -19
6 9 7 5 3 1 1 -0 -3 -2 -4 -2 1 -3 -1 -1 -1 3 11 17 16 13 10 11 11 10 9 8 5 1 3 4 1 3 1 0 -3 -8 -9 -10 -13 -12 -11 -13 -15 -15 -14 -10 -12 -13 -17 -19 -21 -21
5 2 4 0 -3 -4 -2 2 4 2 0 -4 -3 0 1 4 3 7 5 13 17 14 13 11 9 9 7 7 6 3 3 -1 -1 7 3 1 -5 -6 -10 -12 -13 -10 -7 -11 -13 -12 -14 -15 -19 -21 -22 -22 -24 -25